GFSMW_700_spd_000.txt.gz
Wind_Speed
18 15 12 13 15 17 19 20 24 27 31 34 33 34 36 36 36 35 34 35 36 36 32 31 33 34 35 34 33 34 33 32 32 35 34 35 36 36 35 36 37 39 39
8 10 10 11 12 12 15 17 20 24 29 31 32 31 30 34 37 36 37 36 36 36 35 35 36 36 37 37 37 37 36 34 31 34 35 36 35 35 35 37 37 37 38
8 10 11 13 14 15 16 17 18 19 22 28 29 29 30 31 32 34 34 32 33 33 36 38 39 38 40 40 39 39 40 39 34 33 33 38 40 38 36 36 36 36 36
10 13 15 15 15 15 14 14 15 16 17 21 24 24 29 31 30 33 35 35 36 38 39 40 40 40 41 42 42 42 41 40 36 36 35 37 38 40 43 37 36 36 36
11 11 12 12 13 14 16 16 17 16 16 16 18 23 28 31 32 35 36 36 39 41 41 39 39 41 42 42 43 43 43 39 38 37 39 40 39 39 42 44 38 41 36
10 10 11 13 16 17 19 20 19 18 17 17 18 22 27 30 31 32 34 35 36 38 38 37 36 37 40 42 40 41 40 39 40 40 41 43 43 43 42 43 41 42 40
9 11 13 14 15 17 20 21 21 20 20 20 20 21 22 24 25 27 29 30 32 33 36 39 39 37 37 37 37 38 38 38 42 43 44 44 45 44 45 45 45 45 42
15 18 20 21 22 25 28 28 27 26 26 25 24 24 25 26 26 27 27 28 29 31 33 35 37 37 36 35 36 38 40 41 44 45 44 44 44 43 44 47 48 49 47
19 21 22 24 28 33 36 36 34 30 30 30 30 30 30 29 29 29 30 29 29 29 30 32 34 36 38 40 41 43 43 43 44 45 44 46 45 46 45 44 45 50 50
20 22 26 32 38 42 43 40 35 32 30 30 29 30 32 33 32 32 33 33 34 35 35 35 36 36 37 38 40 43 44 45 46 47 49 50 49 46 45 45 48 49 50
27 30 35 36 41 45 41 34 33 31 29 29 29 30 31 32 32 34 35 36 37 39 41 42 42 42 42 42 43 43 43 44 45 46 48 49 47 47 46 43 47 53 48
34 36 39 40 40 37 35 31 33 32 34 34 33 34 35 36 36 36 37 39 40 40 41 42 43 45 46 45 43 42 40 42 43 44 46 48 49 51 54 54 52 54 55
36 41 42 38 33 34 34 32 31 34 35 35 38 39 40 40 39 38 37 37 38 40 41 41 43 43 44 45 46 47 48 48 48 46 46 46 46 49 50 52 52 49 53
44 42 39 36 33 32 35 32 34 35 37 39 41 43 43 42 41 41 40 39 38 38 39 39 39 40 42 44 45 46 48 49 51 51 49 48 47 46 44 46 47 45 47
38 37 36 33 31 35 34 36 37 38 41 44 45 47 46 44 43 43 42 41 41 40 40 41 41 41 41 41 39 39 41 47 50 50 51 50 49 48 45 46 48 51 55
38 37 36 35 37 37 39 40 40 43 45 47 48 48 48 49 50 49 49 50 49 47 45 43 42 40 38 37 37 39 43 45 45 45 47 48 48 48 48 47 47 50 52
39 37 35 35 37 40 42 44 45 47 50 50 48 46 47 48 49 50 51 51 51 51 51 50 47 44 42 39 39 41 42 42 40 42 42 45 47 47 49 48 49 52 57
42 41 36 36 40 44 46 48 48 46 45 45 45 46 47 48 49 50 50 51 51 51 51 50 48 47 45 43 41 43 43 43 42 41 41 42 43 44 47 51 49 53 53
37 38 39 42 46 50 52 48 43 43 45 46 47 47 48 50 51 52 52 53 54 54 53 52 51 48 45 44 44 44 45 45 43 43 43 43 45 43 44 45 55 54 51
38 39 44 48 51 51 45 42 43 46 46 46 47 48 49 51 52 54 55 55 55 55 53 51 48 45 46 45 44 43 44 44 43 41 42 43 43 43 44 44 42 53 47
46 50 53 54 49 43 42 42 43 44 43 45 47 49 50 51 53 55 56 58 58 57 56 52 48 46 45 45 43 41 42 41 41 41 42 44 46 44 43 40 40 43 36
47 48 46 43 41 41 41 40 39 40 43 46 47 48 50 53 56 58 58 58 56 55 53 50 47 45 43 44 42 39 39 37 38 40 41 44 43 41 42 40 36 37 38
43 40 40 39 39 37 35 36 38 43 46 48 48 50 52 55 56 56 56 55 52 50 49 47 48 47 45 42 40 41 40 37 35 38 40 39 37 37 39 38 36 35 37
40 38 37 36 33 31 33 37 42 45 47 48 49 51 54 55 54 52 50 48 47 46 45 45 45 45 44 40 38 39 39 37 33 35 36 37 35 35 32 35 30 30 33
36 34 33 32 31 33 37 40 44 47 48 48 49 52 54 54 53 50 48 46 43 42 44 43 43 43 41 34 33 36 37 36 34 37 37 36 36 35 33 28 28 31 27
31 31 29 29 32 36 40 42 45 47 48 49 51 53 54 52 49 48 46 40 40 39 38 38 37 38 35 31 30 31 33 29 32 36 36 35 36 36 37 31 29 26 22

GFSMW_700_spd_003.txt.gz
Wind_Speed
16 11 8 8 11 14 16 17 20 22 23 23 25 24 24 26 27 27 29 31 32 33 35 36 36 35 35 35 36 37 35 33 33 37 36 35 31 28 29 30 31 30 30
7 7 8 9 11 13 15 17 19 19 20 23 25 26 24 26 27 26 27 28 28 32 34 34 34 35 36 37 37 37 39 39 36 38 41 42 35 32 31 34 33 31 31
6 8 11 13 15 15 14 15 15 16 17 18 21 26 27 25 25 25 27 26 28 30 32 33 35 37 39 40 38 38 39 40 38 38 42 44 42 37 33 35 35 35 32
7 10 11 12 13 14 13 13 15 16 17 18 18 20 21 20 21 25 28 29 32 33 33 34 37 39 41 40 39 39 39 40 41 40 39 40 39 42 43 35 36 37 34
10 11 12 13 13 14 16 18 20 21 21 21 21 21 22 22 24 26 29 30 31 32 33 35 36 37 38 38 38 38 40 40 40 40 37 37 38 39 44 49 36 39 35
10 11 12 13 14 16 18 22 26 28 28 27 26 25 25 25 25 27 27 28 29 29 31 33 34 35 35 36 36 36 37 37 38 39 37 38 40 39 44 48 47 43 34
11 12 14 15 18 19 19 23 27 30 30 29 28 27 28 28 28 29 30 31 32 33 33 35 35 34 34 34 35 35 36 35 37 39 40 42 44 42 44 47 47 47 41
14 16 19 22 23 24 27 34 38 38 33 27 27 28 28 28 29 30 31 32 34 34 35 36 36 37 38 39 40 41 41 40 41 43 44 45 46 46 46 49 51 53 50
17 20 22 25 27 31 35 37 39 36 30 27 24 24 25 26 28 31 33 34 35 36 37 38 38 38 38 38 38 41 43 45 44 44 45 45 45 45 46 48 49 51 56
18 22 25 29 33 38 39 39 34 29 27 25 25 27 29 30 31 32 33 35 36 37 39 40 41 43 44 44 45 46 46 46 46 47 48 48 48 48 49 50 54 52 52
27 29 32 35 35 39 39 32 30 29 28 28 30 32 32 33 35 36 38 38 38 39 40 41 43 44 44 45 46 45 46 48 49 48 48 49 47 48 48 48 49 52 52
28 32 35 38 41 41 39 35 32 33 32 33 34 35 36 37 39 39 39 40 41 41 41 40 41 42 43 43 43 43 43 45 47 49 51 51 51 50 50 49 50 53 54
33 36 39 39 39 38 38 35 32 33 35 36 36 38 41 43 44 45 45 44 43 42 39 38 39 40 40 41 41 42 43 43 44 46 48 49 48 48 48 49 50 49 49
32 34 36 37 38 38 35 32 35 37 39 42 43 45 47 46 46 44 43 43 43 43 42 41 39 37 36 36 38 40 42 44 46 47 47 46 44 45 46 47 48 49 50
32 34 35 37 37 36 36 36 39 42 44 46 47 50 50 49 47 46 45 44 44 43 42 41 40 39 37 36 35 35 39 41 43 44 45 43 43 44 44 44 45 47 50
32 37 42 40 40 41 40 41 42 46 49 51 52 48 45 44 43 42 42 43 42 43 43 43 44 44 43 41 37 36 41 42 43 42 43 42 41 41 42 44 43 45 47
38 44 36 36 40 43 46 45 46 52 53 51 46 44 42 42 41 41 42 43 44 46 46 46 47 47 46 42 38 36 40 43 41 40 40 40 40 40 41 42 44 46 47
45 39 39 41 43 46 47 49 54 54 49 44 43 41 40 40 42 43 45 46 48 48 49 50 49 48 46 39 34 34 40 43 43 41 39 40 40 40 42 42 43 43 46
41 37 37 39 43 47 49 51 50 44 43 41 39 39 40 42 44 46 47 49 51 51 52 53 52 50 46 37 38 38 41 43 43 41 39 40 41 40 41 43 44 45 45
31 35 39 41 43 47 47 43 42 41 40 37 37 39 42 44 46 48 49 50 52 53 55 55 52 49 46 43 43 40 41 43 44 43 39 39 40 40 39 41 44 46 42
31 41 43 47 45 42 41 40 39 38 35 36 38 41 43 45 46 47 49 52 54 55 55 55 53 50 45 44 40 37 40 41 44 45 43 40 38 39 39 37 39 41 43
41 44 45 44 40 38 37 35 32 33 35 38 40 43 45 46 47 49 51 53 54 55 55 53 52 49 46 41 39 37 35 36 40 42 41 38 37 38 38 36 34 39 41
47 44 42 38 38 33 32 31 31 34 38 41 44 46 48 48 49 51 52 54 54 53 52 50 49 47 44 40 36 34 34 35 37 37 36 33 35 37 35 33 32 33 36
44 42 37 35 30 29 29 32 34 38 42 46 48 49 50 50 50 51 53 54 53 50 48 46 46 45 41 37 33 33 34 34 33 33 30 29 30 32 33 32 31 30 32
38 34 34 31 28 29 32 35 38 43 47 48 49 49 49 50 50 50 52 52 48 44 44 42 42 42 39 35 32 32 35 35 35 32 29 28 29 30 31 30 31 28 33
31 30 29 28 29 32 35 39 43 46 47 48 48 49 50 51 52 53 53 48 43 39 37 36 37 37 35 33 31 32 32 33 32 30 29 29 27 29 31 31 32 29 31

GFSMW_700_spd_006.txt.gz
Wind_Speed
22 19 14 8 11 13 13 15 16 18 19 20 21 21 22 22 22 23 23 23 25 27 31 33 33 34 34 32 33 35 36 36 37 40 39 38 36 34 32 32 29 29 28
15 10 8 9 11 14 16 17 19 19 17 18 19 21 21 22 22 21 23 26 26 28 29 31 32 33 34 34 35 38 39 41 39 43 45 47 41 36 32 34 34 32 33
10 9 9 10 13 13 14 14 14 15 15 16 18 19 21 21 21 20 21 25 28 31 33 35 36 37 38 38 40 42 43 45 41 41 43 48 51 46 37 35 36 36 35
10 9 10 11 12 12 11 10 13 17 21 23 23 23 23 23 24 23 23 25 29 31 33 34 36 36 38 40 41 43 43 43 43 41 42 45 47 47 50 40 37 38 37
10 10 11 12 12 11 14 17 19 21 24 26 26 26 26 26 27 28 28 28 30 32 34 36 36 38 39 40 40 40 41 42 44 43 42 44 46 45 48 51 42 42 39
11 11 12 13 14 18 20 20 22 26 30 28 26 25 24 25 26 27 28 29 30 32 34 35 37 38 40 41 43 43 43 42 40 43 42 43 46 46 48 52 52 52 46
11 12 13 15 19 21 21 24 28 33 33 31 27 23 24 25 27 29 31 32 34 35 37 39 40 41 42 42 43 43 42 42 41 41 44 45 45 46 47 52 56 57 57
13 13 16 19 20 22 26 30 31 31 28 26 25 24 24 25 27 29 31 33 35 37 38 40 41 42 43 44 45 47 47 47 48 47 46 48 49 50 50 51 49 56 57
10 11 16 20 24 28 30 32 33 29 27 26 25 25 26 28 30 32 34 35 37 38 39 40 42 43 44 46 48 49 49 49 50 51 52 52 53 53 53 54 54 55 61
11 18 22 27 31 33 35 35 31 30 30 30 30 30 31 33 35 36 37 39 40 42 42 42 43 43 44 46 48 49 49 50 50 51 51 52 54 55 56 56 56 55 56
16 19 26 32 35 34 33 31 31 31 32 31 32 33 35 36 37 40 43 44 45 45 45 45 45 44 44 44 46 48 49 48 49 48 48 48 49 50 52 53 55 57 56
19 28 33 32 31 32 33 33 35 35 34 34 35 37 40 42 43 45 47 48 48 46 45 45 44 43 43 43 44 45 46 48 49 49 50 50 50 49 47 47 50 52 53
31 28 27 27 30 33 35 36 35 35 35 36 41 44 46 48 49 49 47 46 45 44 44 44 44 44 43 43 41 42 43 44 46 47 49 50 52 51 50 49 49 49 49
24 23 27 28 32 36 34 34 35 37 40 42 45 48 52 52 50 48 47 45 44 43 43 42 42 42 41 42 42 42 44 44 45 46 49 51 52 54 54 53 52 51 50
24 28 27 30 37 37 36 37 39 41 43 45 48 53 56 53 49 47 45 43 41 41 41 42 41 42 42 43 43 43 43 44 45 46 49 51 51 52 52 53 54 53 53
26 26 28 36 40 38 38 39 42 45 48 50 53 55 49 45 42 41 40 40 41 42 43 44 44 44 44 43 41 42 47 48 49 50 50 48 48 49 50 50 50 49 52
24 28 37 39 38 37 39 41 45 47 50 51 49 44 43 41 40 41 42 43 45 46 47 48 49 49 48 46 45 47 48 48 49 50 51 50 47 47 48 49 49 48 48
34 37 36 37 39 40 46 47 49 52 48 44 42 41 40 39 40 42 44 46 48 49 50 51 51 52 51 49 48 45 45 47 49 51 49 50 53 47 46 48 49 47 46
36 33 35 38 42 44 44 50 50 45 41 41 38 37 37 38 41 44 46 48 51 52 53 53 53 53 53 51 48 44 46 47 47 49 49 51 51 48 44 47 49 49 44
29 33 36 40 43 47 54 49 43 42 41 38 36 36 38 41 44 49 51 52 53 54 54 54 53 53 53 51 48 45 45 46 46 45 44 46 47 45 43 43 46 47 42
31 35 36 41 51 47 44 42 40 39 38 36 36 38 41 45 49 52 53 54 55 56 55 55 53 53 52 50 45 42 41 41 44 46 47 47 42 40 39 38 39 41 39
36 39 41 47 43 41 38 38 38 38 37 37 38 42 46 50 52 54 54 53 53 54 54 54 54 52 50 46 42 39 37 39 43 44 46 44 39 36 35 35 34 36 36
39 41 42 41 41 36 36 37 36 37 37 39 42 46 50 52 52 53 53 52 52 53 54 54 53 51 47 42 37 36 36 38 41 41 42 41 36 33 33 31 30 32 34
36 38 39 36 31 32 33 34 35 37 40 44 47 50 52 53 52 51 51 52 52 53 53 52 49 47 44 40 37 38 37 39 39 40 39 38 34 32 29 27 28 30 32
35 34 30 28 29 31 30 33 38 41 44 47 50 51 52 52 51 50 50 50 50 52 50 46 44 44 43 40 38 38 39 38 40 41 38 37 32 31 27 25 27 29 30
32 30 29 30 31 32 33 37 40 43 46 48 50 51 51 50 50 50 50 48 50 48 43 38 38 39 39 40 38 37 36 38 38 38 37 36 33 31 27 26 28 29 31

GFSMW_700_spd_009.txt.gz
Wind_Speed
20 17 16 13 8 10 10 11 12 12 12 13 13 15 16 17 18 20 22 24 27 30 31 31 31 32 32 33 35 37 38 39 41 46 46 46 44 42 41 40 40 39 39
12 14 11 9 10 12 13 13 13 13 12 11 13 14 16 17 18 20 20 22 23 25 30 32 33 34 36 36 38 41 42 43 43 48 52 55 51 45 42 43 43 43 44
15 10 9 10 11 12 12 13 12 12 13 15 17 20 20 20 21 21 23 24 25 27 29 32 35 36 39 39 40 42 44 46 45 47 49 52 55 54 48 45 45 44 46
11 10 10 10 10 11 11 14 17 18 19 21 24 25 23 23 23 24 25 27 29 30 32 33 35 37 38 39 39 41 44 45 48 46 46 47 49 51 56 51 47 43 46
12 11 10 10 10 12 16 20 21 22 25 28 29 26 24 23 24 25 27 29 31 33 35 36 38 39 41 42 43 43 44 45 47 46 43 45 48 46 51 54 54 53 46
13 11 9 8 11 15 18 19 23 26 28 28 26 23 22 23 24 26 27 29 31 34 36 38 40 42 44 45 46 47 47 47 47 47 46 45 47 47 50 53 54 58 56
11 10 8 10 14 16 19 23 26 28 29 26 24 24 25 25 25 27 29 31 33 35 37 39 41 43 45 46 48 49 50 51 52 53 53 53 52 50 52 56 60 61 60
10 9 9 11 14 18 24 27 29 29 26 25 26 26 25 26 28 31 33 36 37 39 40 42 43 44 45 47 48 50 50 51 51 52 53 55 56 56 57 58 59 61 63
8 9 10 16 20 25 27 26 27 26 27 27 27 26 27 29 32 35 38 40 43 44 45 46 46 46 47 48 49 50 51 52 54 55 54 53 53 53 56 58 59 55 60
9 11 16 20 24 25 25 26 27 28 29 30 30 30 31 32 36 40 42 44 46 47 47 47 47 47 47 48 49 50 50 52 54 54 55 54 53 52 51 52 54 56 55
11 16 20 25 25 24 25 26 29 31 31 32 32 33 35 39 44 45 47 49 48 48 47 47 47 47 47 48 48 49 50 51 51 52 53 53 52 53 53 54 54 54 55
15 19 24 26 21 22 25 28 31 33 33 34 36 38 40 43 45 49 53 51 48 47 47 46 46 46 46 46 47 47 48 49 49 49 50 50 52 53 54 55 55 55 54
20 27 23 18 21 23 28 31 32 33 34 36 38 41 45 48 51 54 52 49 48 46 44 45 45 45 46 46 47 47 48 48 49 49 49 50 51 52 54 56 57 59 60
23 16 19 20 19 26 31 34 35 34 37 41 43 48 50 57 55 52 50 48 45 45 44 44 45 45 46 46 47 48 48 48 48 48 49 49 51 53 54 57 58 60 62
16 17 18 18 24 31 36 37 36 39 42 44 47 51 60 51 47 47 46 44 43 44 45 45 46 47 48 48 49 49 50 50 49 49 49 50 50 52 54 57 58 59 60
19 19 19 24 31 34 36 38 42 43 45 47 50 60 50 46 46 44 42 43 43 44 46 49 51 53 53 51 50 50 52 53 52 52 51 51 51 52 52 54 56 56 56
21 22 26 29 32 36 39 41 43 46 49 52 58 49 46 45 43 42 43 44 46 49 52 53 55 56 55 54 55 54 55 55 55 54 53 53 53 54 55 55 55 56 55
27 30 33 34 35 37 41 43 44 49 56 55 48 46 45 43 42 43 44 47 50 54 57 58 58 58 56 55 55 55 55 55 54 52 51 51 52 52 53 53 55 55 49
35 34 33 33 33 39 43 45 45 54 47 45 44 44 43 42 42 44 47 52 56 59 60 60 59 57 56 56 56 56 56 55 53 50 48 47 48 49 47 50 52 49 44
28 30 32 32 36 40 45 49 48 45 41 40 41 41 41 42 45 49 52 56 60 61 60 59 56 55 55 55 56 56 55 53 50 48 49 47 46 45 44 46 45 43 41
31 30 30 33 39 44 46 46 46 40 37 38 38 39 41 45 49 53 57 59 60 59 56 56 54 53 54 55 55 53 49 46 44 48 50 48 46 45 42 40 39 39 39
30 32 34 38 41 43 42 43 38 36 37 38 39 41 45 49 53 56 57 56 55 54 54 54 54 55 55 53 49 46 43 42 44 47 47 46 45 44 40 38 34 33 33
30 31 35 37 37 37 35 33 34 36 37 38 41 45 49 52 54 55 54 54 53 53 55 56 58 57 53 49 44 42 42 42 43 44 45 44 44 41 39 35 32 31 31
32 33 34 35 34 32 32 34 36 37 39 42 45 49 51 53 54 52 52 52 52 54 56 56 56 55 50 46 44 44 45 45 43 45 45 43 41 38 38 33 30 29 29
33 33 33 32 32 31 32 35 38 40 42 45 47 49 53 53 52 51 52 53 53 53 54 52 50 49 47 44 44 44 46 43 37 47 45 43 41 39 37 31 29 28 28
31 30 30 30 30 31 33 37 39 42 45 47 49 52 54 53 54 55 55 51 51 49 47 46 43 43 42 43 44 46 44 43 45 46 44 41 40 39 36 33 31 29 30

GFSMW_700_spd_012.txt.gz
Wind_Speed
19 19 16 12 11 9 9 10 11 12 11 11 9 9 11 12 15 17 18 19 21 24 26 28 29 32 34 35 38 40 41 41 43 48 48 49 47 47 47 47 46 46 46
19 13 10 10 7 8 10 10 10 9 8 8 9 11 14 16 17 19 21 22 24 26 28 30 32 34 35 36 38 41 43 44 42 47 51 55 53 50 49 47 45 44 42
12 10 9 7 7 8 8 7 8 9 11 13 16 18 20 19 19 20 23 24 26 28 30 32 34 36 38 39 40 42 44 46 44 44 48 53 56 54 54 49 47 48 48
11 8 7 7 6 5 7 11 13 15 16 19 22 22 19 18 18 19 21 23 26 28 31 33 35 37 39 41 42 43 45 47 50 49 48 50 52 51 58 55 51 49 49
10 9 8 5 4 8 11 13 16 19 22 23 23 21 20 19 20 21 23 25 28 30 32 34 36 38 40 42 45 45 46 48 51 52 53 52 52 52 55 64 60 57 56
11 9 6 3 6 10 13 16 20 23 25 23 21 20 20 20 21 21 23 25 27 30 33 36 38 41 43 44 46 47 47 49 50 51 53 54 57 58 58 61 63 64 62
12 10 5 5 8 11 16 21 24 24 23 21 21 22 23 23 24 26 28 31 33 35 38 40 42 44 45 46 47 48 49 50 52 54 55 55 56 56 58 61 64 65 65
12 8 6 8 9 14 21 24 23 23 22 22 23 24 26 27 29 32 34 37 41 43 45 46 46 46 47 48 49 50 51 52 53 55 55 56 56 55 54 55 58 62 63
10 8 9 8 12 18 22 22 22 22 23 25 26 28 30 31 32 34 38 42 44 48 50 50 49 48 48 49 49 50 50 51 52 53 53 54 54 54 54 52 52 54 59
11 10 9 11 16 23 20 22 22 24 26 29 31 32 34 34 35 38 42 45 49 52 52 50 49 49 47 47 47 47 47 49 49 50 50 51 51 51 51 52 52 52 54
10 10 12 16 21 22 20 23 25 28 30 33 35 35 36 36 39 43 47 55 54 51 50 49 47 46 46 46 47 48 49 50 50 50 51 50 51 51 51 51 52 53 54
12 13 16 20 26 20 21 26 29 32 34 36 37 39 39 40 43 48 58 54 47 47 47 45 45 46 46 47 48 49 51 52 54 54 55 54 54 54 54 54 55 56 56
15 15 23 22 19 21 24 28 31 33 36 38 40 41 43 46 49 53 52 46 46 46 45 46 46 47 48 50 52 54 55 56 57 56 55 54 54 55 55 55 55 57 59
18 25 18 17 20 22 25 30 34 36 37 39 41 45 48 50 54 56 50 47 46 46 46 46 48 50 52 54 57 58 58 58 57 56 54 53 53 53 55 56 56 58 61
25 18 18 20 22 24 29 33 36 38 41 42 45 49 50 55 55 48 46 46 46 46 47 49 51 53 56 59 61 61 59 58 58 56 55 54 52 53 54 56 57 57 59
20 21 21 22 25 28 31 35 38 40 42 46 49 53 56 50 47 45 45 45 46 47 50 52 56 59 60 60 59 57 58 57 55 55 54 54 53 53 53 52 52 53 53
18 19 21 24 27 29 33 37 38 42 44 48 51 54 50 44 43 44 45 46 48 50 53 56 60 61 60 59 58 55 54 54 55 55 55 54 53 52 53 52 51 49 47
22 25 27 28 29 31 34 37 39 42 47 52 47 45 43 42 43 44 45 46 49 54 58 61 61 61 58 56 55 55 57 57 57 55 52 52 51 49 49 49 48 47 45
29 27 26 28 31 31 32 36 40 46 48 44 41 39 40 41 43 44 46 50 55 58 61 62 60 58 56 55 56 58 58 56 54 50 47 46 46 47 46 46 48 47 44
27 27 26 27 29 32 35 38 42 44 41 38 37 38 41 42 44 46 50 54 58 61 60 58 57 55 55 55 55 55 53 51 48 46 46 45 46 45 43 46 45 46 43
27 28 28 29 31 34 36 38 40 39 36 35 37 39 40 43 46 50 53 56 59 58 57 57 56 55 54 53 52 49 46 44 46 47 46 47 47 44 44 44 44 42 42
28 29 29 30 32 35 38 39 38 36 35 35 37 40 42 46 49 51 54 55 56 57 57 57 56 54 53 52 48 44 41 41 43 45 46 46 48 48 45 43 41 39 37
28 28 30 32 35 36 37 36 35 34 35 36 39 42 45 47 50 53 54 55 55 56 56 56 56 54 51 49 44 42 42 43 44 44 41 46 48 47 43 39 38 37 35
29 31 33 35 35 36 35 36 35 35 37 39 42 45 47 49 51 52 53 54 54 55 55 55 55 52 49 46 45 45 46 47 46 45 47 48 46 42 39 37 34 32 31
32 33 33 33 32 32 33 34 36 38 40 42 45 46 49 50 51 52 53 52 52 53 53 51 50 48 45 45 44 45 47 47 45 47 49 47 43 39 35 33 32 30 29
32 32 32 31 30 30 32 35 37 40 43 44 47 49 50 50 51 53 53 51 50 49 46 44 44 44 42 44 45 46 46 46 46 47 47 43 38 36 34 33 32 30 31

GFSMW_700_spd_015.txt.gz
Wind_Speed
14 14 16 17 13 10 7 7 7 6 5 4 4 6 8 11 13 16 18 20 21 23 24 26 27 28 29 31 33 35 37 37 40 45 46 46 45 45 45 45 45 45 45
16 14 14 10 8 6 5 4 3 3 4 6 8 10 12 14 15 17 18 20 21 23 24 25 27 29 30 32 35 39 41 41 42 47 50 54 52 50 50 49 48 48 48
15 12 10 9 6 4 3 3 5 6 7 9 12 14 15 16 16 17 18 19 21 23 24 27 29 32 35 37 39 41 44 46 44 45 49 55 57 58 55 54 54 52 51
14 11 10 8 5 4 4 5 7 9 10 13 16 16 15 14 15 16 18 20 21 24 26 29 32 35 38 40 42 43 45 48 50 48 45 47 53 59 68 61 60 57 56
14 12 10 7 5 5 5 7 9 12 16 18 16 14 14 15 17 19 20 23 25 28 30 33 36 38 41 43 45 46 46 48 51 52 55 55 54 54 58 68 65 62 60
12 12 10 7 6 5 7 11 15 18 19 18 16 16 16 18 19 20 23 25 28 31 34 38 41 42 44 46 47 47 48 49 50 52 53 55 57 57 56 59 63 63 62
12 12 10 8 6 5 10 15 19 21 20 18 18 18 19 21 23 25 27 29 31 35 39 42 44 46 46 46 45 45 45 46 47 47 49 49 50 51 53 55 59 60 60
13 13 10 9 7 8 13 19 22 22 21 20 21 23 24 26 29 31 33 35 37 40 45 47 45 43 43 43 44 44 45 46 48 48 49 51 51 52 53 54 55 59 59
12 11 10 9 8 10 16 22 24 24 23 24 25 27 29 32 34 35 36 38 40 46 45 43 42 43 44 44 45 45 45 45 47 47 48 49 50 51 53 53 53 51 52
13 11 11 11 12 14 20 24 24 25 25 27 29 32 35 36 36 36 38 41 45 49 46 42 42 42 43 44 45 45 45 47 49 50 52 53 54 55 55 54 53 52 51
12 11 12 14 15 19 25 24 25 27 28 31 33 37 38 36 37 41 44 46 48 47 42 42 43 44 44 44 46 48 51 53 55 57 58 58 57 56 55 55 55 54 53
14 14 15 16 17 24 24 23 27 29 31 34 37 39 38 39 43 45 48 49 45 44 43 43 43 44 45 47 51 54 56 59 61 61 61 59 58 57 56 55 56 58 58
16 16 17 19 23 23 24 26 28 31 35 38 40 39 40 42 48 47 51 48 45 42 42 43 44 46 49 52 55 58 61 61 61 60 59 57 56 55 54 53 54 56 57
20 20 21 23 22 23 25 28 29 34 36 39 39 41 43 48 49 49 48 44 43 42 43 44 47 50 52 56 58 61 61 60 59 57 55 53 52 53 53 53 54 55 56
22 21 24 24 23 25 28 30 32 34 37 39 40 44 47 48 48 45 44 43 42 43 45 47 50 52 55 58 60 60 60 59 57 55 53 52 51 50 48 48 48 48 48
23 25 22 22 24 26 29 31 32 34 36 39 43 46 46 45 44 42 41 42 42 44 47 50 53 55 56 58 58 58 59 57 56 55 53 52 49 45 42 41 42 41 37
20 21 21 23 26 27 28 30 32 34 36 40 43 45 42 41 40 39 40 42 44 47 50 52 54 56 58 59 59 58 59 57 55 53 51 47 42 41 42 43 43 42 42
19 20 25 25 24 25 28 31 32 35 37 40 43 43 40 39 38 39 42 45 48 50 52 54 56 58 59 60 59 57 56 54 52 48 44 41 41 42 43 43 42 43 42
22 25 23 22 23 25 28 30 33 35 38 40 40 39 38 38 39 41 45 48 50 51 52 55 58 58 58 58 55 54 54 52 48 43 41 39 42 43 42 35 48 47 41
24 21 20 21 23 25 28 32 34 34 36 37 36 36 37 39 42 45 48 49 51 52 53 56 57 57 57 53 51 50 49 46 43 43 42 40 41 43 37 45 50 47 41
20 20 21 22 24 27 30 33 34 35 35 34 35 36 39 42 45 48 49 50 51 52 54 55 56 56 53 50 47 46 44 42 43 45 44 43 42 39 47 45 42 41 40
20 22 23 25 27 29 32 33 32 33 33 34 36 38 41 44 47 48 49 50 51 53 54 55 55 52 49 46 44 44 42 41 43 46 46 45 44 45 44 41 37 35 36
23 25 26 27 29 30 31 31 32 33 33 34 37 40 44 46 47 48 49 50 51 53 53 53 53 52 48 46 43 43 43 44 46 46 47 47 46 42 38 34 32 31 32
25 26 26 27 28 29 30 32 32 33 35 37 40 43 44 45 46 47 48 49 50 51 51 50 52 51 48 45 45 46 48 47 46 47 49 47 42 36 32 29 27 28 30
25 25 25 27 28 29 31 31 33 35 37 40 42 43 44 45 47 48 49 49 49 48 48 48 48 49 49 47 47 46 46 45 45 49 46 42 37 32 27 25 26 27 28
24 25 26 27 27 27 30 32 34 37 40 41 42 44 45 46 48 49 48 47 46 45 44 44 44 45 46 47 46 45 43 43 44 44 41 38 34 30 27 27 27 27 29

GFSMW_700_spd_018.txt.gz
Wind_Speed
12 12 12 13 14 13 11 8 6 5 5 6 8 9 10 13 15 18 21 23 24 25 25 26 27 27 29 31 32 34 36 37 41 46 48 47 48 47 49 49 48 48 48
16 17 16 14 11 9 8 6 5 5 6 7 9 12 14 17 19 20 21 21 22 23 23 25 26 28 30 32 36 39 41 43 44 49 52 55 53 50 52 52 52 52 51
16 16 14 11 10 10 8 7 6 7 7 9 10 12 14 16 17 17 18 19 21 23 25 27 30 33 35 38 41 44 46 49 47 47 50 56 58 60 57 56 57 56 56
18 16 13 12 12 11 9 8 8 8 9 11 14 16 16 16 16 17 19 20 22 25 28 31 34 37 40 42 44 45 47 49 50 49 47 48 53 58 66 60 59 58 58
18 16 14 14 13 12 10 8 7 8 11 15 15 14 15 16 17 19 21 24 27 29 32 35 37 40 42 43 44 43 43 44 45 47 48 48 48 49 53 64 60 58 56
18 17 16 16 15 12 10 8 8 11 15 18 17 16 16 17 20 21 24 27 30 33 34 36 38 41 41 39 38 39 40 41 42 43 45 47 50 52 55 59 62 64 62
17 17 18 17 15 12 10 10 11 16 19 19 18 17 19 21 23 26 29 31 31 32 35 38 41 41 38 38 39 40 40 41 43 44 46 47 49 52 55 59 63 66 66
17 19 19 18 15 13 11 12 15 20 22 21 21 22 24 26 29 33 33 32 34 37 39 40 40 39 40 39 40 41 42 44 45 46 48 51 52 55 57 60 63 68 69
17 20 20 18 16 14 14 15 18 23 25 24 24 27 29 32 35 36 35 36 39 41 41 39 39 39 39 40 41 42 43 45 47 49 52 54 56 58 59 59 59 60 65
20 21 21 18 16 16 17 18 22 26 26 26 28 31 34 37 39 38 39 42 42 43 41 40 39 39 40 41 42 44 46 49 51 54 57 58 58 58 58 57 57 56 57
21 20 19 18 17 17 18 21 25 26 26 29 32 35 38 40 41 41 43 45 44 42 40 39 40 40 41 43 45 47 51 54 56 57 58 58 57 57 56 55 55 55 55
20 19 19 18 18 18 19 23 26 27 29 32 34 37 40 42 42 45 46 46 42 40 39 40 41 42 43 46 49 51 54 56 58 59 59 57 56 56 55 54 54 54 54
22 21 21 19 19 20 23 25 28 30 32 33 37 39 41 44 44 46 45 41 39 39 41 42 43 44 46 49 51 53 56 59 60 60 60 59 57 56 54 53 54 53 51
21 21 21 21 22 24 26 27 30 32 33 35 38 40 42 44 45 45 41 39 40 40 41 42 45 47 48 51 53 56 58 60 61 61 59 55 53 53 52 51 49 46 46
22 22 23 23 24 26 27 29 31 33 35 38 40 42 43 43 44 42 39 39 40 41 43 46 47 48 50 52 55 58 59 61 61 58 56 53 51 49 46 44 43 44 43
22 25 25 25 26 26 28 30 32 34 37 38 40 41 42 43 42 40 40 40 42 43 46 47 49 50 51 53 56 58 61 60 59 58 55 51 48 45 42 42 42 40 37
24 25 25 24 25 27 30 31 32 34 37 38 39 41 42 41 40 40 41 42 43 46 47 48 50 50 52 54 57 59 59 58 57 54 52 48 44 43 43 44 43 37 35
22 22 22 24 27 29 29 29 32 35 37 37 38 40 40 39 39 40 41 43 46 48 48 50 51 51 54 55 57 58 57 55 53 51 48 46 44 43 44 45 44 40 43
20 20 22 26 26 25 26 28 31 35 36 35 37 38 38 38 39 40 43 46 48 48 49 50 52 52 54 55 55 55 54 52 50 48 45 43 44 44 44 39 40 48 52
19 22 23 21 22 23 26 29 32 34 33 35 36 36 36 38 40 43 46 47 48 50 50 51 52 53 53 53 54 52 51 50 49 47 46 46 46 45 42 41 47 52 48
21 20 19 20 22 24 26 29 30 31 33 34 34 34 37 39 43 45 46 48 49 50 50 51 51 53 53 52 51 49 48 48 49 50 50 48 46 44 47 45 44 45 44
18 18 20 21 23 24 26 28 30 30 31 31 32 34 38 41 44 46 47 48 49 50 50 51 51 52 53 50 48 47 47 47 49 50 49 47 47 47 45 42 39 38 36
17 19 21 22 23 24 26 28 29 29 29 30 33 37 40 42 44 46 47 48 49 50 50 50 51 52 52 51 49 48 48 48 48 47 46 46 47 44 40 35 32 31 32
18 20 21 22 23 25 27 28 28 27 28 32 35 39 41 43 44 45 47 48 49 49 49 49 50 51 51 50 49 49 49 49 47 44 47 45 43 39 35 31 27 28 31
19 20 21 23 24 25 26 25 26 28 31 34 37 40 42 43 44 46 48 48 47 48 48 48 48 50 51 49 48 48 48 48 43 46 44 42 39 36 31 27 27 28 30
21 21 23 24 24 24 24 24 27 30 33 36 39 41 42 44 45 47 48 48 47 46 45 44 45 47 47 47 47 47 46 43 42 42 41 39 36 32 29 28 28 28 34

GFSMW_700_spd_021.txt.gz
Wind_Speed
15 14 14 15 15 15 15 14 11 9 8 9 10 10 12 14 17 20 23 23 26 27 28 30 30 31 32 34 36 38 40 42 44 48 49 48 48 46 46 49 46 48 48
18 16 16 16 15 14 12 10 9 7 7 8 9 11 14 17 20 23 23 24 25 25 26 28 29 31 33 36 39 42 44 45 45 49 51 52 49 47 45 46 47 47 49
20 18 19 17 15 13 12 11 9 9 8 8 10 13 16 18 19 20 20 21 23 25 27 29 32 35 38 40 42 44 45 46 44 43 45 49 52 53 50 49 49 49 49
24 21 19 17 15 14 13 11 10 9 8 9 11 14 15 16 17 18 20 22 24 27 30 34 36 38 40 41 41 43 42 42 42 41 40 41 46 51 60 55 52 51 51
27 22 20 17 16 16 15 13 11 8 8 10 13 15 17 17 18 20 23 26 28 32 34 36 36 37 39 40 41 39 38 39 41 42 44 45 46 46 51 61 59 58 57
27 23 20 18 18 18 15 13 11 10 10 12 16 17 16 17 19 22 25 29 33 35 33 35 37 38 38 38 37 37 38 40 41 42 43 46 49 51 54 58 61 63 63
25 22 21 20 20 18 16 14 13 12 13 15 19 19 18 20 23 27 29 33 35 34 36 37 38 38 37 37 37 38 39 40 41 42 44 46 49 52 56 60 64 68 68
23 21 21 22 21 19 18 16 14 14 16 20 22 21 22 25 28 31 34 38 37 37 39 39 38 37 36 37 39 40 41 43 44 46 48 50 52 55 57 60 64 70 70
21 21 23 24 22 21 19 17 17 17 19 24 25 25 27 30 33 36 39 41 40 41 41 40 38 39 39 40 41 42 43 45 46 48 51 53 55 57 58 59 59 61 70
23 23 25 24 23 21 19 19 19 21 23 26 27 28 31 34 37 40 43 44 43 43 42 40 39 39 39 40 41 43 45 47 49 51 53 55 57 59 59 60 59 58 57
25 23 24 25 23 21 21 21 21 23 26 29 30 31 34 37 40 43 45 45 44 43 41 39 39 39 40 41 44 46 47 50 52 53 56 57 59 60 59 58 57 57 54
24 22 23 23 21 22 21 21 23 26 29 32 32 34 36 39 43 45 45 45 44 42 40 40 40 41 43 46 48 48 50 52 54 56 58 59 59 59 58 57 56 55 53
23 23 24 22 23 22 22 23 26 29 32 33 35 37 39 42 45 46 45 45 43 41 41 41 42 44 46 48 48 49 51 53 55 57 58 59 59 58 56 54 53 51 48
18 24 24 23 23 23 24 26 28 31 32 35 36 38 41 44 45 46 46 45 42 41 42 42 44 46 48 48 49 51 53 54 56 57 58 58 57 55 53 51 49 46 44
15 22 23 24 24 25 26 28 30 31 33 36 38 40 43 45 45 46 46 43 42 42 43 45 47 49 49 50 51 53 54 55 56 57 57 56 55 53 50 46 46 44 44
17 21 23 25 27 27 28 29 30 32 36 38 40 41 43 45 45 45 43 41 42 43 46 49 50 49 49 50 52 53 55 55 56 57 57 55 53 50 47 46 46 41 41
20 21 24 26 28 27 27 29 32 35 37 39 40 41 43 44 44 42 41 42 44 47 49 49 49 49 49 51 52 53 54 55 56 55 54 53 50 48 49 49 48 45 40
20 22 25 25 24 26 28 31 33 34 36 39 41 41 41 42 41 40 41 44 46 48 49 48 49 51 51 52 53 53 53 53 53 52 52 51 51 50 48 45 47 45 45
22 21 21 22 24 27 29 29 31 34 36 40 39 39 40 40 39 40 43 45 48 48 48 48 50 52 52 52 52 52 52 53 52 51 51 51 51 50 46 44 47 54 53
19 19 20 23 25 26 26 28 31 34 36 36 36 38 37 38 40 42 45 46 47 47 48 50 52 53 52 51 51 51 52 53 52 52 51 50 49 47 42 45 52 52 47
18 19 21 24 23 24 27 28 31 33 33 34 34 34 36 38 41 43 45 46 47 48 50 52 52 51 51 51 51 51 51 52 53 54 53 51 49 43 45 46 45 43 41
19 21 22 22 23 25 27 28 29 29 31 32 32 33 36 39 41 43 44 45 47 50 51 51 52 52 52 51 51 50 50 49 51 52 52 50 44 48 47 43 40 35 34
20 20 20 22 24 25 26 27 27 28 28 29 32 35 36 38 41 43 44 46 48 50 51 52 52 52 52 51 50 50 49 48 49 49 48 46 47 45 41 36 33 32 34
17 19 21 22 23 24 25 26 25 26 28 31 33 34 37 39 41 43 45 48 49 50 50 50 51 52 52 50 49 49 50 50 50 48 46 44 42 39 35 31 29 31 33
18 19 21 22 22 23 23 23 24 27 30 31 32 35 38 40 42 43 46 48 49 51 51 50 51 51 50 48 47 48 49 50 47 45 43 42 39 35 30 29 30 32 36
18 20 21 21 22 23 23 24 26 28 28 31 34 37 39 41 43 45 47 48 49 50 51 50 49 49 47 47 47 47 48 44 41 42 41 39 34 32 30 31 33 35 33

GFSMW_700_spd_024.txt.gz
Wind_Speed
24 15 14 15 15 15 15 16 17 16 14 13 13 12 12 12 15 17 20 23 25 26 27 28 28 30 32 35 37 40 42 42 45 46 45 43 40 39 38 39 40 40 41
23 17 17 15 16 16 16 15 13 11 10 9 9 9 11 14 16 18 20 21 22 24 25 27 29 31 34 37 40 42 42 42 43 46 46 45 41 40 39 39 40 40 41
24 20 19 18 18 17 15 14 12 11 10 8 8 10 12 14 16 17 18 19 20 23 25 28 31 34 37 37 38 39 41 40 37 38 43 47 50 52 49 46 45 45 45
30 23 21 21 20 18 16 14 13 11 9 8 8 9 11 13 15 16 17 19 21 25 29 32 35 35 36 37 38 38 38 39 39 37 36 39 45 50 59 54 50 48 49
34 25 25 22 21 19 17 15 14 11 10 9 8 9 12 14 16 17 20 22 26 28 32 34 34 35 36 36 36 36 36 37 39 40 41 40 41 43 50 61 58 55 54
33 29 27 24 22 21 19 17 15 13 11 9 9 12 16 17 18 20 24 27 30 32 35 35 36 37 37 36 35 35 36 37 38 40 41 43 45 47 50 55 58 61 60
30 26 27 26 25 22 21 18 16 14 12 11 12 16 20 21 21 24 27 30 33 36 37 38 38 38 36 36 36 37 37 39 40 41 42 43 44 47 50 55 60 64 63
25 25 27 27 25 24 22 20 17 14 14 14 16 20 23 23 25 28 31 34 38 39 40 40 40 38 37 37 38 38 39 41 42 43 44 46 47 49 51 54 58 65 65
20 25 27 26 25 25 23 20 18 17 17 17 20 23 26 27 29 32 34 38 41 42 42 42 40 38 38 39 40 41 42 44 45 45 46 48 49 50 52 53 55 59 68
21 25 26 26 27 26 23 21 19 19 20 21 24 26 29 30 32 34 37 40 43 44 43 42 41 40 40 41 42 44 45 47 46 47 49 50 51 53 53 54 55 56 58
24 24 24 25 27 25 24 22 20 21 22 24 27 29 32 33 35 38 41 43 45 44 44 42 41 41 42 43 45 46 47 48 48 49 51 53 53 54 53 54 55 56 56
24 24 24 24 25 25 24 22 21 22 24 27 29 32 34 35 38 41 43 44 45 46 44 42 42 42 43 45 47 48 48 49 50 51 53 53 53 53 53 54 55 55 54
22 24 24 22 23 24 24 23 23 24 26 29 32 34 36 38 40 43 44 46 46 45 43 43 43 44 46 48 48 49 50 50 51 52 53 53 53 53 53 54 54 53 53
11 19 22 22 23 24 24 24 25 26 29 31 34 36 38 39 41 43 45 46 45 44 43 43 44 46 47 48 49 50 50 51 52 52 52 52 52 52 53 53 52 51 50
9 11 17 22 23 23 24 26 26 28 30 33 35 37 39 40 42 44 45 45 44 43 43 44 46 47 47 48 49 51 53 53 53 52 51 51 51 51 50 47 48 48 50
11 13 17 21 23 23 25 26 27 29 31 34 36 39 40 40 42 44 44 42 41 41 43 45 47 48 48 48 49 51 53 52 52 52 52 52 52 50 50 49 48 43 41
14 14 18 20 21 23 25 26 28 29 33 36 37 38 39 40 42 42 41 40 41 43 45 46 47 47 48 49 51 51 52 51 51 52 53 53 52 50 50 50 49 45 42
15 17 20 21 21 24 25 25 27 31 34 35 35 38 38 40 40 39 39 40 43 44 45 46 46 48 50 51 51 51 51 51 51 52 52 52 52 51 49 48 47 46 48
17 17 19 20 21 22 23 26 30 31 32 33 35 36 38 38 37 37 39 40 43 43 44 45 48 50 51 51 51 52 53 54 53 53 53 53 52 51 46 41 43 50 53
18 18 18 19 20 22 25 28 28 29 31 33 34 35 36 36 36 37 38 40 42 44 45 46 49 50 51 51 51 52 53 54 54 54 53 52 51 50 41 42 48 49 47
16 16 17 18 20 24 25 25 27 28 30 31 32 34 33 34 35 37 39 41 43 44 45 47 49 50 51 51 51 50 50 51 52 53 53 51 49 42 43 43 42 41 39
14 15 17 20 22 22 23 25 26 27 28 30 31 31 31 33 36 38 40 41 42 45 46 49 50 51 52 51 50 49 49 48 49 50 50 49 43 43 41 38 35 33 34
14 16 18 18 20 22 23 23 25 26 28 29 28 29 31 34 36 39 40 41 44 47 49 50 51 52 52 51 49 48 46 46 47 47 45 42 41 40 36 31 30 31 33
16 16 16 18 20 21 23 24 25 26 26 26 28 30 33 34 36 37 39 42 46 48 50 52 54 54 53 50 48 47 47 48 47 45 43 40 38 33 30 28 27 31 35
14 15 17 18 20 22 22 23 23 23 24 26 29 32 33 35 37 38 41 44 46 49 51 52 52 52 51 48 46 46 47 46 43 42 41 38 34 29 28 28 30 33 27
15 16 18 19 21 21 21 21 22 23 25 28 30 32 34 36 38 40 42 44 46 48 48 47 47 46 45 44 44 45 45 40 39 40 38 34 30 29 30 33 34 26 25

GFSMW_700_spd_027.txt.gz
Wind_Speed
20 19 17 16 15 16 17 17 17 17 18 19 18 16 15 13 13 13 16 18 19 20 22 23 25 28 30 33 35 37 37 37 39 39 38 35 33 35 34 36 36 36 36
22 22 19 18 15 15 15 15 15 15 13 13 13 12 11 11 12 14 16 16 18 20 21 23 26 29 32 35 35 35 36 36 40 41 41 41 36 37 35 34 34 35 36
26 26 20 19 17 16 16 15 15 14 13 14 12 10 10 11 12 13 15 16 18 19 22 25 28 32 34 34 35 36 36 35 35 38 41 44 44 44 40 40 40 41 42
30 30 25 20 19 19 18 17 15 14 14 12 11 10 9 9 11 14 15 16 18 21 25 28 30 32 32 33 34 35 36 36 35 34 36 39 44 49 56 49 44 43 45
34 30 28 22 22 21 19 17 16 15 13 11 10 7 6 8 12 14 15 17 20 24 27 30 32 33 33 34 35 35 35 37 37 38 37 38 40 43 51 59 54 50 48
35 35 32 26 25 23 21 20 18 16 14 12 9 7 8 12 15 16 18 21 24 27 30 33 34 35 35 36 35 35 36 36 37 39 41 44 46 47 49 54 56 59 58
37 35 34 29 28 24 23 22 20 17 15 12 9 10 12 15 18 20 23 26 28 31 34 36 37 37 37 37 36 36 37 38 39 41 43 44 45 47 50 54 59 63 61
36 34 29 28 29 27 24 22 20 18 15 13 12 13 16 19 22 25 27 29 32 34 36 38 39 39 38 37 37 38 38 40 41 43 45 47 46 48 50 53 58 65 64
26 29 29 29 29 27 25 23 22 19 16 15 15 17 19 23 26 28 30 32 35 37 38 39 40 39 38 38 38 40 41 43 45 46 47 48 48 50 51 52 53 57 65
20 23 27 29 30 28 26 25 23 20 18 17 18 20 23 26 28 30 33 35 37 39 40 41 41 39 38 39 41 43 45 46 46 47 49 49 50 52 52 52 52 52 56
19 23 26 28 28 27 27 26 23 21 19 19 21 23 26 28 31 33 35 37 39 40 42 42 40 39 40 41 44 46 47 47 48 48 50 51 52 53 52 51 51 52 54
20 22 24 25 26 26 26 25 24 22 21 21 23 25 29 31 33 35 38 40 40 42 42 42 40 40 41 44 46 47 47 48 49 50 52 52 52 51 51 51 52 53 54
22 23 23 23 23 24 25 26 24 23 23 23 25 28 31 34 35 38 39 40 41 42 42 41 40 42 44 45 45 47 49 51 51 51 52 51 52 52 52 52 54 54 55
14 19 22 22 22 23 25 25 24 23 23 25 27 31 33 35 37 39 39 40 41 41 40 40 42 43 44 45 47 49 51 51 50 50 51 52 52 53 53 54 53 53 53
9 11 15 19 22 22 23 23 23 23 24 26 30 32 34 36 38 38 39 40 40 39 39 41 42 43 44 47 50 51 51 51 51 51 51 52 53 52 52 51 52 51 50
9 11 12 15 18 20 20 20 21 22 25 29 31 33 35 37 36 37 39 39 37 37 39 41 43 44 46 48 48 48 50 51 52 53 54 54 54 53 51 49 48 44 40
10 9 9 13 15 17 18 19 21 24 26 28 31 33 36 35 36 37 38 37 36 39 40 41 43 45 46 47 47 49 51 53 54 56 57 56 54 52 51 50 48 44 39
11 12 14 15 17 18 18 19 21 23 26 29 31 33 33 34 35 36 35 36 37 39 41 42 44 45 45 47 49 51 54 56 57 56 56 54 52 51 50 48 43 42 47
12 14 15 14 14 14 16 18 22 25 27 29 30 30 32 33 34 33 34 36 38 39 40 41 43 46 47 48 52 55 56 56 55 55 52 50 49 49 45 38 43 49 47
14 12 13 13 13 14 16 20 23 25 26 27 29 30 31 32 31 33 35 37 38 39 41 42 44 46 49 51 54 55 55 55 54 51 48 47 46 43 38 41 45 44 40
15 13 12 12 13 16 19 21 23 24 25 26 27 29 29 29 31 33 36 37 39 40 42 44 45 47 49 52 53 53 53 49 48 47 47 46 41 38 41 38 37 36 35
13 12 13 14 15 18 20 20 22 23 24 25 26 27 27 30 32 34 35 37 40 42 44 46 47 48 51 53 53 51 47 44 45 46 45 42 40 40 37 34 32 31 33
12 12 14 16 16 17 18 20 21 22 23 23 24 25 28 30 33 35 36 38 41 44 46 48 50 52 54 53 50 47 45 44 45 44 42 39 39 36 32 29 30 32 34
11 12 14 14 15 17 18 19 20 21 22 22 24 26 28 30 32 34 37 40 42 45 48 50 52 54 54 50 47 46 45 45 44 42 39 37 35 30 27 26 29 28 26
10 11 12 14 15 17 18 19 20 20 21 23 25 27 30 32 33 35 38 40 42 45 48 50 52 52 50 46 44 45 44 43 41 40 37 35 30 27 26 28 24 23 24
9 10 12 14 16 18 18 18 19 20 22 24 26 29 31 33 35 37 37 38 42 44 46 47 47 46 42 42 42 42 42 39 37 36 35 31 28 28 31 27 24 24 26

GFSMW_700_spd_030.txt.gz
Wind_Speed
25 23 23 21 19 19 22 25 26 25 22 20 20 22 21 18 16 14 14 15 17 18 19 21 22 25 28 30 32 33 33 35 35 35 33 32 33 33 33 33 33 33 35
32 25 23 21 18 18 18 20 20 19 18 19 19 18 17 14 13 13 14 16 17 18 19 22 24 27 30 32 33 32 33 34 36 36 38 38 34 36 35 34 34 35 36
33 31 26 21 18 18 18 16 16 16 16 16 17 15 13 12 12 12 13 14 16 18 20 23 26 29 31 32 32 32 32 33 36 39 40 43 43 42 38 38 37 40 41
37 33 30 24 20 20 19 17 16 15 15 15 14 14 12 11 10 10 12 15 17 20 23 25 27 30 31 31 32 33 34 35 36 37 39 40 44 48 53 44 42 44 45
39 37 32 27 24 21 21 18 16 15 16 16 15 13 11 8 7 9 12 15 19 22 24 27 29 30 31 32 34 35 36 37 37 38 38 39 42 46 53 59 54 48 47
38 37 34 30 27 24 23 20 18 18 18 16 14 12 10 8 8 11 14 17 21 24 27 29 31 33 34 35 36 37 37 37 38 39 41 43 46 48 52 57 60 63 61
42 41 37 34 31 26 25 21 20 20 18 16 14 13 11 10 11 14 18 21 24 27 30 33 34 35 36 37 37 37 37 37 38 41 43 45 47 50 53 57 61 65 65
45 43 37 34 32 27 26 24 23 21 18 17 16 14 12 13 15 18 21 25 28 30 33 36 37 38 39 39 38 37 38 39 41 43 45 47 49 51 53 57 62 69 69
43 39 37 35 32 26 27 26 24 22 20 18 17 15 15 16 18 21 25 28 31 33 36 37 38 39 40 40 39 39 40 42 43 45 47 49 51 53 54 56 58 62 71
39 38 36 34 30 26 29 28 25 23 20 19 17 17 17 19 21 25 28 31 33 35 38 38 39 40 40 39 40 41 43 44 45 47 49 51 53 55 55 56 57 58 61
28 32 33 30 27 29 30 28 26 23 21 20 19 19 19 22 25 28 31 33 35 38 39 39 40 40 39 40 42 43 45 46 48 49 51 53 55 55 55 55 57 58 58
22 24 26 25 27 30 29 28 26 24 23 22 21 20 22 24 28 31 33 35 37 39 40 41 40 40 41 42 44 45 47 49 50 52 53 53 54 54 55 57 58 58 57
22 22 22 23 25 27 28 27 26 25 24 23 22 23 25 27 31 33 34 36 39 40 41 41 40 40 41 43 44 47 49 50 52 52 52 53 55 57 58 59 59 59 58
20 20 22 23 24 25 26 26 26 25 25 24 24 26 27 30 33 34 36 38 39 39 40 39 40 41 43 44 47 49 50 51 51 51 52 54 57 59 60 60 58 56 55
18 20 21 21 23 25 25 25 25 25 25 26 26 27 29 32 33 35 37 38 39 39 39 39 40 42 44 46 49 51 53 52 51 52 54 57 59 59 58 56 55 53 50
14 15 19 20 21 21 22 22 24 25 25 25 26 28 30 32 35 36 36 37 37 37 38 40 42 43 45 47 50 52 52 51 53 56 58 60 60 58 55 52 50 47 40
9 12 12 13 14 17 19 21 22 23 24 24 26 28 30 33 35 35 36 37 37 37 38 40 43 45 46 49 51 51 51 53 56 59 60 59 55 51 51 50 48 41 41
3 9 11 12 13 15 17 19 20 21 21 23 26 28 31 32 32 34 36 35 36 38 39 41 44 46 49 50 50 51 53 55 57 58 56 53 50 49 49 47 43 44 47
9 10 10 11 12 13 15 16 17 19 21 23 26 28 29 31 32 33 33 35 36 38 40 42 45 48 48 50 52 54 56 58 57 55 50 48 48 47 42 40 46 45 39
11 9 9 11 12 13 14 15 16 18 21 24 26 27 29 30 31 31 33 36 38 39 42 43 45 47 49 51 52 56 58 58 56 51 48 46 44 41 40 42 42 39 36
11 11 11 11 12 12 12 14 17 20 22 23 25 26 28 29 29 31 34 37 39 40 42 44 45 47 49 51 54 56 55 53 51 49 47 44 40 39 38 36 34 35 37
12 13 12 10 10 12 14 16 19 20 21 23 24 26 27 28 30 32 34 38 40 42 43 45 46 47 48 52 54 53 50 47 47 47 45 41 39 37 34 32 32 34 37
12 12 12 11 11 13 16 17 18 19 21 23 24 24 25 28 31 34 36 38 40 42 44 47 49 50 51 53 52 50 48 46 45 44 40 37 36 33 30 29 32 33 29
12 11 11 12 13 14 15 16 17 20 20 21 21 23 26 29 32 35 39 40 42 43 45 48 50 52 53 52 50 48 47 46 45 41 37 35 33 29 28 29 27 25 27
10 11 12 12 12 13 14 16 17 18 19 20 22 25 28 31 33 36 38 40 41 44 47 49 52 53 52 49 46 46 45 44 41 38 34 32 28 26 26 23 22 24 24
10 10 9 9 10 13 14 15 16 18 20 22 25 27 30 33 35 37 36 38 40 42 45 48 50 49 46 43 43 43 42 38 37 34 33 29 27 27 26 24 23 23 23

GFSMW_700_spd_033.txt.gz
Wind_Speed
27 27 27 25 23 21 21 23 25 26 28 29 28 25 24 24 23 19 17 15 16 17 18 20 22 24 26 28 30 32 33 33 32 32 30 32 32 32 32 33 32 34 35
33 32 29 26 22 21 21 22 23 23 24 25 24 24 24 23 21 17 16 14 15 17 19 20 22 25 28 30 31 32 33 33 33 34 35 35 33 34 34 34 33 35 36
35 30 32 26 24 20 19 19 18 18 20 22 22 23 23 21 17 14 14 13 15 17 19 21 24 27 29 30 31 31 32 33 35 37 38 40 42 43 38 36 35 38 39
37 33 33 31 28 21 18 17 17 17 18 19 21 19 16 15 14 13 12 13 15 17 20 24 26 28 30 31 31 32 33 35 37 38 38 40 43 46 49 43 40 41 43
41 37 34 29 30 25 22 18 17 19 19 18 18 17 16 14 13 12 11 12 15 18 22 25 27 30 31 32 32 34 36 37 37 38 38 39 41 43 49 53 49 44 44
43 40 37 34 33 29 24 20 18 20 19 19 17 16 15 14 13 11 12 13 17 21 24 27 30 32 33 34 35 37 38 38 38 38 39 42 44 46 49 54 56 60 58
41 45 42 38 33 30 25 22 20 21 21 19 18 17 17 15 13 13 14 16 20 24 27 30 32 35 35 36 38 39 39 38 38 39 40 43 45 48 51 55 59 64 65
37 42 39 34 30 29 26 23 21 24 23 20 19 18 17 15 14 15 16 19 23 27 30 33 35 37 38 39 40 40 39 39 40 41 43 45 47 50 53 57 62 67 68
32 38 40 33 31 29 26 24 23 26 24 21 20 20 18 17 16 17 20 23 26 30 33 36 38 40 40 41 41 40 40 40 42 43 45 47 49 52 54 55 58 62 71
32 36 39 35 34 32 28 26 26 26 24 23 22 21 20 18 18 20 23 26 29 33 35 38 40 41 42 42 42 41 42 43 44 46 47 49 52 54 55 56 57 59 63
28 28 34 35 33 33 28 26 29 28 26 24 23 22 20 20 21 24 26 29 32 35 37 40 41 41 42 42 41 42 44 45 46 47 50 53 55 56 57 58 60 62 64
21 20 27 31 32 30 28 28 30 28 27 25 24 23 22 23 25 27 29 32 35 37 40 42 41 42 41 41 43 44 45 47 48 51 54 55 56 57 58 61 63 64 63
19 21 28 30 29 27 27 29 30 28 27 26 25 24 24 26 28 29 31 34 37 39 41 41 42 41 41 42 44 46 47 48 51 53 55 56 58 60 62 64 64 64 63
18 20 24 26 26 25 26 29 29 28 27 26 26 26 28 28 29 31 34 37 38 40 41 42 42 42 42 44 45 47 48 50 52 54 55 57 59 62 63 64 62 59 57
20 22 23 23 22 24 26 28 28 27 27 27 28 29 29 30 31 33 37 37 39 39 41 41 41 42 44 46 47 49 51 53 55 56 56 58 61 61 59 57 55 54 54
21 21 21 19 20 21 23 25 26 27 28 29 29 29 29 30 32 37 36 37 38 40 41 41 42 43 45 46 47 50 53 55 56 56 58 60 60 57 54 52 51 47 44
17 17 16 17 17 18 19 21 23 25 26 27 27 27 28 31 34 35 35 37 39 39 39 41 43 43 46 47 50 52 54 54 54 57 59 59 55 53 51 50 47 45 42
14 14 15 15 17 18 19 21 21 22 23 24 24 26 29 31 32 33 35 37 37 38 39 41 43 44 46 49 51 53 53 54 55 57 56 54 52 50 48 46 45 45 39
13 13 13 13 13 14 15 17 18 19 20 21 23 26 28 29 31 33 35 36 36 38 40 42 44 46 47 50 52 53 54 56 57 56 53 51 50 48 44 43 45 41 34
15 13 13 13 13 13 14 15 16 17 19 20 23 25 27 29 31 33 34 35 36 38 41 41 44 47 50 51 52 53 55 57 58 53 50 48 46 42 40 41 40 37 36
15 16 14 12 12 12 13 13 14 16 18 20 23 25 27 29 31 32 32 34 37 39 41 43 45 47 49 50 51 53 55 56 55 50 47 45 42 39 37 36 34 35 38
15 15 13 12 13 13 12 12 14 16 18 20 22 25 27 28 29 30 33 36 38 40 43 45 45 45 47 49 52 53 53 51 49 47 45 42 40 37 34 32 33 35 33
14 15 14 13 12 11 12 13 15 16 18 21 24 26 26 27 29 31 33 36 39 42 44 46 47 48 48 50 52 53 50 48 47 45 40 39 37 34 30 30 32 32 32
13 12 11 11 11 11 12 13 15 17 20 22 23 24 25 27 30 33 36 38 41 43 45 46 48 49 50 52 53 51 48 47 46 43 39 37 34 31 30 29 27 27 29
11 10 9 9 10 10 12 14 16 18 20 21 21 23 25 28 31 34 37 39 41 44 46 48 49 51 52 52 50 48 47 45 42 40 37 34 30 28 27 23 23 24 25
8 8 9 9 9 11 13 15 16 17 18 18 21 24 27 30 32 35 36 39 42 42 44 46 49 50 50 47 44 44 42 39 39 36 35 32 30 29 25 24 22 22 25

GFSMW_700_spd_039.txt.gz
Wind_Speed
44 50 50 49 46 41 36 32 27 28 27 28 30 32 31 27 26 25 25 17 16 23 16 14 14 14 16 19 22 25 26 27 27 26 26 27 28 28 28 29 31 31 33
41 44 49 50 49 43 36 31 28 29 29 27 25 26 27 27 26 27 25 22 17 22 17 14 14 14 17 20 24 26 28 29 28 28 28 29 29 28 28 30 32 32 33
41 43 45 48 46 44 35 31 29 29 28 26 26 25 26 26 26 26 24 23 24 19 15 13 13 16 19 22 25 28 30 31 30 29 31 33 33 35 32 31 32 32 33
40 39 44 46 43 41 35 33 30 27 26 23 23 23 22 23 24 25 22 25 22 18 14 13 14 17 20 24 27 29 31 32 32 32 32 34 37 39 43 39 37 38 37
34 36 40 45 40 38 36 35 30 25 23 21 21 21 20 23 24 23 25 24 23 16 14 14 16 19 23 27 30 32 33 34 34 34 35 36 37 39 42 44 39 38 39
27 28 32 40 42 40 38 37 32 25 22 20 20 20 20 22 24 24 25 19 17 15 15 16 18 21 25 29 32 34 36 36 36 37 38 39 40 40 43 47 47 48 46
22 26 30 39 43 43 40 37 33 27 22 20 21 22 22 22 20 24 22 23 17 16 17 18 21 24 28 32 34 37 38 38 38 38 39 39 40 41 43 46 49 54 55
23 25 28 37 40 41 40 38 35 28 23 20 22 23 22 19 24 24 21 19 18 17 19 21 23 27 31 34 37 39 39 39 39 39 39 39 41 43 45 48 53 57 58
22 25 27 34 40 40 39 35 33 28 24 21 23 24 23 25 25 24 21 19 19 19 21 23 26 30 33 37 39 40 40 40 40 40 40 41 43 45 47 50 53 57 65
21 22 26 31 38 40 39 36 31 27 24 23 23 24 24 24 24 23 22 20 20 21 23 26 29 32 36 39 40 41 41 41 40 41 41 43 45 46 49 52 54 56 60
23 22 24 30 33 39 40 37 30 30 27 23 23 25 25 24 24 23 22 22 22 24 26 29 32 35 38 41 42 42 41 41 41 43 43 44 47 49 50 52 54 56 59
27 24 23 27 30 35 40 37 31 28 26 24 25 26 26 25 24 23 23 23 25 27 28 31 34 37 40 42 42 41 41 41 42 43 44 46 48 50 51 53 56 59 60
23 25 27 28 30 37 38 34 30 28 26 25 26 26 26 25 25 24 24 26 27 29 31 34 36 39 41 42 42 41 41 42 43 45 47 49 51 52 53 56 58 59 58
23 28 28 30 31 36 34 32 29 26 26 25 26 26 25 24 24 25 26 26 29 31 33 35 37 40 41 41 41 41 42 43 44 46 48 50 52 54 56 58 59 58 55
21 25 25 29 34 37 34 31 26 25 25 25 25 25 24 24 25 25 26 28 31 32 33 36 39 40 40 40 41 42 43 45 46 47 49 51 52 54 56 56 55 53 51
22 25 26 29 32 31 28 25 24 25 24 24 24 22 23 24 25 25 28 30 31 32 34 37 38 39 39 40 41 44 45 47 48 50 50 52 53 54 54 51 49 47 44
26 27 28 28 26 24 21 21 22 21 22 22 21 22 22 23 25 27 29 30 30 32 35 36 37 37 39 41 42 44 46 48 49 50 52 53 54 53 51 48 45 42 37
26 27 27 25 22 20 20 20 20 20 19 19 19 21 22 24 25 27 27 28 31 33 34 35 36 38 40 42 44 46 48 49 50 51 52 53 52 49 48 45 43 39 34
25 23 22 20 18 18 19 19 18 17 17 18 20 21 22 22 23 24 26 29 30 32 33 35 37 39 41 43 45 48 49 50 52 52 51 51 49 46 42 41 40 36 31
22 21 20 18 16 16 17 16 15 15 16 17 17 18 18 20 22 24 26 28 30 30 32 35 38 41 42 44 46 48 51 53 54 51 49 46 43 40 38 38 38 36 32
20 19 17 14 14 14 14 13 14 14 13 13 14 15 18 20 21 24 26 27 29 32 33 36 38 41 44 46 47 48 51 53 53 51 46 42 39 37 36 35 33 33 32
12 17 17 16 14 13 11 11 11 10 11 12 13 16 18 20 22 24 25 27 30 33 35 37 38 40 43 46 48 50 51 51 50 46 41 38 37 36 34 32 31 30 28
12 13 14 11 11 10 10 9 9 9 10 11 14 16 18 20 22 23 26 29 32 34 37 39 40 41 43 46 49 50 49 48 45 42 38 36 35 34 30 29 28 27 28
11 10 11 11 8 8 9 9 8 9 11 13 14 16 18 19 21 24 27 30 33 36 38 41 42 44 47 50 51 50 48 44 42 40 38 35 34 31 28 25 24 26 27
12 11 10 9 9 8 7 8 9 10 11 13 14 16 17 20 23 26 29 31 35 38 40 43 45 49 51 51 51 49 46 44 42 40 36 32 30 26 24 22 23 24 26
11 10 11 10 8 7 8 8 9 10 11 13 14 16 19 22 25 27 30 33 35 38 41 43 47 48 49 48 46 45 42 41 39 36 32 30 28 26 24 23 23 25 27

GFSMW_700_spd_042.txt.gz
Wind_Speed
41 45 54 54 54 50 47 41 38 35 31 30 32 33 35 35 33 30 28 25 27 23 19 22 17 15 13 13 15 18 20 22 24 26 26 25 26 26 27 27 30 31 32
39 40 47 55 56 55 52 48 42 38 33 31 31 31 32 32 32 32 29 27 27 22 20 20 16 15 14 14 17 19 22 24 26 27 27 27 28 28 28 29 32 33 35
40 39 41 49 55 56 55 51 45 38 34 31 34 32 30 31 31 32 30 30 26 25 22 20 16 15 14 16 18 21 23 26 27 28 29 31 32 32 31 32 33 33 34
31 36 38 43 50 55 53 51 47 41 35 33 33 31 31 30 31 32 28 28 27 24 21 17 16 15 15 17 20 22 25 27 29 31 31 31 33 35 37 36 38 37 36
29 28 30 38 44 49 51 49 46 40 34 34 33 31 30 30 29 29 28 28 25 26 22 18 17 16 17 19 22 25 28 30 32 33 33 34 35 37 40 40 38 39 40
17 30 29 35 41 47 47 46 45 38 35 34 32 31 28 24 27 29 27 24 26 25 21 20 18 18 20 22 25 28 30 33 35 36 36 36 38 40 42 44 43 43 41
24 20 29 34 40 47 48 44 41 40 37 34 32 28 27 25 25 28 24 23 25 21 19 20 19 21 23 25 28 31 33 36 37 38 38 39 40 40 41 44 46 48 48
24 21 25 30 39 44 47 45 42 41 37 35 31 27 27 26 27 24 23 25 22 24 23 21 22 23 25 28 31 33 36 39 39 40 40 41 41 41 42 44 48 51 53
21 27 26 26 35 43 47 45 42 39 37 35 29 26 25 25 24 24 20 28 25 22 22 22 24 25 28 31 33 35 39 41 41 41 42 42 42 42 44 46 49 53 59
23 33 29 28 33 39 43 45 42 38 37 34 29 25 24 25 23 23 28 25 25 23 23 24 26 27 31 33 35 38 41 42 42 42 42 43 43 44 46 49 52 54 58
18 28 29 29 32 37 42 44 42 37 34 33 28 25 24 24 26 29 28 25 24 24 25 26 27 30 33 35 38 41 42 42 43 43 43 43 45 46 48 51 53 55 57
24 24 29 28 30 38 43 44 41 37 34 30 27 24 23 25 25 29 25 24 24 25 26 28 30 33 35 38 40 42 42 42 42 43 44 45 46 48 50 52 54 56 57
28 20 30 30 31 39 44 45 40 36 31 29 26 24 23 27 25 24 24 25 25 26 28 30 32 35 37 39 41 42 42 42 43 43 45 46 48 50 52 53 55 57 58
21 23 32 30 32 37 41 42 39 35 30 27 24 23 23 23 24 24 24 25 26 27 30 32 34 37 39 40 42 42 42 42 42 44 45 47 49 51 53 54 55 57 56
13 23 33 31 31 37 39 41 39 33 28 25 23 22 23 23 24 24 24 25 26 29 31 33 37 37 38 41 41 41 42 42 43 45 47 49 50 51 53 54 54 54 54
17 26 32 30 29 32 38 37 33 28 24 23 21 20 22 23 23 24 24 25 28 30 32 36 35 38 38 39 40 41 42 43 45 47 48 50 52 52 52 52 51 50 48
22 29 31 31 33 35 33 29 27 23 22 22 21 21 22 22 22 22 24 26 28 32 33 34 36 36 37 38 39 41 43 44 46 48 49 51 52 52 52 51 48 45 42
24 26 29 31 31 29 28 25 23 21 23 20 21 22 20 20 21 23 25 27 29 30 32 33 34 34 36 38 40 42 44 45 47 48 50 51 51 50 49 47 45 43 40
31 34 34 31 29 27 25 22 22 20 20 19 18 18 19 20 22 23 25 25 26 29 30 31 32 34 37 39 41 43 45 48 50 50 49 50 50 47 44 43 42 40 35
30 31 31 29 26 24 21 20 19 18 17 17 17 18 19 20 21 21 21 24 26 28 29 31 33 35 37 40 42 45 47 50 52 51 49 47 45 42 39 39 39 38 32
25 25 23 21 19 18 18 18 17 16 16 16 16 16 17 18 17 19 22 24 25 26 29 32 35 37 40 42 44 46 48 51 51 50 47 44 42 39 37 36 35 34 33
21 20 19 20 18 17 16 16 15 15 14 14 14 14 13 14 17 20 22 23 25 28 30 32 35 38 40 43 45 48 48 48 48 46 45 41 39 37 34 33 31 30 28
17 19 16 16 18 17 15 12 11 10 11 11 10 11 13 15 18 20 22 24 27 30 32 34 36 38 41 44 46 47 46 46 45 43 40 37 35 32 30 28 28 27 29
16 17 17 15 13 15 14 14 11 10 8 8 9 11 14 17 18 20 23 26 29 31 34 36 39 41 43 45 46 47 47 45 43 41 37 34 30 29 26 24 25 27 29
14 15 14 13 11 10 10 8 6 5 6 8 11 13 15 17 19 22 25 28 30 33 36 39 41 44 46 47 48 47 44 42 41 39 35 30 27 25 24 24 25 26 28
14 14 14 11 9 7 6 5 4 5 8 10 12 14 16 18 21 24 27 29 33 36 39 40 43 44 45 46 46 44 40 39 38 35 31 27 26 24 24 24 24 25 24

GFSMW_700_spd_045.txt.gz
Wind_Speed
36 40 43 55 60 56 54 52 48 42 38 35 34 32 33 33 36 34 32 30 30 28 24 21 21 19 18 15 15 15 16 17 20 22 25 25 26 26 26 27 28 30 31
37 37 40 46 53 61 61 56 52 49 44 39 36 35 37 37 35 33 32 32 30 27 24 20 21 19 19 16 16 16 16 18 21 23 25 28 29 26 27 28 30 32 34
36 36 38 41 44 53 61 61 57 54 49 46 41 39 39 35 31 29 31 31 30 28 26 22 21 22 20 18 17 17 18 20 21 25 28 30 31 31 31 31 32 34 35
27 29 34 40 42 44 53 59 60 57 54 51 47 42 35 33 32 30 29 30 31 31 29 23 23 20 20 19 18 18 19 22 25 27 29 32 33 34 34 35 37 39 40
22 25 29 36 42 42 47 53 57 59 58 54 48 41 36 37 34 32 30 31 31 31 29 24 25 23 21 20 19 20 22 25 28 30 33 35 35 36 38 38 38 41 40
17 24 30 34 38 44 47 51 54 54 58 56 48 42 40 36 33 32 30 30 33 30 27 24 21 23 23 21 21 23 25 28 31 33 36 38 38 39 41 44 43 43 40
22 29 33 31 40 42 48 52 51 51 52 51 46 41 41 33 32 30 27 28 30 29 26 28 25 23 22 22 24 26 28 31 34 36 39 40 40 40 42 45 45 46 43
22 25 28 33 37 42 42 52 48 49 49 47 43 43 36 32 31 30 31 30 28 26 26 25 23 23 23 24 26 28 31 35 37 39 41 42 42 42 44 44 47 49 48
17 22 27 30 33 41 40 46 47 47 45 43 45 40 34 31 28 30 30 30 27 28 24 25 25 25 25 27 29 31 34 37 40 42 43 44 43 43 43 44 46 50 54
28 27 28 26 33 31 37 37 42 47 43 44 42 37 31 29 28 29 30 25 23 27 28 28 25 25 27 29 31 34 37 40 41 43 45 44 44 44 44 46 47 50 54
22 24 21 24 32 28 33 35 43 48 46 43 39 34 30 28 27 28 26 23 24 25 26 26 26 27 28 31 34 37 40 42 43 45 44 44 45 44 45 47 50 52 54
29 32 26 26 28 27 34 36 44 47 44 39 34 33 29 27 26 27 22 27 28 28 27 26 27 28 30 33 36 40 42 42 45 44 44 44 45 46 47 50 51 54 55
28 30 21 26 25 28 33 37 43 44 40 34 33 31 26 25 27 21 27 28 28 27 26 27 28 30 32 35 38 41 42 44 43 43 44 44 46 47 49 51 53 55 55
30 32 23 25 26 28 33 37 40 38 36 33 30 27 25 24 23 26 26 25 26 25 26 27 29 32 34 37 40 41 43 42 42 43 44 45 47 48 51 53 54 54 55
28 26 27 25 28 30 31 36 38 37 34 31 29 26 24 21 22 25 26 25 24 25 27 29 31 34 36 39 40 41 41 41 42 43 44 46 48 50 52 53 54 54 54
25 22 20 26 26 27 28 33 35 35 33 30 26 24 20 25 24 23 23 23 25 26 28 30 32 36 37 38 38 39 40 41 42 44 45 48 50 52 53 54 53 51 49
16 15 19 24 25 28 29 31 34 31 26 22 21 24 23 22 21 21 21 23 25 26 28 31 35 34 35 36 37 38 40 42 43 45 47 49 51 51 52 52 50 47 44
10 17 22 27 27 30 30 28 30 27 28 24 26 23 21 19 19 21 23 23 24 27 31 31 31 32 33 35 37 39 41 43 45 47 48 50 51 50 50 49 47 45 42
13 18 24 26 26 30 31 32 29 29 26 27 25 19 17 17 19 20 21 23 27 27 27 28 29 31 34 35 38 40 42 45 47 49 49 50 50 48 48 47 45 42 39
22 25 28 28 27 33 35 30 30 24 23 14 13 14 15 16 17 20 22 24 22 25 26 27 29 32 34 36 38 41 44 46 48 48 48 47 46 45 44 43 42 40 36
28 28 28 24 25 22 21 19 16 12 12 12 12 13 14 16 18 19 18 20 22 24 25 28 31 33 35 37 40 42 45 47 49 48 46 44 42 42 39 37 34 34 34
22 23 22 21 19 17 15 14 14 13 13 13 13 13 14 14 14 16 18 21 22 24 26 29 31 34 37 41 42 43 45 46 47 45 43 40 39 37 33 32 32 31 30
20 19 19 19 18 18 16 13 11 10 10 11 11 12 11 12 14 17 19 20 22 25 27 30 32 35 38 41 43 45 45 45 44 42 40 38 36 32 29 29 29 28 30
13 13 13 13 13 14 14 13 10 8 10 10 8 9 11 13 15 17 19 21 24 27 30 32 34 36 39 43 45 45 43 43 42 40 38 35 30 28 27 26 26 28 29
12 11 12 12 12 15 13 11 10 8 7 7 8 10 11 13 15 18 21 24 26 29 31 34 37 40 42 43 44 44 43 43 41 39 35 30 25 24 24 25 26 26 27
12 13 12 12 10 11 10 7 5 5 6 7 8 10 13 15 18 20 22 25 28 31 34 38 40 41 43 44 44 42 40 39 37 34 30 25 25 24 24 24 23 24 26

GFSMW_700_spd_048.txt.gz
Wind_Speed
31 33 36 38 46 52 47 43 50 51 45 42 41 37 33 36 33 32 30 30 25 25 26 26 24 22 18 18 18 19 18 17 16 17 18 19 21 23 24 26 27 28 28
33 33 35 36 39 49 56 52 48 53 55 48 44 39 37 36 32 32 31 31 29 25 26 27 25 23 20 18 21 20 20 18 17 18 19 22 23 24 27 28 30 31 31
34 34 36 37 38 41 47 61 58 55 55 52 45 45 42 41 35 34 31 29 28 25 26 26 24 26 23 22 27 23 22 19 18 19 22 26 27 29 30 31 32 33 33
32 32 30 36 36 39 41 42 58 62 58 56 51 50 47 44 37 33 30 29 26 27 27 27 28 29 25 24 23 23 21 20 20 21 24 27 30 33 33 34 36 36 36
23 23 27 34 39 39 38 40 43 51 55 61 58 56 52 47 41 35 32 30 28 29 28 29 30 30 26 23 23 24 22 22 22 24 27 30 33 36 38 37 36 37 38
19 19 19 24 30 36 45 45 41 43 47 52 57 60 55 50 45 38 34 31 30 30 31 31 31 30 28 26 27 24 23 23 25 27 30 33 36 39 42 44 42 41 38
20 23 23 28 29 29 35 41 48 42 45 50 52 56 58 52 46 40 34 32 30 31 31 33 30 28 28 28 26 24 24 25 27 30 33 36 39 41 44 46 45 46 42
30 34 38 39 37 37 33 32 46 50 47 50 47 44 54 52 47 41 36 33 30 28 31 33 29 27 27 25 26 25 25 28 30 33 37 39 42 43 46 47 48 48 47
24 31 38 40 34 31 35 32 35 51 52 49 40 45 48 44 42 38 36 33 29 30 31 28 30 29 26 28 27 26 27 30 33 37 40 41 43 45 46 46 46 48 52
25 30 33 34 30 26 29 31 31 41 46 46 44 47 41 35 36 36 33 29 29 31 30 26 26 27 30 28 27 27 30 33 36 40 42 44 45 46 46 46 45 46 50
25 31 39 32 25 22 26 29 27 30 39 42 47 45 37 37 36 33 31 29 30 28 30 27 27 27 29 27 27 30 32 36 39 42 44 45 46 46 45 45 46 47 50
30 36 34 28 26 25 23 29 27 32 37 43 42 34 34 34 33 31 28 27 28 26 23 28 27 28 27 28 29 32 35 38 41 44 45 45 46 45 46 47 48 49 51
23 29 33 26 23 23 23 27 29 35 39 38 33 32 32 32 31 29 27 27 27 22 31 24 29 27 28 28 31 34 37 40 44 44 44 45 45 45 46 48 50 51 54
29 33 35 30 22 20 20 30 33 34 30 31 33 31 31 31 29 27 21 23 23 27 25 24 25 27 27 30 34 36 40 43 42 42 43 43 44 46 48 50 51 54 55
32 32 30 25 26 18 27 30 30 25 27 30 31 30 29 27 26 24 25 24 24 27 25 26 27 26 29 33 35 40 41 40 41 41 42 43 45 47 50 52 54 55 55
29 28 26 26 26 21 30 27 22 25 27 30 29 27 28 27 23 22 24 28 25 23 23 23 25 29 31 35 39 37 38 39 40 40 41 43 45 47 50 51 52 51 50
23 28 27 23 18 22 21 19 23 26 29 28 27 27 24 22 24 25 24 18 19 23 24 26 27 30 34 34 35 36 37 37 39 41 43 45 46 49 50 50 50 47 44
6 12 14 15 20 21 21 24 26 27 28 28 25 24 23 24 27 20 20 20 20 22 22 26 30 31 30 31 34 35 36 38 40 42 44 47 49 49 49 50 49 46 42
5 10 14 21 21 21 25 26 27 27 27 23 26 29 32 24 18 18 17 17 17 21 25 26 26 27 30 30 33 35 37 39 41 43 46 47 48 48 47 47 46 42 35
4 9 16 17 19 27 31 30 28 31 27 30 29 27 18 13 9 10 12 16 20 21 22 23 25 27 30 33 34 36 39 42 44 44 45 44 45 45 43 42 41 36 32
11 11 12 16 24 28 29 31 31 27 24 19 12 9 7 5 7 13 14 15 17 18 21 23 26 29 31 33 35 38 40 43 46 45 44 43 43 41 38 35 32 31 31
16 12 15 20 20 18 17 16 15 14 12 11 7 3 3 7 7 9 12 15 18 20 22 25 27 30 33 36 38 40 43 45 47 46 45 42 39 37 32 29 29 28 29
12 14 13 16 18 17 17 12 12 10 7 5 3 3 2 6 8 11 14 16 19 22 24 26 28 31 34 36 39 42 43 44 45 43 41 38 35 30 25 26 27 28 29
9 9 8 8 10 12 12 10 8 8 5 2 2 3 6 8 11 14 16 18 21 23 25 27 30 32 35 39 42 43 43 43 41 39 35 34 29 25 25 24 26 27 28
8 9 10 10 9 8 7 5 4 1 1 1 3 6 8 11 13 15 17 19 22 24 27 30 33 36 39 41 43 44 43 41 40 37 34 29 23 22 22 23 25 26 27
6 6 6 7 6 5 4 2 1 1 2 4 6 8 10 12 14 16 19 22 24 27 30 33 36 39 42 44 43 40 38 38 37 34 29 23 22 22 22 23 22 25 27

GFSMW_700_spd_051.txt.gz
Wind_Speed
25 30 32 35 38 42 47 45 46 44 44 46 44 38 36 34 30 33 30 28 25 21 24 24 23 21 21 22 19 18 18 21 21 18 17 17 16 17 19 21 23 24 25
28 29 31 33 35 35 41 49 47 44 45 48 48 43 39 37 34 35 31 29 25 22 22 26 23 22 22 23 21 20 23 23 24 20 20 20 18 20 21 23 26 27 28
26 30 33 34 37 38 38 44 48 45 42 44 48 49 45 41 39 38 33 30 25 24 22 26 23 23 23 24 23 23 24 24 24 25 23 21 22 24 25 26 28 30 32
24 27 29 31 38 42 41 43 48 52 48 45 47 53 52 47 44 41 36 32 29 26 24 25 24 25 25 27 26 25 23 24 23 24 23 22 24 26 28 29 32 33 35
15 16 18 21 24 31 42 43 44 55 56 54 50 51 54 48 44 41 39 36 31 29 26 27 27 28 27 28 27 26 25 25 25 25 25 25 27 29 31 32 34 36 38
16 17 20 21 20 22 30 38 40 42 48 61 59 57 60 55 48 45 42 40 36 33 29 29 30 32 30 28 27 32 28 28 28 26 26 28 30 33 36 38 39 40 38
23 25 27 27 27 27 27 31 42 43 43 44 56 61 60 60 55 49 43 39 35 34 31 31 31 33 32 30 28 26 30 28 29 28 28 30 33 36 40 42 45 46 42
21 23 30 34 35 34 36 35 32 39 46 44 47 48 50 51 46 45 42 41 38 36 34 32 32 32 33 28 31 28 29 28 29 29 31 33 36 39 42 46 48 48 47
25 31 37 34 33 35 38 38 37 35 39 49 46 47 47 45 40 39 42 40 39 38 36 34 32 31 28 27 27 32 29 29 30 31 33 36 39 41 45 47 48 49 52
21 28 35 38 39 35 32 33 28 27 30 42 46 49 46 41 35 35 37 37 39 39 36 34 30 28 30 30 27 31 33 28 32 33 35 39 41 45 47 47 46 47 50
26 27 32 35 39 35 35 30 25 22 28 33 44 45 43 38 32 31 34 38 35 34 34 30 25 31 31 30 35 30 25 32 33 35 38 41 44 46 46 46 46 46 48
45 39 33 36 40 40 33 28 18 22 28 29 35 41 38 36 32 31 32 31 32 33 29 27 27 27 31 28 30 30 26 31 33 38 40 44 47 45 45 46 46 47 49
26 26 32 33 38 28 23 24 26 25 26 29 30 33 36 32 32 31 31 30 30 27 29 31 28 27 35 33 28 24 29 31 37 40 44 45 44 44 45 46 47 49 50
30 35 25 30 36 26 21 23 24 25 25 26 28 27 27 27 28 28 29 28 28 28 31 32 26 37 34 22 22 27 31 37 40 44 42 43 43 45 46 47 49 51 53
33 27 31 30 32 29 20 22 25 23 23 19 25 28 25 27 27 27 27 25 30 26 27 29 36 27 19 18 25 32 36 39 42 40 41 42 43 45 47 49 51 53 53
22 17 18 19 22 19 19 18 19 22 22 26 26 25 27 26 26 26 27 29 29 25 30 27 20 19 19 27 34 34 39 37 37 38 40 41 43 45 46 49 52 51 49
15 12 20 21 22 22 13 13 20 24 26 23 27 28 28 29 30 28 30 25 28 31 19 21 20 22 28 30 33 35 33 35 36 38 39 41 43 46 49 50 49 47 43
8 6 5 9 15 13 14 19 22 22 22 26 28 30 32 32 28 27 28 28 20 19 17 14 22 23 28 31 30 31 33 34 36 38 41 43 46 48 49 49 48 45 41
2 1 5 8 10 13 15 19 22 22 28 31 29 33 32 27 31 29 27 19 11 10 14 18 22 25 25 26 29 30 32 35 37 39 42 46 48 47 47 47 45 42 37
4 4 1 5 9 14 16 16 20 24 29 32 30 28 23 22 23 19 4 6 8 12 16 19 21 23 25 27 28 31 33 36 38 41 43 43 45 45 44 43 42 38 31
8 8 7 5 8 11 15 11 15 10 17 22 19 16 14 10 7 5 3 6 9 13 16 19 21 23 25 27 30 33 37 40 42 43 42 42 43 42 39 38 35 31 30
19 5 3 6 6 7 9 14 14 15 18 18 17 11 9 5 3 3 4 8 11 13 16 19 22 25 28 30 33 36 40 43 44 43 42 42 41 38 35 31 28 28 29
20 20 22 23 24 25 23 22 19 17 16 12 11 9 7 4 1 4 7 10 12 15 18 21 24 27 30 32 35 38 41 42 42 41 41 40 37 33 28 25 26 27 28
15 15 15 17 19 21 21 18 16 16 15 11 9 6 3 1 3 5 8 12 15 17 20 24 27 29 32 35 38 39 39 39 38 38 37 35 32 27 24 24 25 27 28
12 17 18 19 19 19 18 16 11 10 8 8 7 4 3 5 8 11 13 16 18 21 24 27 29 31 35 38 39 39 39 40 40 38 34 30 23 20 21 22 23 25 27
6 9 13 13 14 12 12 9 8 8 9 8 6 7 8 10 12 14 16 19 21 24 27 29 32 37 39 38 38 38 38 38 37 34 30 24 20 20 20 20 20 24 27

GFSMW_700_spd_054.txt.gz
Wind_Speed
25 36 45 49 52 51 51 48 45 45 45 42 41 40 37 34 33 31 30 27 23 23 22 20 23 21 18 18 18 18 19 18 18 20 21 20 21 20 19 19 20 21 22
27 28 32 37 43 45 48 51 53 50 49 47 43 46 41 39 37 34 34 31 26 26 23 21 22 22 20 20 20 20 20 19 21 23 25 24 23 24 25 23 23 23 25
26 27 30 32 35 37 37 39 45 52 50 48 43 45 44 43 41 38 36 36 29 27 25 22 22 23 23 22 23 22 21 21 23 25 25 26 25 25 25 25 26 27 29
21 23 27 34 38 38 39 39 40 44 54 53 47 48 48 47 45 40 38 38 35 31 26 24 22 24 25 26 24 26 25 24 23 25 26 26 27 27 28 27 28 31 33
16 17 18 23 28 35 40 43 43 44 45 52 54 51 48 47 46 43 40 40 39 35 31 26 23 25 26 29 28 27 27 27 24 26 27 28 30 29 29 29 31 33 35
14 13 13 14 16 23 31 38 42 47 45 50 54 54 52 47 46 47 44 42 39 38 33 29 27 26 29 31 30 30 30 29 29 27 29 31 32 32 32 33 34 36 36
15 18 21 23 25 24 23 21 27 37 42 50 55 59 57 54 51 46 46 43 43 39 36 32 30 28 30 32 32 33 32 29 30 28 33 31 34 34 35 37 39 41 41
14 18 22 23 24 25 27 29 28 28 29 37 47 53 56 52 50 47 47 45 43 45 42 34 30 29 31 35 34 35 33 29 35 29 32 32 34 36 38 40 43 47 48
23 25 27 30 32 33 34 34 32 36 36 36 39 46 49 47 43 43 50 46 45 43 41 36 33 32 35 38 35 35 34 34 30 37 34 31 35 37 40 43 47 50 54
27 31 34 37 37 36 36 38 39 35 33 31 34 43 44 46 43 40 41 38 38 39 39 37 35 37 39 37 36 33 34 31 33 38 36 32 36 38 42 47 49 52 52
35 38 39 43 44 41 42 38 39 37 33 30 30 34 39 43 43 40 37 35 36 36 37 37 37 38 33 30 29 41 34 31 40 40 32 34 35 40 46 49 51 49 50
25 27 28 27 31 36 33 39 41 39 28 25 28 25 32 36 37 36 34 33 32 32 35 37 38 32 29 33 32 37 37 34 32 27 28 33 38 44 47 49 48 48 48
29 30 28 24 28 25 30 33 30 23 22 21 23 23 28 31 33 34 33 32 30 32 35 35 34 30 32 32 32 36 37 40 34 31 31 38 42 45 46 46 47 48 49
34 33 27 27 33 30 29 28 24 22 21 24 23 21 24 27 33 34 34 31 29 30 32 33 29 37 35 32 36 38 35 29 29 32 35 40 43 42 44 46 47 49 50
24 24 25 22 20 21 26 25 25 19 17 18 19 21 22 28 25 31 29 29 29 29 31 35 34 29 36 31 33 29 30 29 29 34 38 39 40 43 44 47 48 50 52
22 21 19 8 7 8 13 18 16 16 16 18 19 19 23 22 24 24 26 27 31 30 40 35 27 26 26 26 26 25 28 30 34 34 36 39 41 43 45 47 49 52 53
16 13 9 9 8 9 14 16 11 14 19 20 19 26 25 26 22 24 27 29 36 31 30 28 23 20 21 21 22 26 31 31 32 35 37 39 42 44 46 49 51 51 50
9 6 8 6 5 7 9 8 13 16 14 11 22 15 23 19 26 24 28 37 26 31 17 13 14 16 19 21 23 27 29 31 34 36 39 41 42 45 49 51 52 51 47
7 4 4 6 6 4 6 7 7 9 6 7 9 13 25 20 22 29 31 28 22 13 10 9 12 15 19 22 22 26 30 32 34 37 39 42 46 48 48 50 50 47 42
8 4 2 4 4 5 5 5 8 12 11 9 17 20 19 14 15 20 16 10 6 6 8 10 13 18 19 21 24 27 30 31 33 36 41 44 46 46 46 47 46 43 39
5 5 5 3 3 5 4 3 3 7 8 11 8 7 12 16 14 10 6 4 5 6 8 11 14 19 21 24 27 29 32 35 37 40 42 42 44 44 44 42 40 37 32
13 3 6 6 6 5 6 8 11 11 16 19 20 19 17 12 9 6 2 3 6 8 11 14 17 20 22 25 29 32 36 40 42 42 42 43 43 42 39 36 31 28 28
20 23 20 17 19 15 20 20 21 22 20 19 16 14 11 8 5 3 1 2 5 9 12 16 19 23 26 29 32 36 40 41 42 42 42 43 41 37 33 27 26 26 26
19 19 19 19 21 22 22 20 20 20 18 15 12 10 8 5 4 3 5 8 11 14 17 20 23 26 29 33 37 39 39 39 39 39 39 37 34 31 25 23 24 25 27
17 19 18 18 18 20 19 17 16 15 13 11 10 8 6 4 5 7 9 11 13 16 19 23 27 30 35 38 40 39 39 39 39 37 34 30 26 20 20 21 22 24 25
10 13 14 14 15 16 14 13 14 12 11 10 7 6 5 6 6 8 10 14 17 21 24 27 31 35 39 40 39 39 38 39 37 33 30 26 19 17 17 18 19 22 23

GFSMW_700_spd_057.txt.gz
Wind_Speed
33 38 38 46 55 55 53 47 44 43 42 42 41 40 37 35 33 31 28 28 27 25 23 22 21 21 22 22 22 20 19 18 18 17 18 20 21 21 21 22 24 25 28
32 31 32 35 38 48 54 55 49 47 47 47 46 45 42 40 36 34 32 32 32 29 27 24 23 24 23 23 23 22 20 20 20 19 21 22 24 24 24 24 24 24 24
30 29 31 32 32 38 46 51 53 55 51 49 47 47 49 45 45 43 39 35 34 32 29 26 25 25 25 24 24 25 23 22 22 23 23 24 26 25 26 26 26 27 27
19 20 28 33 35 38 39 42 45 47 54 59 62 57 53 53 45 40 35 35 34 35 33 31 28 27 25 23 26 26 28 27 25 26 24 26 26 27 29 29 30 30 30
15 17 20 23 29 37 41 42 43 43 42 44 48 53 56 52 50 44 38 38 36 37 35 34 32 30 26 22 24 27 30 31 29 29 28 29 28 28 32 33 33 33 33
11 11 12 12 12 14 20 31 41 43 45 44 45 46 51 51 48 48 44 42 41 39 38 35 35 34 30 25 25 28 32 33 34 32 30 31 31 29 32 35 35 35 35
14 15 17 18 18 18 18 17 19 25 37 45 49 47 48 50 50 45 46 43 43 43 38 37 35 34 34 29 28 29 33 35 36 36 31 34 32 35 35 33 37 39 37
15 17 18 19 20 20 21 21 21 22 23 25 28 34 46 52 49 49 44 44 44 40 38 41 38 36 36 34 31 32 34 36 37 36 35 37 37 34 37 36 38 40 42
20 22 24 26 27 28 28 30 32 31 30 29 31 33 35 39 45 42 48 49 44 43 45 42 40 40 40 38 35 36 38 38 36 41 42 38 37 38 39 38 38 38 46
24 26 29 31 34 36 37 39 39 40 37 37 40 41 41 38 41 40 43 42 42 44 44 43 41 40 38 39 39 39 39 40 36 42 42 44 39 41 46 44 42 41 47
31 32 35 38 38 42 46 44 44 41 41 39 43 41 40 35 36 41 39 39 39 38 38 37 37 36 37 39 41 40 42 36 39 43 45 37 42 43 38 38 41 46 50
22 23 26 29 32 30 32 30 30 34 36 37 39 35 33 32 33 32 36 38 37 37 35 35 36 36 38 40 39 43 40 39 42 49 42 41 34 43 40 40 44 47 48
29 30 30 31 31 28 26 25 27 28 31 28 26 25 26 27 31 29 31 36 34 34 34 35 36 34 34 37 42 37 43 37 40 36 37 38 39 36 39 42 44 44 46
30 20 23 27 28 27 25 30 34 32 25 23 23 25 23 24 23 25 28 31 31 32 32 33 27 33 35 39 37 40 41 40 33 30 35 34 36 39 40 40 42 44 46
23 21 24 23 18 12 13 15 20 23 20 22 24 24 21 19 21 25 27 28 30 30 30 27 31 32 33 38 39 43 40 28 26 25 31 34 37 36 38 40 42 45 48
18 18 18 9 6 4 4 6 11 20 20 18 20 19 16 16 19 19 23 30 31 30 31 29 27 28 33 40 35 34 23 25 27 28 32 31 34 36 38 41 45 48 51
15 12 11 7 6 7 8 10 10 12 13 14 13 14 13 16 14 18 21 20 22 29 31 27 33 32 30 21 24 19 23 26 27 29 32 33 36 38 41 43 47 49 49
13 9 7 6 6 6 5 5 4 6 7 10 12 12 13 17 20 16 20 20 26 27 26 29 23 20 17 14 18 21 23 26 29 31 33 35 37 40 44 47 49 49 46
14 7 4 3 3 4 5 5 2 4 7 3 6 13 9 7 19 10 13 25 15 13 14 15 13 9 11 16 18 21 22 26 29 33 36 38 40 43 45 47 48 47 45
8 6 4 3 5 6 7 6 5 5 2 2 5 6 6 6 4 10 9 11 11 9 12 7 5 8 13 15 21 22 25 28 31 34 37 40 42 43 45 47 48 46 42
5 3 4 6 9 8 6 2 4 4 7 7 6 8 8 7 7 11 12 10 7 3 3 7 9 13 15 17 21 25 27 30 33 36 38 40 42 43 45 45 43 40 36
9 4 3 6 5 9 8 12 12 14 17 16 18 20 20 17 13 10 8 5 2 1 4 7 11 14 17 21 24 28 32 36 38 39 40 42 42 43 42 39 35 30 26
16 17 14 12 8 12 19 19 22 24 24 22 19 16 14 12 10 6 4 2 2 5 8 11 15 18 21 25 29 33 37 40 42 41 42 43 41 38 35 31 25 23 23
14 16 17 18 18 19 19 17 18 20 19 17 14 12 11 9 7 4 2 4 7 9 12 15 19 22 26 31 35 39 42 43 43 40 39 38 35 31 26 21 21 22 24
11 13 13 13 15 16 17 15 15 15 14 13 11 9 8 6 5 6 8 10 12 14 16 19 24 29 33 37 40 44 44 42 39 37 34 30 27 21 18 19 20 22 23
8 11 9 10 10 12 12 12 10 10 11 10 8 6 5 6 8 9 11 12 13 17 21 26 30 33 37 42 43 43 41 39 35 30 26 22 17 13 14 16 18 20 21

GFSMW_700_spd_060.txt.gz
Wind_Speed
34 41 46 49 51 50 46 44 45 44 42 40 38 36 33 32 31 30 29 27 27 27 27 24 24 23 22 22 23 23 23 22 22 21 19 18 18 19 20 21 22 22 24
31 34 38 42 49 50 52 55 50 47 46 44 44 43 39 38 35 33 31 31 31 30 29 27 26 25 25 26 26 23 24 24 23 22 22 21 22 21 22 23 24 25 26
31 30 34 35 38 45 42 42 45 55 55 52 50 48 46 46 45 40 38 35 34 34 31 31 29 29 27 28 27 24 25 26 24 23 24 25 25 24 23 24 25 26 27
18 22 28 31 35 38 38 37 36 38 47 54 57 55 53 52 50 47 41 39 39 39 37 35 33 31 31 30 29 27 26 28 25 25 29 29 28 26 29 26 28 28 30
12 14 15 16 19 30 35 36 36 36 38 45 53 56 60 59 56 53 50 46 43 38 35 33 33 32 34 32 31 29 26 24 27 30 28 33 32 30 32 30 30 31 32
8 10 11 13 15 17 21 27 31 36 39 40 42 44 46 48 50 52 54 53 47 46 43 39 36 34 33 34 33 32 29 27 31 32 28 36 37 33 34 33 35 35 35
10 11 11 12 15 16 16 15 16 19 24 30 36 42 44 43 41 42 41 47 46 48 44 41 39 36 33 33 34 35 34 29 30 31 37 35 38 39 38 39 35 39 36
13 14 15 16 16 17 17 19 20 19 21 21 22 26 31 36 42 45 42 39 40 44 45 43 39 38 37 36 36 36 36 33 33 37 40 35 40 42 36 42 37 43 39
17 19 22 24 25 25 25 26 26 26 26 27 28 30 30 31 30 29 33 39 43 41 40 41 41 40 39 39 37 36 37 36 39 38 42 38 43 41 43 47 43 47 44
21 23 27 30 33 33 33 33 35 36 35 36 37 37 36 35 35 35 34 36 36 40 41 44 43 41 42 40 39 39 40 40 42 41 41 39 39 44 50 47 47 44 47
30 32 32 33 37 39 40 41 42 44 45 45 42 42 42 40 37 34 35 36 37 37 38 38 40 40 41 41 40 41 40 39 41 40 42 42 39 43 40 43 46 41 43
22 24 27 29 32 34 36 38 39 38 38 38 42 43 46 44 41 39 39 36 34 37 37 38 37 36 35 38 39 40 38 38 36 40 45 39 42 42 38 42 39 38 39
23 26 24 20 20 24 27 28 30 32 33 33 34 35 35 36 38 36 33 36 34 35 37 37 34 34 34 36 36 38 35 44 36 39 49 40 42 36 37 37 36 39 41
26 27 21 21 23 25 22 23 26 25 26 30 34 31 28 28 27 29 32 31 30 32 34 33 32 32 32 36 37 38 38 41 39 42 34 40 36 31 35 34 35 39 43
27 26 18 20 21 18 17 14 12 16 20 19 19 23 24 22 25 26 25 23 22 26 28 30 29 30 31 32 30 38 28 37 34 36 31 29 30 31 32 34 38 39 42
26 18 14 15 13 13 9 9 12 11 15 17 18 17 16 18 19 19 18 19 28 28 25 22 26 28 25 39 30 34 32 34 29 25 27 28 28 29 32 34 38 40 43
19 17 12 11 9 8 9 11 11 9 10 13 13 13 14 14 16 17 18 19 19 24 18 19 24 26 31 24 29 22 22 20 21 25 27 29 29 32 33 36 41 43 44
18 14 9 10 8 6 5 3 2 0 2 8 9 10 9 12 12 14 16 9 10 13 17 21 23 21 17 15 17 15 15 19 20 25 28 30 31 33 37 41 43 42 42
20 11 6 7 5 4 5 4 3 4 6 5 3 5 3 7 9 5 10 12 14 8 10 17 11 6 7 11 11 13 17 21 23 26 29 31 34 38 42 44 44 43 41
17 5 2 2 1 1 2 5 5 4 1 4 4 6 3 4 4 5 4 7 8 4 10 8 3 2 6 10 12 16 18 21 26 29 32 37 40 42 42 42 41 40 36
5 2 1 2 2 3 3 1 3 6 7 8 6 7 7 8 7 12 14 11 10 9 5 6 3 5 9 12 14 17 21 24 29 33 37 40 41 40 39 39 37 34 30
6 0 5 3 4 8 9 11 11 11 13 17 18 18 19 18 15 13 11 8 5 5 4 5 5 7 10 14 18 23 27 31 34 37 39 40 39 37 36 33 31 27 22
9 9 10 6 9 13 18 19 21 22 22 21 19 16 15 13 11 9 8 7 6 5 3 6 9 13 16 20 25 29 34 38 40 40 40 37 35 32 29 26 22 19 19
10 11 12 13 13 14 17 15 16 18 18 16 14 12 11 10 9 8 8 6 6 7 9 11 14 18 22 27 32 37 39 39 39 36 34 30 26 22 20 17 16 17 19
5 7 8 10 9 10 13 13 13 15 14 12 11 10 9 8 6 5 6 6 7 10 13 17 21 25 29 33 36 38 37 35 31 25 21 18 17 16 14 15 17 18 19
1 4 5 6 6 8 9 10 10 10 11 9 8 7 6 5 4 5 6 9 12 15 18 21 25 29 32 35 37 36 32 27 21 16 12 12 10 10 11 13 16 19 20

GFSMW_700_spd_063.txt.gz
Wind_Speed
34 40 46 49 47 47 46 45 45 42 40 39 37 33 31 29 29 29 29 28 28 27 27 25 26 24 24 24 25 25 25 24 24 24 23 21 21 20 20 20 20 21 22
33 36 41 47 52 52 52 51 49 45 45 44 42 41 35 35 30 31 31 31 31 31 31 31 30 29 27 27 27 26 26 26 26 25 25 24 22 21 21 22 23 23 23
28 32 35 38 42 46 47 50 50 50 51 53 50 47 43 43 39 36 34 32 32 31 31 32 32 32 32 31 29 29 29 27 27 27 28 27 25 22 23 24 25 25 25
24 26 28 32 35 37 39 40 40 42 44 44 49 54 53 47 44 43 41 39 37 36 35 35 35 35 34 34 33 31 31 30 29 31 30 29 31 28 29 27 27 29 30
11 13 14 17 21 28 34 36 35 34 37 38 41 42 49 53 52 51 48 46 45 43 39 38 35 36 40 38 36 34 34 33 32 32 30 31 32 34 32 32 33 28 34
7 8 10 12 14 16 19 24 29 34 37 38 36 34 34 38 43 48 52 53 54 53 52 51 46 43 38 37 36 36 36 35 35 32 29 32 34 34 31 37 35 39 34
7 7 9 11 12 13 13 15 17 20 27 34 38 38 38 38 38 38 39 39 39 39 41 44 44 43 43 41 39 36 36 37 37 36 34 32 34 35 37 38 36 43 41
10 12 15 16 15 15 16 17 17 18 20 22 27 32 35 36 38 38 40 41 41 38 37 38 42 44 44 43 41 38 35 35 37 37 37 38 38 38 39 41 47 37 45
14 15 16 18 20 21 23 24 24 25 26 25 25 28 30 31 31 31 32 33 35 39 44 42 39 40 39 43 43 40 38 38 38 38 43 40 37 41 43 44 46 44 43
18 21 24 27 29 31 31 32 32 31 32 33 34 34 35 35 36 36 34 33 32 31 31 34 40 45 42 41 40 43 41 39 39 40 40 43 42 46 44 49 47 49 44
21 22 25 28 28 27 28 29 32 35 37 39 39 39 43 43 41 40 40 38 38 35 33 32 37 41 44 43 41 41 41 40 40 42 44 44 46 48 47 50 47 42 41
17 19 22 24 25 28 28 27 28 29 31 34 36 37 37 39 41 44 44 44 40 37 35 35 40 41 42 41 40 39 39 41 43 44 44 44 45 49 52 46 39 40 39
17 21 22 21 20 20 21 24 25 24 24 27 29 31 33 33 34 35 35 35 37 40 37 38 41 41 42 39 36 35 36 39 42 42 41 43 49 50 39 39 33 35 35
20 21 20 18 15 18 19 19 18 17 19 20 20 23 25 25 27 25 26 25 27 31 34 36 37 37 38 36 34 34 34 35 36 38 42 41 40 35 30 30 34 34 32
21 23 18 15 15 17 18 16 14 16 18 20 20 16 15 17 21 21 20 21 26 29 34 34 32 31 33 32 32 31 33 34 31 38 34 33 28 28 28 32 33 32 35
20 20 15 13 13 14 12 12 14 16 15 14 16 15 16 16 14 14 15 23 25 23 22 21 24 25 26 26 29 27 28 32 26 24 21 20 22 24 27 31 32 33 36
18 20 16 12 11 12 10 10 12 11 9 11 13 11 12 12 9 12 14 16 17 15 24 22 17 21 22 29 27 25 23 17 13 14 18 20 23 26 30 33 35 36 40
18 18 17 11 11 8 8 8 8 7 6 11 8 8 12 8 10 10 17 18 14 11 13 15 17 13 15 11 10 10 8 9 12 17 20 24 27 30 32 35 37 38 39
17 19 11 7 9 7 8 8 6 6 8 4 1 1 1 4 4 6 8 6 5 5 3 6 3 3 3 1 3 5 8 12 16 19 23 25 29 34 37 39 38 37 37
17 14 7 5 5 6 5 3 2 3 1 3 2 5 1 5 3 2 5 5 9 11 12 10 9 4 3 4 5 8 11 15 19 23 28 32 36 38 39 39 38 33 30
13 6 8 2 1 0 2 4 4 3 6 6 6 6 5 8 13 15 15 15 12 12 10 8 7 3 3 5 7 10 15 19 24 28 33 36 38 37 33 30 26 22 18
9 5 3 2 2 2 3 5 6 4 5 8 8 11 15 15 15 14 13 11 8 7 6 5 2 3 6 9 13 17 21 26 30 33 35 34 32 28 24 20 17 14 12
8 3 6 6 8 10 13 16 15 16 16 17 17 16 15 13 11 10 8 7 6 5 4 4 6 10 13 17 20 25 28 31 31 31 29 25 19 14 11 10 9 10 12
6 8 10 12 12 13 15 16 15 16 16 15 14 13 12 10 8 7 6 5 5 5 6 8 12 15 19 22 25 28 30 29 27 24 16 10 7 7 7 8 10 12 13
2 5 7 9 9 9 11 11 10 12 13 12 11 10 8 7 6 5 5 5 6 8 10 13 17 20 23 26 29 30 27 23 18 10 5 5 5 6 8 10 12 13 15
2 2 4 6 7 7 8 8 8 8 10 9 7 6 5 5 4 3 3 5 7 10 14 17 20 22 26 29 30 28 22 16 8 4 4 5 6 7 9 12 14 14 16

GFSMW_700_spd_069.txt.gz
Wind_Speed
33 38 40 42 43 42 42 41 41 40 40 40 38 38 38 37 38 35 33 32 35 37 36 36 36 37 37 35 33 33 32 32 32 33 33 32 30 29 28 27 27 26 25
28 35 40 42 43 43 44 45 45 44 45 44 46 43 42 42 42 40 37 36 35 37 38 37 36 36 36 37 34 33 32 33 33 34 34 36 35 32 30 30 30 29 28
32 32 34 39 40 42 43 45 46 47 47 47 47 49 46 48 45 43 40 37 37 37 37 37 35 35 36 36 35 34 33 34 35 35 38 39 39 34 33 31 31 33 32
30 32 33 35 37 40 42 43 44 45 46 47 48 49 50 48 48 47 46 44 42 41 40 37 37 37 37 37 35 37 36 37 39 38 40 41 38 36 37 35 34 35 36
25 26 27 30 30 31 33 34 35 37 38 40 43 46 49 49 45 44 44 44 45 44 43 41 41 42 41 41 40 39 40 39 40 40 41 41 41 40 39 41 37 38 39
18 18 18 20 20 21 22 23 26 31 35 36 37 38 38 39 39 39 37 38 40 42 45 46 45 46 47 46 45 45 44 42 43 44 43 44 45 43 41 41 43 41 39
15 14 14 14 15 15 16 17 18 19 20 23 26 30 35 38 38 37 35 36 37 38 39 42 50 51 52 53 52 50 50 47 47 47 46 46 45 46 44 45 45 46 43
14 14 15 15 15 16 16 16 17 18 19 20 20 21 23 26 31 35 38 40 39 39 39 36 38 42 46 49 51 51 51 50 49 50 52 51 47 46 49 48 49 55 47
13 14 15 16 18 19 20 21 21 22 23 24 25 26 27 27 28 30 32 34 36 38 39 38 40 42 44 46 46 46 47 48 48 49 52 51 49 47 49 53 57 54 51
12 13 15 17 20 22 24 25 26 27 29 31 31 32 32 32 33 32 33 33 34 35 34 35 36 36 38 41 45 47 47 47 46 45 46 47 49 49 51 57 40 48 51
9 11 14 17 20 22 24 27 29 30 31 30 30 31 33 35 36 37 38 38 39 39 40 40 40 40 40 40 42 43 46 47 48 47 45 44 44 47 42 48 45 46 43
11 15 17 18 19 21 22 23 25 24 23 24 24 23 24 27 30 33 37 39 40 42 42 44 45 45 45 44 44 44 43 42 43 43 44 43 43 43 44 45 37 37 36
17 20 22 22 20 20 19 17 16 17 17 19 19 20 20 20 23 25 27 29 32 35 37 38 38 39 41 44 47 47 45 45 42 39 36 38 39 37 37 41 36 43 45
19 22 25 23 19 18 15 14 14 14 15 15 15 15 16 17 17 17 19 21 21 23 24 26 28 29 29 31 35 39 41 41 43 44 34 32 32 33 35 36 42 43 43
18 19 20 18 18 15 14 13 12 12 13 14 13 13 13 11 15 18 21 20 20 23 25 26 28 28 29 30 29 28 31 32 34 31 34 28 27 35 36 38 41 39 31
16 17 19 19 17 15 13 11 11 12 13 12 11 11 9 12 16 16 19 18 18 20 26 24 24 21 20 18 23 24 28 30 26 30 30 21 31 31 34 29 26 28 32
19 20 19 18 19 15 14 12 12 11 12 12 12 11 10 13 13 13 13 16 16 17 14 19 18 17 17 18 19 18 20 26 33 25 15 24 21 20 21 24 28 32 34
19 20 19 19 20 17 14 13 12 13 12 12 13 10 6 7 10 10 10 11 10 9 10 9 10 8 5 6 7 15 12 9 8 9 11 7 12 22 25 28 30 34 36
19 21 17 19 19 10 12 13 11 11 9 10 5 2 2 4 5 6 9 7 4 1 4 7 8 8 8 7 6 5 3 2 3 8 14 20 23 25 29 33 35 38 36
17 14 16 14 9 9 10 8 7 5 4 1 2 2 3 1 1 3 7 8 7 8 8 9 9 9 8 6 5 7 9 11 14 18 22 26 30 32 34 35 33 27 18
13 13 11 9 8 7 4 6 6 5 1 1 4 6 5 6 6 8 8 9 9 8 7 6 6 6 7 9 11 14 17 19 22 24 27 29 30 30 28 23 15 9 7
12 12 10 6 7 4 5 4 5 8 4 4 8 10 9 8 6 6 6 6 6 5 5 6 8 10 12 13 16 18 21 23 25 26 26 26 25 23 17 9 6 6 7
8 6 0 3 4 4 3 3 8 8 8 12 12 10 8 6 5 3 3 3 3 4 6 8 10 12 14 15 17 21 23 25 26 25 24 23 20 13 7 6 7 8 9
5 4 2 4 5 6 6 8 10 11 12 12 10 7 6 4 2 2 1 1 3 5 7 9 11 14 16 18 21 24 27 28 28 26 24 21 15 9 8 8 8 9 9
3 1 1 4 5 6 6 7 9 9 8 8 8 7 5 3 2 2 2 3 4 6 9 12 15 17 19 21 24 26 28 29 28 25 21 17 13 11 10 10 10 11 10
4 2 2 4 5 6 7 7 8 8 9 9 8 6 5 4 4 5 4 5 7 9 12 15 17 19 21 22 24 26 28 29 28 25 20 16 14 13 13 13 12 12 13

GFSMW_700_spd_072.txt.gz
Wind_Speed
32 31 31 34 36 39 38 37 37 36 37 35 35 34 34 32 32 32 33 34 34 32 30 30 32 34 37 36 35 34 33 31 32 33 35 34 32 30 32 31 30 28 27
21 25 34 37 38 40 40 39 39 39 39 39 40 37 37 36 37 37 37 37 37 37 36 35 33 33 36 38 36 36 35 32 31 32 33 35 35 34 32 34 33 32 30
32 31 35 38 39 39 40 40 41 42 42 41 41 44 43 43 41 42 41 40 40 40 39 38 37 35 36 36 37 35 36 34 32 33 32 34 37 35 34 34 35 35 34
33 35 33 33 34 35 36 37 38 39 41 43 44 46 47 47 45 43 44 44 43 42 43 44 41 40 40 39 38 39 37 39 36 37 36 36 39 38 38 35 35 36 38
33 32 31 32 32 33 34 34 35 36 36 37 38 40 44 45 46 42 39 38 39 41 42 44 45 43 44 43 42 41 42 42 42 40 39 39 40 41 41 41 41 43 41
27 25 25 26 26 26 27 27 28 28 30 31 32 35 36 38 40 41 38 34 35 36 36 35 38 44 48 48 45 44 44 46 44 44 45 44 42 43 43 43 42 42 42
21 19 18 19 19 19 20 20 21 21 22 24 26 28 30 33 36 38 39 37 36 35 35 35 34 36 39 46 50 49 49 48 50 50 50 49 47 46 44 44 45 47 49
18 17 17 17 16 17 17 17 18 19 19 19 20 21 22 23 25 27 30 32 34 35 37 38 37 36 37 37 39 42 46 49 48 49 50 51 50 49 49 48 47 49 50
18 17 17 17 17 17 17 18 19 20 21 22 21 22 22 23 24 24 26 28 29 32 33 33 32 32 33 35 39 42 44 45 45 45 45 46 46 45 45 46 46 47 51
16 15 15 16 17 18 19 20 22 23 24 25 26 27 28 28 29 30 30 31 31 32 33 34 35 35 35 35 37 37 39 42 43 44 44 43 44 43 42 43 43 44 48
15 14 14 14 15 18 21 22 24 25 27 29 29 31 31 31 31 30 31 32 33 33 35 36 38 38 39 40 40 41 42 43 43 43 41 41 41 41 41 41 40 42 43
10 10 11 13 15 17 20 22 24 24 24 26 25 26 27 28 26 27 27 28 30 31 33 35 37 38 39 41 42 43 45 47 47 44 41 39 38 37 37 37 35 36 38
9 12 15 18 19 20 20 20 20 20 19 19 20 21 22 23 24 22 21 21 22 23 26 28 30 30 31 32 32 34 37 39 41 42 42 38 35 34 30 31 35 32 37
13 16 18 20 21 17 17 17 17 15 15 16 18 18 17 17 17 18 17 17 16 17 20 22 25 26 28 28 29 31 30 29 28 29 30 32 37 35 29 33 31 32 33
12 15 17 20 16 14 15 14 14 14 14 15 15 15 15 15 15 14 14 13 13 16 20 23 25 28 28 29 28 31 32 28 27 24 23 25 29 30 34 34 27 26 31
12 15 18 20 18 15 13 14 15 14 13 13 13 12 12 12 13 13 10 9 12 14 17 22 19 21 22 21 23 19 21 18 16 22 23 23 24 27 35 20 19 20 21
14 17 18 22 16 17 14 14 16 14 13 12 12 12 12 12 15 11 6 8 12 14 14 14 11 11 10 9 9 11 11 13 19 18 22 23 21 17 13 10 16 24 27
16 19 18 19 17 18 19 17 16 15 13 12 12 11 11 9 8 5 6 9 12 11 10 8 9 9 10 12 13 12 9 8 8 8 7 7 10 12 16 23 26 27 30
17 17 20 19 17 18 17 12 14 13 11 11 10 7 8 5 3 2 4 7 4 1 3 5 8 10 11 12 11 11 11 12 13 14 15 18 20 23 26 29 30 31 32
15 18 16 15 15 14 11 11 11 9 8 6 6 8 4 4 4 5 5 5 6 6 5 7 8 9 9 10 11 12 14 16 18 20 22 24 26 27 28 28 28 26 23
14 15 15 14 9 9 9 9 8 8 7 4 6 8 8 8 9 9 7 6 6 5 5 6 7 8 9 10 12 14 17 20 22 24 25 25 26 25 24 24 22 18 11
15 15 15 12 11 11 8 7 8 11 9 7 11 10 11 10 8 7 5 3 3 3 4 4 6 8 11 13 15 18 20 22 24 25 26 26 26 25 23 19 13 8 8
11 10 7 4 5 6 6 6 9 13 10 9 13 12 10 8 6 4 3 2 1 2 3 6 9 11 13 15 16 18 21 24 26 27 28 27 25 22 18 13 10 9 10
7 5 3 1 2 3 5 7 11 11 12 14 12 10 8 6 4 3 1 1 2 4 6 8 10 12 14 16 18 20 22 25 27 28 28 26 23 19 15 12 11 12 13
4 3 1 2 4 5 7 10 12 13 12 11 10 8 6 4 3 3 3 4 5 6 8 10 12 14 17 19 21 23 25 26 27 28 27 25 21 18 15 13 14 14 14
6 5 4 5 5 6 7 7 8 9 9 8 7 6 5 5 6 6 5 5 6 8 10 12 15 17 19 21 22 23 25 26 27 28 27 25 22 19 17 16 17 17 17

GFSMW_700_spd_075.txt.gz
Wind_Speed
25 24 26 27 30 31 32 33 36 34 35 32 31 31 31 30 30 28 27 27 27 28 29 29 29 29 29 28 29 30 31 31 32 33 33 32 32 32 31 31 31 31 28
30 31 33 33 32 33 34 37 34 33 34 35 35 34 33 34 34 33 32 32 32 32 33 32 32 31 33 33 31 31 30 31 33 33 33 35 33 31 30 31 32 32 34
32 36 37 36 37 37 36 36 35 37 37 38 39 39 37 37 37 36 36 35 35 36 36 36 37 36 35 35 35 34 34 35 34 35 34 37 37 34 32 32 32 33 34
32 34 35 34 31 33 36 36 36 36 38 39 41 42 41 41 39 38 39 39 40 41 40 39 39 40 41 41 39 38 37 38 37 37 38 38 38 38 39 36 35 36 36
43 40 38 36 33 32 33 34 34 34 35 37 39 40 40 39 39 39 39 39 41 42 41 43 44 45 44 43 41 41 40 43 43 42 42 41 42 42 42 41 40 40 39
38 38 38 36 33 33 34 33 32 32 32 32 33 35 37 36 37 37 37 34 34 33 35 36 36 37 38 37 38 40 43 45 46 47 45 44 43 43 45 45 44 42 46
35 32 30 29 28 28 27 27 26 25 25 26 27 29 31 33 35 36 37 36 34 33 33 34 34 32 32 32 34 35 36 38 42 44 47 48 50 48 47 47 47 47 48
27 24 23 22 22 21 20 21 20 20 20 21 23 23 23 23 24 26 28 30 31 32 31 31 31 31 32 33 35 37 37 37 37 38 40 42 40 41 44 44 44 46 45
21 20 19 18 17 18 19 20 20 20 21 22 23 23 23 23 24 24 25 26 26 26 26 27 28 30 31 31 32 34 35 37 39 40 41 42 43 41 40 41 40 40 42
20 18 18 17 18 19 20 21 21 22 24 24 25 26 26 26 26 27 28 29 29 30 30 30 30 30 32 33 35 35 36 38 39 40 41 41 41 39 38 38 38 41 39
18 17 17 16 17 18 18 20 21 23 25 25 26 28 28 29 30 31 32 32 32 32 31 31 31 32 34 35 36 36 39 40 41 43 45 44 43 40 36 34 35 35 36
16 16 16 15 15 16 17 19 21 24 25 25 27 28 28 29 29 29 28 29 29 29 28 27 28 29 28 29 31 32 35 35 34 36 37 38 40 40 36 33 34 36 33
15 13 13 14 16 18 19 21 22 24 24 24 24 23 23 23 23 23 24 24 23 22 22 22 23 21 21 25 27 28 30 30 31 30 30 28 28 28 28 32 33 33 31
11 11 14 17 19 20 21 21 21 21 20 19 19 18 20 20 20 18 17 17 18 18 19 19 16 16 21 25 28 28 28 29 31 31 29 25 23 22 24 25 27 29 31
14 15 15 16 19 19 18 17 17 17 17 17 16 16 17 16 15 15 15 15 15 16 16 14 13 16 19 21 22 23 23 23 23 22 24 22 23 22 20 22 24 28 33
13 13 14 16 19 19 18 15 14 15 15 15 14 14 14 13 15 15 14 14 13 12 11 11 11 12 12 12 11 11 13 14 12 16 13 15 13 17 20 22 29 19 19
13 15 16 18 23 19 16 15 15 15 16 14 13 14 14 13 14 15 14 11 10 11 10 9 6 7 5 5 6 6 7 9 11 11 12 11 8 8 10 11 13 14 19
16 15 16 19 20 17 18 19 16 16 16 15 15 16 15 14 13 12 11 9 11 10 5 3 3 1 3 7 9 10 10 10 11 12 13 15 15 17 20 22 24 27 29
15 15 18 19 22 20 19 19 15 14 15 16 16 13 13 12 11 10 9 9 7 5 4 5 5 5 6 6 8 8 10 13 15 17 18 19 20 22 23 24 26 27 28
14 15 17 19 18 19 19 16 14 15 16 15 11 9 10 10 9 8 8 8 8 9 7 6 5 4 4 5 7 10 13 15 17 20 21 22 24 24 24 24 23 23 23
15 14 18 18 20 15 14 13 13 12 12 9 9 12 11 11 11 12 11 9 9 8 6 4 2 2 4 6 8 11 13 16 18 20 22 24 25 25 24 24 22 20 16
16 16 17 19 17 13 13 11 11 11 12 10 12 13 14 14 12 11 10 8 7 6 4 1 2 5 7 9 12 14 16 18 20 21 23 24 25 25 24 22 20 16 11
14 14 13 10 8 8 11 10 10 13 15 13 14 15 16 14 12 9 7 6 5 4 2 1 4 7 9 11 12 14 16 18 20 22 23 24 25 24 23 21 17 14 12
11 10 8 5 3 5 8 10 10 13 14 14 17 17 14 12 9 7 6 6 5 3 2 4 6 8 10 12 13 14 16 18 20 22 23 24 25 24 23 20 18 16 16
9 7 6 4 3 4 5 7 9 12 14 18 17 15 12 10 8 7 5 5 5 4 5 6 7 9 11 13 15 17 18 20 21 22 23 24 24 24 22 20 18 18 19
12 9 6 5 5 5 6 7 10 13 15 14 13 12 11 9 8 6 6 6 7 7 7 8 9 11 13 14 16 18 19 20 20 21 22 23 23 23 21 20 19 20 22

GFSMW_700_spd_078.txt.gz
Wind_Speed
32 34 36 34 31 31 32 32 33 33 32 32 31 29 28 28 27 25 24 25 24 24 24 24 26 28 27 26 26 27 28 27 27 30 31 31 31 30 30 30 29 28 28
33 33 32 33 33 31 31 31 33 36 36 37 37 36 34 32 31 30 30 29 29 29 29 29 30 31 30 29 30 30 30 30 31 33 33 35 33 31 30 30 30 29 30
31 29 35 34 33 31 30 31 34 34 32 33 34 36 36 37 35 34 33 31 32 32 34 34 33 32 33 34 33 32 33 34 34 34 34 38 37 34 32 31 32 34 35
35 32 31 36 36 35 35 34 34 35 35 35 35 36 37 37 35 36 36 36 36 37 39 39 38 37 37 38 38 38 39 38 38 36 36 38 38 40 41 36 35 37 37
39 35 35 36 36 34 32 30 31 34 35 36 38 38 39 39 39 39 40 40 40 41 42 42 41 40 42 43 43 40 38 37 38 39 39 40 43 43 43 45 41 39 40
41 40 39 38 38 38 36 34 33 33 34 34 35 37 38 38 38 38 38 37 38 40 41 40 39 38 38 38 35 34 35 35 35 37 37 39 42 44 42 45 45 46 45
41 41 42 43 44 42 38 36 35 33 31 32 33 34 35 35 36 35 36 35 35 35 34 33 30 33 34 34 34 32 33 34 35 35 36 37 37 38 40 38 47 43 46
38 37 37 36 34 34 33 30 29 27 26 27 28 29 30 31 31 32 32 31 30 29 29 28 27 28 29 31 32 32 32 32 33 35 36 37 37 38 39 40 41 42 42
34 33 32 29 26 26 26 25 24 23 23 23 24 25 26 26 26 26 26 25 25 25 24 24 25 26 28 29 29 30 31 32 34 36 37 37 39 39 38 38 38 37 40
28 27 25 23 22 22 22 22 22 22 23 24 25 26 27 27 27 28 28 27 27 27 27 28 28 29 31 31 31 32 33 34 36 37 38 39 40 41 42 43 42 36 33
21 21 20 20 19 20 20 21 23 24 26 27 28 29 29 29 30 31 31 31 32 32 32 32 31 32 32 32 32 32 33 32 32 33 34 34 35 36 37 39 38 36 33
17 18 17 17 17 18 18 19 21 22 24 26 28 29 29 29 30 31 32 33 33 33 31 30 30 30 30 30 30 29 27 26 29 31 31 31 31 32 32 30 30 28 30
19 17 16 16 16 17 18 20 21 22 24 26 27 28 28 28 28 28 28 28 28 27 26 26 25 25 25 26 25 22 24 28 30 30 31 30 32 31 27 23 22 25 28
17 16 15 15 16 18 21 23 24 25 25 25 26 25 24 23 22 22 23 24 24 22 21 21 21 22 22 21 20 20 23 26 27 27 26 25 26 26 24 20 22 24 25
14 13 13 15 18 20 23 25 25 24 24 23 22 22 20 19 19 19 19 19 18 18 17 18 17 17 17 17 16 19 20 18 18 18 17 20 18 19 20 18 18 21 21
14 15 15 16 17 20 22 23 23 21 20 20 19 18 18 18 17 17 16 16 15 15 15 14 14 12 12 12 13 11 10 9 7 6 6 10 10 9 10 12 13 14 15
16 15 15 17 18 19 24 23 21 20 19 19 19 18 17 16 15 15 14 15 14 13 12 12 12 11 10 7 4 0 4 3 5 8 11 13 14 15 16 17 20 21 22
15 16 17 18 19 22 24 19 21 20 20 19 20 19 18 17 17 16 15 15 14 13 11 9 9 8 4 5 5 3 2 5 7 10 12 14 16 18 20 21 23 24 25
16 18 18 20 23 21 23 24 24 21 19 20 19 19 18 17 16 15 13 13 12 10 8 8 8 7 8 4 2 1 4 6 9 12 14 16 18 19 21 22 23 24 24
15 15 18 21 20 23 23 22 23 20 19 19 18 16 15 14 12 13 12 12 10 10 11 10 10 7 4 2 2 4 6 9 12 14 15 18 20 21 22 23 23 24 23
15 17 18 17 21 24 23 21 19 18 18 16 16 14 13 12 13 13 12 13 12 12 12 10 7 5 3 3 4 6 8 10 13 16 18 19 20 21 22 23 23 23 22
16 17 18 19 22 24 20 16 15 15 15 15 12 14 14 13 14 15 14 13 13 12 10 8 6 5 4 5 6 8 11 13 15 17 18 19 21 22 22 23 23 23 21
16 16 17 17 18 13 13 13 13 13 13 14 13 14 16 16 16 15 14 13 12 11 9 8 6 5 5 6 8 11 12 14 16 17 18 19 20 20 21 22 22 22 20
13 14 13 13 12 9 8 10 12 13 15 16 16 17 18 17 15 14 13 12 12 11 10 8 7 6 7 9 10 12 13 15 16 17 18 19 20 21 21 22 22 21 20
11 11 10 10 9 8 8 9 12 13 17 18 19 19 19 18 17 15 13 13 13 12 10 8 8 8 10 11 11 13 14 15 16 17 18 19 19 21 22 22 22 22 22
11 14 11 9 8 7 6 7 8 11 16 18 20 20 19 17 15 14 15 14 13 11 9 9 10 10 11 12 13 14 15 16 17 18 19 19 20 21 22 23 23 24 24

GFSMW_700_spd_081.txt.gz
Wind_Speed
26 26 27 26 27 27 26 25 27 28 30 30 28 28 26 25 24 22 22 23 23 22 22 22 22 23 24 25 26 26 26 27 28 29 29 30 30 29 27 26 26 26 25
32 32 35 32 32 31 29 27 27 29 31 32 31 31 28 29 29 29 30 27 25 26 26 26 26 28 29 29 29 30 30 32 30 32 34 37 35 30 28 28 28 27 28
41 35 34 32 30 30 31 31 29 29 29 30 32 32 34 36 35 33 31 29 28 29 30 31 31 32 33 33 32 33 34 34 32 33 37 40 41 37 31 30 31 31 30
40 40 38 33 33 33 32 30 30 30 31 30 31 33 35 35 33 32 33 33 33 33 33 34 35 35 37 37 37 36 36 37 39 38 36 36 38 39 42 37 36 36 35
45 39 38 32 31 32 34 33 32 31 32 33 34 34 36 36 37 37 37 37 38 38 38 39 41 40 41 41 41 40 41 40 38 36 33 35 38 37 40 41 40 39 38
50 47 44 38 34 32 32 32 31 30 30 31 32 34 34 35 36 37 39 39 39 40 41 41 42 41 40 39 39 38 37 34 33 33 33 33 34 37 36 41 40 41 39
44 47 45 39 37 36 34 34 35 35 35 35 35 35 35 35 35 35 36 37 37 38 38 39 39 37 34 32 34 35 34 32 32 34 34 34 35 35 36 38 40 42 41
41 41 40 39 38 39 40 41 43 41 39 37 35 34 34 35 35 35 36 36 36 35 36 37 37 35 32 32 34 34 33 32 30 30 30 32 33 33 33 36 37 40 41
36 42 39 37 38 39 39 37 34 33 32 30 28 28 29 30 31 31 31 30 29 28 27 27 27 26 26 27 28 28 29 29 30 31 33 34 34 36 37 37 37 39 43
25 30 34 33 33 32 30 28 28 27 26 25 26 26 26 27 28 29 28 28 28 27 26 26 26 27 27 28 29 30 31 31 33 34 35 35 35 34 34 34 33 33 35
18 22 27 29 27 25 24 24 24 24 25 25 27 28 28 29 29 30 31 31 31 30 30 30 30 31 31 32 33 32 32 33 33 33 33 32 29 30 31 31 32 33 33
17 20 21 22 21 22 22 23 23 24 25 26 28 29 29 30 31 32 32 32 32 33 33 33 33 32 32 31 31 31 31 30 29 31 29 28 28 30 30 31 32 32 29
17 17 17 18 18 20 20 20 21 22 23 24 26 27 28 30 30 31 31 31 31 30 30 29 28 27 27 27 26 26 26 25 28 27 25 25 26 26 25 28 28 26 25
15 17 17 17 17 17 18 19 20 22 23 25 26 27 27 28 28 28 28 27 25 24 24 24 23 23 22 22 23 21 21 24 24 21 19 19 18 20 20 21 20 19 21
17 17 16 16 16 16 18 20 21 24 26 26 26 26 26 25 25 23 22 22 21 20 19 19 19 19 20 19 18 18 19 19 16 13 11 10 8 7 8 10 11 13 16
15 15 15 15 16 17 19 20 23 24 25 25 24 23 23 22 21 21 20 19 18 18 17 17 17 16 15 14 14 15 13 11 7 2 1 7 8 10 12 15 17 19 21
14 13 14 15 17 18 20 22 24 25 23 23 22 22 21 20 19 19 18 18 17 17 17 16 14 13 13 12 11 9 7 4 2 4 6 8 10 13 14 16 18 20 22
16 16 16 17 18 20 21 23 26 23 23 23 22 21 21 21 20 18 17 17 17 17 15 13 12 11 10 8 7 7 5 4 5 6 9 10 12 14 16 18 20 21 22
15 16 17 19 21 21 24 27 23 25 25 25 23 23 22 22 20 19 18 17 16 15 14 13 11 9 9 10 9 7 5 6 8 9 11 13 14 16 18 19 21 22 23
16 17 18 19 20 24 24 22 25 24 25 24 22 23 23 21 19 18 17 15 15 14 13 12 11 11 11 10 9 7 8 9 10 12 14 15 16 17 18 20 21 23 23
17 18 19 19 22 20 22 25 26 25 23 22 21 20 18 18 17 16 16 16 15 15 14 13 13 12 11 10 9 9 10 11 13 14 15 16 17 18 18 20 21 22 23
16 16 18 19 21 22 24 27 24 21 20 20 19 17 17 17 15 16 16 16 16 15 14 14 13 12 11 11 11 10 11 13 14 15 16 17 17 18 18 19 20 21 22
15 17 18 19 21 21 21 16 16 15 15 15 14 14 15 16 16 17 18 17 16 16 15 14 13 12 12 11 11 11 12 14 15 16 16 17 18 18 19 20 21 21 22
13 13 15 17 17 16 14 11 11 14 15 15 15 15 15 17 17 17 17 17 17 16 15 15 14 14 12 11 11 12 14 15 16 16 17 17 17 18 19 20 21 22 22
13 12 13 12 12 12 12 11 11 12 14 15 17 18 19 20 19 19 18 17 16 16 15 15 14 13 12 12 13 14 15 16 16 17 18 18 18 19 21 22 22 23 23
12 12 14 15 12 11 10 10 10 12 14 15 19 19 20 20 20 19 18 17 17 17 17 16 14 14 14 14 14 15 16 16 17 18 18 19 20 21 22 23 24 24 25

GFSMW_700_spd_084.txt.gz
Wind_Speed
24 27 27 20 20 21 22 22 22 21 23 22 23 22 21 22 20 19 19 19 20 20 21 21 21 21 22 22 24 25 26 26 26 29 29 28 27 26 25 25 24 24 24
21 24 19 20 19 24 22 22 22 23 25 27 27 27 27 26 26 26 27 25 23 24 25 24 24 26 27 26 27 29 30 30 29 33 34 34 32 32 29 26 27 26 26
31 26 26 27 29 28 27 27 26 25 26 27 28 28 29 29 28 28 28 27 29 29 29 28 29 29 30 30 31 31 33 33 33 34 35 38 41 40 35 31 28 29 31
28 28 30 29 31 27 27 27 26 26 28 27 28 28 29 29 29 30 30 31 31 31 31 31 32 32 32 33 33 35 35 36 38 38 38 39 39 38 38 32 30 29 32
34 34 34 34 40 35 30 29 29 27 27 27 27 28 29 31 33 33 33 33 32 32 33 34 35 35 36 38 38 38 39 39 38 39 38 35 35 33 34 38 36 38 31
44 44 42 41 39 40 35 31 31 31 31 30 29 29 29 30 33 34 35 35 35 36 38 39 39 39 40 40 39 38 38 37 36 34 34 33 33 32 34 36 37 37 35
39 47 48 45 40 38 37 32 31 31 31 31 29 29 30 31 32 33 35 37 37 38 38 39 39 40 40 40 38 37 36 36 34 35 34 33 33 34 34 34 36 38 37
37 38 42 44 43 39 37 34 34 34 34 34 34 34 35 35 35 35 36 37 37 37 36 36 37 38 39 38 37 38 37 36 34 32 31 31 30 31 33 34 35 37 37
29 31 36 40 38 37 36 38 38 38 38 39 39 37 35 34 33 33 33 33 33 34 33 32 32 31 32 31 31 31 30 29 30 29 30 31 32 33 33 33 33 34 35
20 27 31 37 37 34 35 36 37 38 37 36 34 31 30 30 29 29 29 29 29 29 29 28 28 27 27 26 27 28 28 29 30 31 31 33 33 32 31 31 31 30 30
15 20 24 29 32 34 33 32 33 33 33 30 28 27 28 28 28 29 30 30 30 30 30 30 29 30 30 31 32 32 32 33 31 31 31 30 29 28 30 30 28 28 28
13 14 16 19 22 26 28 27 25 26 25 26 26 27 28 29 29 30 31 32 32 32 32 32 32 32 33 34 34 34 33 31 29 27 26 25 26 28 28 26 24 24 24
14 15 17 19 21 22 21 22 21 22 24 24 26 27 28 28 29 30 30 31 31 32 31 32 32 31 32 31 30 29 27 25 24 23 23 23 25 24 21 19 20 20 19
13 13 15 16 17 19 18 22 19 21 22 23 24 25 26 27 28 28 29 29 29 29 29 28 27 27 26 25 24 23 21 21 21 21 21 22 18 16 15 10 9 10 11
15 14 14 15 16 16 17 18 17 19 21 24 25 27 27 27 27 27 27 27 25 25 24 24 23 23 21 20 19 19 18 17 17 18 17 13 9 7 8 10 11 14 15
15 14 15 15 14 15 16 17 18 20 22 25 25 26 27 26 26 25 24 23 23 22 22 20 19 17 17 17 15 15 14 14 13 12 7 8 9 9 11 12 14 16 18
14 14 12 12 14 16 17 18 20 22 24 26 26 24 24 24 23 22 22 21 21 21 19 18 16 16 15 14 13 12 11 9 7 6 7 9 9 11 13 15 16 18 19
12 12 12 14 16 17 18 20 22 23 26 26 25 24 24 23 22 22 21 19 18 18 17 16 15 14 12 12 10 9 9 8 6 7 9 9 11 13 15 17 18 19 19
13 14 16 18 18 19 20 22 23 25 28 24 27 25 24 23 22 22 20 19 19 17 17 15 14 13 12 11 11 9 8 8 8 9 10 12 13 15 17 18 19 19 20
13 14 17 18 18 19 20 22 27 24 25 27 26 25 23 22 22 21 21 19 18 17 15 15 14 14 13 12 10 10 9 10 10 12 13 14 15 16 17 18 18 19 19
18 18 17 17 19 20 21 23 24 26 29 28 26 24 22 22 21 20 20 19 18 17 16 15 16 16 14 12 11 11 11 11 12 13 14 15 16 17 17 18 18 19 19
19 17 18 18 20 21 22 24 26 28 30 26 21 21 20 18 18 18 18 17 17 17 17 18 17 15 13 12 11 11 11 13 13 14 15 16 16 17 17 18 18 19 19
16 15 17 19 21 21 23 23 24 24 20 19 18 16 16 16 17 17 17 17 17 18 19 18 17 15 13 13 12 12 14 14 14 15 16 16 16 17 17 17 18 19 20
13 13 14 17 18 19 18 19 19 16 15 14 14 14 15 15 16 17 18 19 20 20 18 18 16 15 13 12 13 14 14 14 15 16 16 16 16 17 17 18 18 20 21
13 13 15 16 15 13 14 15 16 15 13 15 16 16 16 16 17 18 20 21 20 19 19 17 16 14 14 14 14 15 15 15 16 16 16 16 17 18 19 20 21 22 23
13 15 15 14 16 16 14 14 14 14 14 15 15 16 18 18 19 20 20 19 19 19 18 16 16 16 16 16 16 16 16 16 17 17 17 17 18 19 20 21 23 25 25

GFSMW_700_spd_087.txt.gz
Wind_Speed
34 33 34 28 24 25 26 29 29 26 24 23 20 20 19 20 20 18 18 18 18 19 18 18 19 20 20 21 22 23 24 25 27 28 27 27 28 27 26 26 27 27 26
41 39 41 27 28 25 22 25 26 20 26 21 21 23 23 22 22 21 21 23 22 20 20 21 22 24 25 26 26 27 28 29 29 31 32 33 31 30 30 32 30 26 26
40 44 39 35 31 26 22 14 16 19 21 24 28 28 28 26 26 24 25 25 26 26 27 28 28 28 28 28 29 30 31 32 32 32 35 37 40 38 34 31 28 24 23
46 38 31 35 30 28 22 21 23 24 22 24 24 25 27 28 28 29 29 30 30 31 32 32 32 32 32 31 31 33 34 35 35 36 37 38 38 37 39 33 28 26 27
26 36 30 28 29 32 28 25 27 25 23 23 24 25 25 27 29 30 32 32 33 32 32 32 32 32 34 34 35 36 37 38 39 39 38 36 34 33 34 36 30 29 28
30 28 37 36 37 33 31 31 28 26 25 26 26 25 25 27 28 30 31 32 33 34 34 35 36 36 37 38 39 41 40 39 38 37 35 32 31 32 33 34 32 32 32
31 31 36 35 36 33 31 32 33 32 29 30 30 29 28 29 28 28 29 30 32 34 35 36 37 38 39 40 40 40 39 37 36 35 34 33 33 34 32 32 32 33 33
33 38 37 38 41 34 36 35 35 36 32 31 31 30 30 29 29 30 33 34 35 37 37 37 37 36 36 37 37 38 37 36 34 32 30 30 30 30 30 31 33 34 33
27 34 40 40 38 35 39 39 38 33 33 32 33 33 32 33 34 35 35 34 34 34 34 34 35 34 34 33 32 32 32 30 28 26 27 28 30 30 30 31 32 32 32
21 23 29 33 39 35 35 35 36 38 35 36 36 36 36 36 35 33 32 30 31 30 29 28 29 28 27 27 27 28 29 27 27 27 28 30 30 30 30 30 28 27 29
20 20 22 29 31 33 35 34 33 33 35 35 36 37 36 34 32 31 30 29 29 29 28 29 29 29 29 29 29 30 30 30 30 31 29 30 29 28 27 26 26 26 26
17 17 18 24 27 30 32 33 33 32 33 34 33 32 31 31 30 30 30 30 30 30 31 31 31 31 31 31 32 33 33 33 32 32 29 28 26 24 23 24 22 22 19
14 15 16 18 19 23 26 27 28 29 28 27 27 26 27 28 29 29 29 30 31 31 31 31 32 31 31 32 32 33 33 32 30 28 25 23 21 21 21 18 16 15 12
13 14 14 15 18 21 22 22 20 20 21 24 23 25 26 27 27 27 27 28 29 29 30 30 30 30 31 30 30 30 28 26 24 22 21 19 18 16 13 10 7 9 11
14 14 13 14 15 15 16 17 18 18 19 22 23 22 24 26 28 29 28 28 28 28 28 28 27 26 26 26 26 24 22 21 20 18 17 16 12 8 7 8 10 12 13
15 13 13 13 15 16 17 18 17 17 17 20 21 22 24 26 28 29 28 27 27 26 25 24 24 23 22 21 20 19 18 17 16 15 13 10 8 8 8 10 12 13 14
15 14 13 12 14 15 15 15 16 17 19 21 21 24 25 25 26 27 25 25 25 23 23 23 21 20 18 18 17 16 15 14 13 11 8 8 8 8 9 11 13 15 15
14 13 13 13 12 14 14 16 17 19 20 22 23 25 27 26 26 25 23 23 23 22 21 20 18 18 17 16 15 14 13 12 11 9 9 7 8 9 12 14 15 15 15
13 14 15 15 14 16 17 18 19 21 21 23 27 28 26 27 26 25 23 22 22 20 18 18 17 16 16 15 14 13 13 12 11 10 7 8 10 12 14 15 15 15 15
15 14 15 14 16 16 18 19 21 21 23 25 24 26 28 27 24 23 22 21 20 20 19 19 18 18 17 16 15 15 14 12 11 9 9 10 12 13 15 15 15 15 14
17 14 16 16 17 19 20 19 21 23 27 26 28 29 29 27 24 21 21 20 21 21 19 19 18 18 17 17 16 15 13 11 10 10 11 12 13 14 14 15 15 15 15
19 18 20 19 18 19 19 22 24 26 26 28 29 30 27 23 22 19 20 20 20 20 20 19 18 18 18 17 15 13 12 11 11 11 11 12 13 14 14 14 15 15 15
18 18 17 17 17 19 22 21 23 25 26 26 23 22 21 20 19 18 19 18 19 19 19 19 19 19 18 16 14 13 12 12 11 11 13 13 13 14 14 15 15 16 16
14 15 15 16 16 19 20 19 19 21 20 20 18 17 16 16 16 17 17 17 18 20 19 20 20 18 16 15 14 13 13 12 12 13 13 13 14 14 15 16 16 17 18
19 17 14 16 17 16 18 17 17 18 17 16 15 16 16 16 16 15 17 19 20 21 22 21 19 18 17 16 15 14 13 13 13 14 13 13 14 15 16 17 17 18 19
11 12 15 17 17 15 15 17 17 16 15 15 14 16 16 17 17 16 16 18 19 20 20 19 19 18 17 17 16 15 15 15 15 14 14 15 16 17 17 18 18 19 21

GFSMW_700_spd_093.txt.gz
Wind_Speed
25 25 33 34 32 34 35 35 34 32 34 34 33 34 33 32 34 32 31 30 28 27 25 22 23 21 20 21 21 21 21 22 24 25 25 26 26 28 28 28 29 32 33
23 27 37 39 35 36 35 33 34 35 32 33 32 31 31 32 32 31 28 25 25 23 23 23 23 22 22 23 24 24 24 26 26 27 29 29 30 32 32 30 32 34 35
25 28 35 41 41 42 37 34 34 38 33 29 28 28 26 28 30 28 28 26 23 22 20 23 23 24 25 26 27 27 27 28 29 29 31 32 33 33 34 35 36 35 31
27 29 32 37 43 41 38 37 37 35 39 33 32 31 34 32 32 36 31 27 27 24 24 25 26 27 29 30 31 32 32 33 33 34 32 34 35 36 39 40 37 31 28
28 34 28 38 38 42 38 38 41 36 32 34 34 31 31 39 38 45 41 33 34 26 25 28 27 28 33 34 34 35 36 35 35 37 37 35 36 38 40 40 35 31 28
32 28 37 37 41 42 42 40 39 43 30 26 32 48 42 35 35 40 42 42 36 34 25 27 29 30 34 36 37 37 37 37 37 38 40 40 39 40 37 36 33 31 30
28 32 29 41 39 40 38 37 38 39 33 37 23 19 22 40 40 35 29 21 21 26 29 28 29 34 35 36 37 38 39 38 39 39 40 40 36 36 34 35 32 29 30
27 30 32 36 40 37 34 39 39 38 37 31 30 27 23 20 22 22 19 21 25 28 29 29 30 33 35 36 38 39 39 39 39 38 38 36 35 35 34 31 28 27 29
30 30 35 34 43 44 42 41 40 37 36 34 35 29 33 31 27 22 28 23 30 32 29 32 35 37 37 38 38 39 37 37 37 36 34 34 34 33 29 27 26 28 31
27 27 30 33 39 34 37 47 46 48 31 28 26 28 31 33 31 30 30 31 32 33 34 35 35 35 34 34 34 33 33 33 33 33 33 30 30 29 27 28 28 30 31
20 22 26 29 32 35 35 33 43 37 34 23 23 32 32 32 31 31 31 33 34 35 36 36 36 35 34 32 32 31 31 31 31 31 31 31 29 29 29 29 30 31 30
20 22 22 25 26 28 34 35 33 34 33 34 33 31 33 34 34 34 35 36 37 38 37 37 37 35 34 33 33 33 33 32 32 32 32 33 32 31 31 31 30 28 27
18 18 17 19 20 20 22 28 36 39 41 39 33 33 33 33 34 35 36 36 36 36 35 35 35 34 34 34 35 34 34 35 34 34 33 32 33 32 31 29 26 24 23
12 15 18 19 20 22 23 26 30 33 35 34 32 33 34 33 34 35 36 34 34 32 33 33 33 33 33 33 34 34 34 34 33 33 33 31 30 29 27 24 22 21 20
9 12 14 15 16 17 19 22 25 27 29 31 32 32 33 33 32 31 31 30 30 31 32 33 33 33 33 33 34 34 33 33 32 31 29 27 26 25 23 21 20 16 13
16 15 15 15 16 16 16 19 22 24 26 27 28 27 26 26 26 26 27 28 29 30 32 33 34 34 34 33 33 33 31 30 29 27 25 24 23 22 20 18 16 13 13
18 17 16 17 17 17 18 19 20 20 21 21 21 22 22 23 25 26 27 29 30 32 32 33 33 34 33 32 31 30 28 27 25 23 22 21 21 18 17 15 14 14 13
16 17 17 17 18 18 17 17 17 17 18 19 20 21 23 24 25 27 29 31 32 33 32 33 32 31 31 29 28 27 25 23 22 22 20 20 18 16 15 14 13 13 14
14 16 19 20 20 19 17 16 15 16 18 19 20 22 23 25 27 29 31 34 33 32 32 32 31 28 28 25 26 25 24 22 21 20 18 17 16 15 14 14 14 14 15
17 17 19 21 19 17 15 14 15 17 19 21 23 24 25 26 28 31 33 33 32 31 30 29 28 27 25 24 24 23 21 21 20 18 17 17 16 14 14 15 15 14 14
18 16 17 18 17 16 17 16 17 19 22 25 25 26 27 29 30 32 33 34 35 34 28 27 26 25 24 22 22 21 20 21 19 19 18 17 16 14 16 16 15 14 14
19 18 17 17 17 18 19 19 21 23 26 26 26 28 30 31 32 34 33 33 31 29 27 24 24 23 23 23 22 22 21 21 20 19 18 17 16 16 16 15 15 15 14
18 19 19 19 20 20 21 23 23 23 25 26 27 29 30 30 30 31 30 27 26 25 24 23 23 23 24 23 23 23 22 22 21 19 18 18 17 16 16 15 15 15 15
13 17 20 22 22 23 23 22 22 22 25 26 27 24 24 25 26 25 23 21 21 22 22 20 21 22 22 22 23 22 22 22 21 19 19 19 17 16 15 15 15 15 15
14 18 18 19 21 21 22 22 23 24 21 22 25 25 23 22 22 20 20 20 20 21 20 20 21 21 22 23 24 23 23 22 21 20 20 19 17 16 16 16 16 16 16
12 13 15 21 24 26 29 26 22 22 21 20 19 21 22 21 21 20 20 20 21 22 21 21 21 22 24 23 23 23 23 23 22 21 20 19 18 17 17 17 17 17 17

GFSMW_700_spd_096.txt.gz
Wind_Speed
20 19 33 26 23 23 28 28 30 30 31 31 31 32 34 33 34 35 36 35 35 34 31 29 26 23 21 18 19 19 19 18 20 21 22 24 24 26 26 26 26 29 31
21 26 34 30 28 27 25 28 29 31 30 30 30 33 32 32 31 32 32 31 30 30 29 27 25 23 20 19 21 20 20 22 22 23 26 27 26 28 28 29 28 31 34
27 20 29 33 30 30 30 28 29 31 30 32 30 31 32 33 34 33 32 29 38 39 31 25 23 23 20 21 22 22 22 24 26 27 28 30 30 30 31 32 32 33 35
22 24 29 31 31 33 33 31 32 31 31 32 34 31 27 30 31 29 30 31 31 30 29 30 29 25 23 24 23 22 25 26 28 31 31 31 32 32 33 33 35 36 34
28 26 30 34 34 29 33 36 36 37 34 35 36 37 32 29 30 30 28 32 33 32 30 29 29 27 29 30 32 26 26 25 32 34 33 32 33 34 33 36 36 36 33
33 28 31 37 38 36 31 33 37 35 37 37 40 43 41 45 41 38 31 32 34 36 37 36 29 26 30 34 31 24 22 28 34 35 37 36 35 34 35 35 32 35 33
25 29 39 42 41 36 35 36 36 39 37 37 38 36 42 34 29 37 33 37 41 40 39 38 30 21 21 21 19 26 26 34 35 35 36 36 35 35 35 34 33 33 33
25 28 31 34 37 34 34 32 35 37 39 39 36 39 39 45 37 40 25 39 39 40 53 36 40 19 21 27 28 28 33 37 38 39 39 38 37 35 34 33 33 33 28
23 29 35 37 35 33 30 31 32 33 37 33 29 23 21 21 25 27 23 20 22 19 23 14 20 25 29 31 33 35 36 37 37 37 38 37 36 35 32 35 33 29 29
29 25 23 29 32 32 31 31 30 32 31 36 35 34 27 27 28 26 27 25 27 24 23 26 31 33 33 33 33 32 33 34 33 33 34 32 32 30 33 29 30 29 29
31 31 30 27 32 34 32 31 38 39 38 38 39 46 43 26 23 25 26 28 28 29 31 32 34 35 35 35 36 35 33 32 32 31 30 29 28 31 31 33 30 30 30
19 23 27 30 32 31 28 31 33 34 35 43 43 39 37 31 20 25 28 29 30 32 34 36 38 38 37 37 36 35 35 33 32 32 32 30 31 32 31 30 32 29 30
15 18 20 22 24 26 26 27 30 33 32 31 31 29 27 25 27 28 27 28 34 38 39 39 39 38 37 36 36 35 35 35 34 33 33 33 33 32 31 29 31 29 28
10 16 18 15 15 20 21 20 21 26 33 37 33 32 29 28 29 30 31 32 34 36 38 37 36 36 35 34 34 35 35 34 34 33 33 33 32 31 31 30 29 27 24
8 11 13 16 17 18 19 20 21 22 24 27 30 31 31 32 31 32 32 33 34 34 33 33 32 32 33 33 33 34 35 34 33 33 31 30 29 30 27 26 25 23 20
12 14 13 13 14 15 16 15 15 17 19 21 23 26 28 29 29 29 28 28 28 29 29 30 31 32 32 33 34 34 33 33 33 31 30 28 27 26 25 23 21 19 17
13 18 17 15 13 13 13 13 14 16 18 20 21 23 23 23 22 23 24 25 27 29 30 32 32 33 34 34 33 33 33 31 29 29 27 26 25 23 22 21 18 16 16
11 14 17 17 16 16 16 15 14 15 16 17 18 19 20 20 21 23 24 26 28 31 32 34 35 34 34 34 32 32 31 29 28 26 24 24 22 22 19 18 15 16 15
11 12 15 17 17 17 16 15 15 15 15 15 16 18 20 22 24 25 27 28 30 33 34 33 32 33 33 31 30 29 29 27 26 23 22 21 21 19 18 17 16 16 14
15 14 16 18 18 17 15 14 12 12 13 15 17 19 22 23 25 26 28 31 32 34 34 34 33 31 31 28 27 26 26 25 23 22 22 19 18 18 19 17 16 14 14
18 17 15 16 17 15 14 14 14 14 15 18 19 21 23 26 28 29 31 33 35 35 35 37 36 30 28 27 25 23 23 23 21 21 21 18 19 20 18 16 15 15 15
17 17 16 16 16 15 15 16 17 18 19 23 24 23 25 27 29 32 33 33 33 33 34 30 29 27 24 25 24 23 22 23 19 19 19 19 21 19 17 16 16 15 15
11 15 16 17 16 16 17 17 19 22 24 24 24 25 27 26 27 27 28 28 28 28 25 25 26 23 21 22 22 22 21 20 19 20 20 21 20 18 17 17 17 16 15
7 12 15 17 19 21 22 22 23 24 24 24 24 27 27 27 27 26 25 24 22 22 21 21 22 20 19 20 21 21 21 22 21 21 22 21 19 19 19 18 17 15 15
11 14 15 18 19 21 22 23 24 24 25 25 25 24 22 23 23 24 24 24 22 22 22 22 21 19 17 20 22 22 21 22 22 22 22 21 20 19 19 17 16 16 16
9 11 12 14 17 21 23 23 24 25 29 29 24 23 22 21 20 22 23 23 24 23 22 22 22 20 19 21 21 20 21 22 22 23 22 21 20 20 18 17 18 18 18

GFSMW_700_spd_099.txt.gz
Wind_Speed
17 20 22 22 23 25 28 27 26 24 27 34 39 37 30 32 35 35 36 35 34 33 32 31 30 29 27 25 22 19 17 17 18 17 17 18 19 20 21 24 25 25 26
18 18 22 24 24 24 25 25 24 24 24 24 24 27 26 28 30 31 33 33 32 33 32 27 28 28 27 25 23 21 19 18 19 19 20 21 21 22 24 25 26 26 27
25 24 26 28 25 26 25 23 23 22 21 21 25 25 27 29 29 30 30 28 25 24 29 34 31 23 22 23 23 23 22 20 20 19 22 24 25 25 25 25 28 29 30
27 25 26 29 32 28 27 26 24 22 22 24 23 26 27 27 27 26 31 30 29 28 25 30 35 40 39 36 28 33 31 25 24 26 22 23 28 28 28 29 30 30 31
28 30 28 25 28 29 29 30 30 28 26 26 25 27 27 29 28 29 32 36 30 31 30 31 29 29 31 37 37 31 29 29 31 30 27 20 26 30 29 30 31 32 32
28 30 30 29 29 31 30 27 32 33 34 33 30 29 30 31 31 33 33 32 35 30 27 34 31 36 34 33 33 35 31 30 36 37 24 24 30 31 30 29 30 31 34
35 32 33 32 32 27 26 25 26 25 27 32 32 33 35 36 37 38 36 40 45 39 37 40 28 29 26 30 28 38 42 22 23 24 27 28 28 31 33 32 32 34 33
41 38 37 36 33 30 28 28 28 29 31 30 33 34 31 32 29 30 34 37 33 34 34 34 37 36 39 44 49 48 32 20 28 27 28 31 32 34 34 35 33 34 35
28 32 38 37 32 32 32 31 27 28 28 29 30 32 34 36 33 31 31 33 27 23 26 24 18 20 20 22 18 20 22 27 29 37 37 33 33 34 33 32 32 31 35
24 28 28 30 28 29 31 28 26 25 25 27 28 29 28 30 31 33 33 22 19 18 18 23 24 28 27 28 28 30 31 33 33 33 31 30 30 30 29 30 31 29 29
28 30 29 27 30 32 33 30 25 23 24 25 25 24 26 29 33 36 35 36 26 27 30 32 30 30 32 32 34 35 34 34 34 32 31 30 30 29 29 31 30 31 30
29 33 32 29 28 26 26 25 24 24 26 30 30 31 31 37 39 33 41 40 23 25 26 27 29 33 35 37 38 38 38 37 35 34 33 32 31 31 31 31 32 32 32
28 36 33 31 30 28 25 25 24 25 26 27 29 30 33 36 33 27 22 20 21 23 29 30 32 38 39 38 39 39 38 37 35 34 33 34 34 33 33 32 31 33 32
14 18 23 28 29 27 24 23 22 23 24 28 29 30 28 27 29 29 27 25 26 30 32 33 35 37 39 40 38 38 35 35 34 34 33 32 33 33 32 32 32 30 32
7 10 16 21 22 20 19 19 20 21 20 23 27 31 32 30 31 31 29 28 29 31 34 35 35 36 35 35 35 35 34 33 33 33 33 33 32 32 31 31 30 30 29
8 9 12 16 17 19 18 19 20 20 20 20 21 22 23 26 27 26 27 28 29 30 30 29 30 31 33 34 34 34 33 34 34 34 33 32 32 31 30 29 28 27 25
12 11 13 14 16 16 15 15 15 15 14 14 16 18 20 21 22 23 24 24 25 26 27 28 30 31 33 35 36 35 34 33 32 32 32 31 29 28 28 26 25 23 22
11 11 12 14 14 13 13 12 12 12 13 14 15 16 17 18 18 19 20 22 24 26 28 30 32 34 35 35 35 35 35 34 31 30 29 28 28 27 25 24 22 22 21
12 11 12 14 14 13 12 11 11 12 13 14 15 16 17 17 18 20 22 24 26 28 30 31 33 35 36 35 34 33 33 31 30 28 27 25 25 22 23 22 21 20 19
16 13 12 14 14 14 13 11 12 12 12 12 14 15 16 18 21 23 25 27 29 31 33 35 36 36 37 37 33 32 30 29 28 26 24 24 23 22 22 20 20 18 19
18 16 14 12 14 15 13 12 12 12 13 13 15 16 17 20 23 25 27 28 30 34 36 36 36 36 37 37 31 29 27 26 25 24 24 21 21 20 20 19 19 19 18
13 17 16 14 14 15 14 14 14 15 16 17 18 20 23 24 25 26 28 27 28 29 28 30 32 32 31 31 26 23 23 23 23 21 22 20 21 20 20 20 20 19 18
9 13 15 15 15 16 16 15 16 17 18 20 22 23 24 25 27 30 29 28 28 27 26 26 26 25 24 25 23 21 21 22 22 21 20 20 21 21 21 21 20 18 18
5 8 12 15 17 17 17 18 19 21 23 23 24 24 25 28 29 26 26 26 25 26 26 26 25 24 24 22 19 20 21 22 22 22 22 22 22 22 21 21 19 19 19
8 10 11 14 17 19 21 22 24 25 25 24 25 25 26 24 25 24 23 23 24 25 26 25 24 23 22 22 19 20 21 23 23 23 23 21 23 23 22 21 20 20 18
8 8 10 11 15 18 20 23 25 26 26 25 26 25 26 25 25 24 21 21 22 23 24 24 24 23 22 21 19 19 21 23 24 23 21 21 21 21 21 21 21 20 18

GFSMW_700_spd_102.txt.gz
Wind_Speed
23 23 25 31 32 35 34 31 29 29 31 29 30 30 31 31 31 35 32 32 30 30 30 31 31 29 27 26 26 26 24 22 20 19 18 17 17 16 18 20 23 23 23
21 24 25 26 26 28 31 34 31 31 30 33 33 31 29 31 32 32 34 35 34 33 31 31 31 31 26 26 25 25 24 24 23 23 21 20 18 18 20 22 24 25 25
21 22 27 26 25 24 23 27 30 30 29 25 26 26 26 28 28 29 28 29 31 31 30 30 31 30 25 29 30 21 22 23 24 24 24 22 22 21 20 22 24 25 27
23 23 24 25 26 25 22 22 23 25 25 25 27 25 24 28 25 25 28 30 29 28 30 26 28 30 32 33 31 29 30 37 36 29 26 26 30 31 28 22 25 26 26
29 27 26 24 25 26 26 24 24 23 22 21 22 21 23 26 25 27 29 31 31 31 29 32 36 33 34 24 28 35 34 36 41 46 47 43 30 32 38 21 29 28 28
35 34 29 23 24 27 28 28 27 25 25 25 24 23 24 24 25 26 28 29 29 30 32 30 27 35 35 32 38 33 36 37 39 37 34 34 30 23 24 22 24 29 33
35 35 33 26 26 26 26 29 29 28 27 28 27 27 28 29 27 28 28 28 30 30 31 35 37 37 40 41 25 24 23 30 31 34 31 33 19 24 28 26 32 35 35
33 34 31 31 31 29 27 26 29 29 28 26 26 25 25 27 27 26 25 24 25 28 31 27 31 36 29 27 30 33 30 32 40 30 23 19 19 23 24 34 35 37 37
35 37 32 32 31 31 27 24 24 23 24 25 25 25 24 23 25 26 27 27 26 26 29 25 25 27 23 20 23 20 20 23 24 26 30 30 31 35 37 40 41 37 39
25 35 39 35 34 32 28 27 27 25 22 22 23 23 22 23 24 28 28 25 24 27 26 21 21 23 21 23 24 24 26 26 27 29 30 31 32 33 34 35 33 31 29
24 24 36 40 38 35 30 27 28 24 21 21 21 21 22 24 22 21 24 26 29 32 32 36 34 31 29 27 27 29 30 30 32 33 34 33 32 33 33 32 31 30 31
23 20 26 24 21 23 26 26 27 23 19 19 20 20 21 22 22 23 27 29 31 27 31 29 27 26 26 26 27 31 33 34 35 35 36 36 35 34 34 33 32 31 34
23 25 23 25 26 24 24 24 23 22 21 21 22 23 25 25 26 26 27 30 29 28 20 24 28 30 31 34 35 37 36 37 37 36 35 36 35 34 34 34 33 33 34
25 24 24 27 31 30 26 24 23 24 23 23 24 25 25 26 26 27 29 30 27 28 28 28 28 30 32 34 37 39 40 38 39 38 35 35 34 34 34 34 34 33 34
15 19 24 29 32 32 31 28 27 26 27 25 25 27 27 28 29 30 30 29 29 31 31 31 32 34 35 37 37 38 37 37 35 36 36 34 35 33 33 34 34 34 32
8 11 15 19 23 24 24 24 26 25 22 22 22 23 26 28 29 29 28 28 28 30 32 33 32 32 33 33 33 34 36 36 36 36 36 35 34 33 32 32 33 32 31
8 11 13 15 16 19 22 23 23 22 21 21 20 20 21 21 20 21 23 25 27 28 28 27 27 28 30 32 34 36 37 38 38 37 36 36 34 32 32 31 30 30 28
10 8 11 15 16 16 17 19 18 17 17 16 16 16 17 18 19 20 21 22 23 24 25 27 28 31 33 34 35 37 37 38 38 37 36 34 33 32 30 28 28 26 26
17 11 10 13 17 17 17 16 15 15 15 15 15 16 16 17 17 18 20 21 23 25 27 29 31 32 35 36 38 40 39 36 37 35 34 32 31 31 28 27 26 26 23
20 15 11 10 14 16 16 16 15 14 14 15 16 16 15 15 16 18 21 24 27 28 31 33 35 36 39 39 38 39 40 38 36 33 31 30 28 28 27 28 23 25 22
18 18 16 12 13 16 16 15 13 13 15 15 15 14 14 16 17 20 24 27 28 30 31 33 34 34 33 34 35 38 37 33 31 29 27 27 27 25 24 24 24 24 21
13 14 17 15 13 14 15 15 14 16 15 16 16 16 17 19 21 24 26 27 29 31 31 31 31 30 30 31 31 32 32 28 25 24 24 24 24 23 22 22 24 22 21
7 11 14 16 15 16 17 17 18 17 17 18 19 20 21 23 25 27 28 30 32 30 29 30 29 28 28 28 28 30 27 23 21 22 22 22 22 22 21 22 22 20 21
4 6 10 14 16 16 17 18 19 19 19 20 21 23 25 25 27 29 29 28 28 26 25 27 28 27 28 27 27 26 25 21 21 23 23 22 22 21 20 21 20 20 21
8 8 9 11 13 16 18 20 20 21 23 25 26 26 26 27 28 29 29 29 29 26 24 26 27 26 26 26 26 25 23 22 22 23 24 22 21 20 20 20 20 21 20
7 8 10 11 15 18 20 21 23 25 26 27 29 31 30 28 28 29 30 30 28 26 23 24 24 25 26 25 25 24 22 22 22 21 23 25 21 18 18 19 22 22 22

GFSMW_700_spd_105.txt.gz
Wind_Speed
37 36 33 40 40 38 34 32 31 33 37 36 33 32 30 28 26 25 26 23 24 27 29 29 29 29 29 29 29 28 27 26 26 25 24 23 22 20 19 19 19 19 19
36 34 33 33 39 39 32 36 32 29 31 31 27 26 25 27 28 29 27 25 26 29 31 30 30 30 31 31 29 26 24 26 24 26 27 26 24 24 22 22 22 21 20
35 32 27 30 33 38 38 35 30 30 29 30 29 30 28 30 29 25 27 26 26 28 30 30 29 30 31 32 32 27 25 36 32 35 29 29 27 26 26 24 22 22 21
36 32 27 22 25 26 30 30 33 31 32 31 29 28 30 33 30 24 20 22 28 28 29 26 23 29 28 22 29 34 36 36 28 26 29 38 39 30 36 36 38 35 33
35 31 27 25 23 23 21 25 28 30 31 28 26 23 23 22 21 23 24 26 30 28 26 27 26 23 28 30 31 41 39 37 39 32 29 32 35 38 42 42 34 31 37
33 26 25 23 23 23 24 23 24 24 24 23 23 24 22 20 21 21 23 25 28 28 25 24 22 26 26 30 31 25 33 34 31 31 34 32 31 36 37 32 30 24 24
16 17 20 23 25 24 25 24 25 24 24 24 24 22 22 21 21 20 22 24 24 23 23 26 23 25 27 25 24 29 32 28 22 29 29 32 33 32 30 36 25 20 16
21 22 28 27 25 25 25 24 24 26 28 28 25 22 22 22 22 23 23 20 19 21 23 24 26 24 26 29 29 28 28 28 25 18 23 21 21 24 21 22 28 31 33
26 31 30 30 29 26 23 22 22 25 27 27 26 23 22 21 19 19 20 19 18 20 22 19 21 22 20 21 26 24 21 19 22 20 21 23 25 27 28 30 31 32 37
32 31 30 27 26 28 26 24 22 21 21 22 22 23 21 21 20 20 18 19 20 18 17 19 22 24 20 24 25 25 27 27 27 25 26 27 28 30 30 30 31 31 32
30 27 31 32 28 28 28 27 23 22 21 19 20 20 21 21 20 19 20 21 20 19 18 22 25 28 33 33 35 32 29 28 28 29 29 29 30 32 33 32 32 32 32
23 29 30 33 36 32 29 27 26 26 23 21 20 20 21 20 19 20 19 19 18 20 23 24 24 20 21 25 26 26 27 28 30 32 34 33 33 33 34 35 34 34 35
16 22 22 21 27 32 33 30 26 24 22 21 19 18 18 19 20 21 21 21 23 23 24 28 25 23 24 27 29 30 32 34 35 36 38 38 37 35 34 35 36 35 36
15 16 20 18 22 22 22 20 20 19 18 17 18 18 20 22 23 24 25 25 26 27 29 28 28 28 29 30 31 33 34 36 37 38 38 37 37 36 36 33 36 36 34
12 15 16 18 21 24 26 24 23 21 21 21 21 22 24 25 25 25 26 27 27 28 30 31 30 30 31 33 34 35 35 35 35 36 37 36 36 35 35 35 34 36 35
3 9 14 18 22 24 26 28 27 27 27 26 24 25 25 26 26 27 28 29 31 32 31 30 30 30 32 33 34 34 34 35 36 36 37 37 37 37 36 35 34 34 35
4 7 9 13 17 22 27 30 30 29 27 26 26 23 23 23 24 27 28 28 28 27 27 28 28 30 31 31 32 34 35 37 38 39 39 38 38 37 37 35 35 34 33
6 6 9 12 15 19 24 26 25 24 21 21 23 23 22 22 22 22 23 24 24 24 25 25 26 28 30 32 34 36 38 39 41 41 39 39 38 36 36 34 33 33 33
13 10 11 11 13 17 17 16 19 19 19 19 19 19 19 20 21 21 21 21 22 22 23 25 27 30 33 35 36 38 40 42 43 42 40 38 37 35 34 32 32 32 29
21 16 14 13 13 17 17 16 17 17 18 18 19 19 20 20 20 20 20 20 20 22 25 27 30 33 35 36 36 36 35 36 38 39 39 36 34 33 31 30 29 30 29
16 18 16 13 13 16 18 18 18 18 19 19 19 19 19 18 18 18 19 19 21 25 28 29 32 34 34 34 35 34 33 35 36 37 34 30 28 28 27 28 26 27 25
14 14 14 17 16 17 19 20 19 21 19 19 18 19 19 18 18 19 21 24 28 29 28 29 31 33 34 33 32 32 33 32 33 34 30 26 23 25 25 25 25 24 23
8 9 12 17 17 16 18 20 21 21 20 20 21 21 21 21 22 23 25 28 29 30 31 31 29 27 29 29 31 32 32 32 30 30 25 23 22 23 23 23 23 21 21
7 6 9 13 17 18 18 20 22 22 21 21 21 22 23 23 24 25 27 29 31 31 30 29 28 27 28 29 30 30 30 32 30 29 24 23 23 23 22 20 21 20 20
9 9 7 8 11 15 17 19 21 21 21 21 22 23 25 26 29 30 31 32 33 32 32 33 30 28 26 27 26 27 28 28 29 26 24 22 22 22 23 21 19 20 20
10 10 10 10 12 15 18 19 20 22 24 25 27 28 29 30 31 32 34 30 29 30 36 37 32 30 27 27 26 26 26 26 27 24 23 21 21 21 24 22 19 20 20

GFSMW_700_spd_108.txt.gz
Wind_Speed
48 42 43 34 40 42 40 40 48 42 41 36 36 35 35 35 34 32 29 28 25 22 21 21 22 23 24 25 26 27 27 27 25 23 18 21 23 27 24 23 23 21 20
44 48 47 40 38 37 39 37 47 39 44 41 40 39 35 33 32 30 27 24 23 22 22 23 23 25 26 26 27 28 29 30 28 23 24 31 29 28 28 25 24 23 23
42 40 44 46 50 39 32 40 42 46 40 41 37 32 30 28 28 26 26 22 23 22 27 25 24 25 27 25 23 24 25 28 23 32 35 28 28 32 35 31 33 32 29
37 36 36 34 37 39 44 39 39 41 38 45 42 38 29 35 29 22 23 28 21 22 25 22 21 19 19 20 20 19 20 18 31 36 29 35 34 27 31 32 34 37 39
35 34 34 34 32 29 45 43 33 33 31 28 26 26 24 35 38 25 30 34 25 27 23 20 21 19 17 15 22 21 22 28 20 18 26 26 30 31 30 31 31 34 37
34 33 31 31 30 28 26 37 33 39 24 23 26 23 24 23 21 18 21 20 21 22 18 20 19 32 26 23 21 21 23 23 23 24 22 18 18 17 21 29 28 30 31
32 33 32 29 26 20 14 18 22 26 28 29 23 24 22 18 13 18 19 18 17 17 16 14 14 17 18 19 21 23 24 25 23 19 27 21 24 27 20 20 22 23 17
31 33 33 27 24 20 21 19 18 19 19 18 18 20 12 14 16 19 16 16 18 16 14 15 15 17 18 19 22 21 18 22 21 19 19 18 18 19 21 22 24 27 23
31 37 31 24 20 17 18 19 18 18 18 20 20 20 20 19 20 19 18 18 18 17 17 17 18 19 21 21 18 18 21 20 19 19 21 22 22 23 25 26 25 27 31
29 31 15 16 17 18 18 19 19 19 20 22 22 22 23 22 23 23 22 21 20 19 19 17 18 19 20 21 21 24 24 26 27 27 27 26 26 26 27 28 29 29 30
23 16 14 17 19 20 22 23 22 21 21 18 20 23 24 24 22 21 21 20 19 17 16 16 18 19 18 18 19 23 22 24 28 28 25 25 26 26 28 29 31 32 31
18 19 21 22 22 21 20 22 23 20 19 18 19 20 21 22 21 22 21 19 18 16 15 17 18 19 19 20 17 18 21 24 27 30 32 33 34 35 34 34 33 33 34
20 22 24 21 22 25 25 23 22 20 18 20 20 20 20 21 22 20 19 18 16 16 18 20 20 22 23 24 23 23 25 27 29 31 32 34 34 35 35 33 33 34 33
12 15 18 21 26 25 27 27 24 25 25 20 20 19 18 20 21 21 20 20 19 20 21 23 24 25 25 27 28 28 28 29 31 32 33 34 34 34 34 33 33 33 33
10 11 14 17 15 18 21 23 21 20 19 19 18 19 19 20 21 22 23 23 23 23 24 26 27 27 29 30 29 29 29 31 32 32 33 34 34 35 35 35 34 34 34
4 10 14 16 21 22 24 24 23 23 23 22 20 20 21 21 22 24 24 25 26 26 27 28 29 29 29 28 28 28 29 31 32 33 35 36 37 37 38 37 36 35 35
1 5 11 16 21 24 26 27 28 28 30 28 25 24 25 24 25 24 25 25 26 27 28 28 27 27 27 28 27 28 30 32 35 36 37 39 39 39 40 39 37 35 34
5 5 8 10 13 19 24 27 29 31 32 30 27 27 26 25 23 23 23 25 25 24 24 25 25 26 26 27 27 29 30 33 36 37 38 39 39 39 39 38 36 34 33
10 9 9 9 13 16 19 20 23 25 25 24 24 24 23 23 23 23 23 22 21 23 23 23 24 25 26 28 30 31 31 33 34 34 35 36 37 38 38 37 34 32 31
12 13 13 14 14 14 16 19 19 20 21 22 22 21 20 20 21 22 22 21 22 22 23 23 24 25 28 31 32 33 32 32 32 34 34 36 36 36 36 33 30 28 28
11 11 10 16 17 15 15 16 17 19 21 20 19 20 20 21 20 21 21 21 22 22 22 24 25 28 30 31 32 33 31 30 31 32 34 34 36 35 33 27 25 24 24
8 9 11 15 17 16 18 19 21 21 20 19 20 19 20 21 22 21 20 21 21 23 26 27 29 31 32 30 30 30 30 29 29 32 32 33 33 32 30 23 23 22 22
6 6 8 12 16 16 17 18 20 20 20 20 20 20 22 21 20 21 22 23 24 27 29 29 31 32 30 28 28 28 28 29 29 29 32 31 31 27 24 22 23 21 21
7 6 5 8 13 16 16 17 20 22 22 23 23 22 22 23 24 24 24 25 27 30 32 31 31 29 29 30 30 28 27 28 28 27 28 29 28 24 23 23 22 22 20
7 8 8 7 6 9 15 17 18 22 23 24 27 26 23 25 26 26 27 28 32 33 31 30 29 30 31 36 31 27 27 27 28 26 25 26 25 23 21 22 21 22 22
11 10 10 11 11 12 13 15 17 18 20 21 22 23 26 27 29 30 31 31 33 35 32 28 30 33 37 34 29 26 25 25 26 24 23 25 23 22 21 21 21 22 23

GFSMW_700_spd_111.txt.gz
Wind_Speed
43 40 40 38 34 41 47 46 50 49 37 33 34 38 41 41 41 40 38 35 33 29 25 22 20 19 18 19 20 20 20 22 22 22 21 18 17 21 24 24 22 21 22
48 46 40 45 50 51 53 47 49 49 33 37 36 37 39 40 39 39 38 37 34 29 26 23 22 22 22 22 23 21 21 21 20 18 16 22 29 29 29 24 21 22 20
52 48 43 45 44 44 50 51 47 50 46 43 35 38 40 40 40 40 38 35 29 26 23 21 20 22 24 23 20 19 19 15 12 16 21 22 14 15 19 19 26 32 32
55 50 46 40 33 49 46 48 45 48 54 45 40 39 40 40 38 36 34 31 27 24 25 24 24 23 25 19 16 15 9 9 29 19 19 17 22 20 20 20 20 25 34
54 51 45 43 37 40 36 35 27 46 47 54 41 41 40 36 35 36 35 32 29 25 25 28 24 21 18 15 11 13 18 22 15 17 19 22 21 17 19 19 18 30 28
47 42 40 38 38 36 42 47 35 29 36 39 48 48 45 40 48 44 38 38 28 31 29 26 22 14 18 20 12 10 13 15 15 17 22 20 16 19 21 22 21 25 24
36 37 37 36 38 29 34 38 42 34 26 24 47 43 44 42 37 47 49 37 27 22 23 20 13 14 14 12 12 13 17 19 19 20 20 20 19 16 17 18 18 19 20
35 29 24 21 21 25 23 23 28 32 33 29 25 20 33 44 30 35 35 30 19 18 16 16 14 14 14 14 14 16 16 14 16 17 15 15 17 17 18 19 22 24 24
35 30 25 22 20 18 18 14 14 18 21 19 21 9 10 7 9 15 16 13 15 17 16 17 17 15 14 14 15 14 14 17 18 19 19 19 21 23 23 23 23 24 29
37 32 29 25 18 16 14 14 12 10 11 11 9 10 10 12 15 15 15 17 19 19 18 18 17 17 17 17 19 19 21 22 22 22 22 24 25 23 23 23 24 25 28
37 28 31 24 17 15 13 14 12 11 9 9 11 13 15 16 16 18 18 19 19 18 18 18 18 19 19 19 18 18 17 17 18 18 19 21 22 24 27 29 31 32 34
17 25 30 16 15 15 15 16 16 14 12 12 12 14 16 18 19 20 20 20 19 19 19 19 19 19 18 17 15 15 16 18 19 20 22 23 25 27 28 30 32 33 34
5 3 18 15 14 12 13 15 18 18 15 14 13 14 15 16 18 19 19 20 20 20 19 20 19 18 18 18 18 17 20 22 23 23 24 25 27 29 30 30 30 31 32
10 11 16 15 11 14 18 21 21 21 19 17 16 15 16 17 18 19 21 22 22 21 21 20 20 21 21 21 20 22 24 24 24 25 25 26 27 28 29 30 30 31 31
9 9 11 16 19 21 22 20 23 23 22 21 19 18 17 16 18 20 21 22 22 23 23 23 24 24 22 23 25 26 26 25 26 26 26 27 28 30 32 32 32 33 33
6 9 10 14 15 16 16 19 22 23 22 21 19 17 17 17 18 21 22 23 24 24 24 24 24 24 25 26 27 26 25 25 25 25 26 28 29 32 34 35 35 35 36
4 4 9 13 14 18 18 20 22 24 24 22 20 18 18 19 21 22 23 24 25 26 26 26 25 26 28 27 25 27 25 26 26 26 28 29 29 31 33 33 33 34 34
3 4 6 9 14 18 20 21 23 25 26 26 26 25 24 24 26 26 25 25 25 25 26 27 27 27 25 25 25 26 25 26 28 29 29 30 30 30 31 32 33 34 34
6 7 8 9 11 13 16 19 23 25 25 26 26 26 26 26 27 27 26 24 23 24 25 24 23 24 25 25 25 25 26 28 29 29 30 30 30 30 31 32 32 33 31
8 11 14 13 13 11 13 17 19 22 24 26 26 26 24 23 22 22 22 21 20 20 22 23 24 24 26 26 25 26 28 27 27 28 29 30 29 30 31 32 33 32 28
10 11 11 14 16 16 16 17 17 19 20 21 22 21 21 21 21 21 20 21 20 22 22 23 24 25 26 27 28 28 29 28 26 27 28 29 30 30 31 31 32 30 27
7 9 11 12 14 16 17 17 18 18 18 19 18 19 19 20 20 21 21 21 21 22 23 24 25 26 28 29 31 31 28 25 25 26 26 28 28 29 30 30 30 26 23
6 6 8 10 14 16 16 17 18 18 18 19 19 20 20 20 21 21 22 21 22 23 23 24 27 28 29 31 31 29 25 27 27 26 26 26 26 27 28 28 27 25 23
6 5 5 7 10 12 14 17 15 20 22 24 25 25 25 25 25 24 23 23 24 26 26 26 28 30 30 32 31 29 26 28 29 25 23 25 27 26 26 27 25 23 22
8 8 8 8 9 11 17 17 18 23 20 20 22 23 26 29 28 27 27 28 30 28 27 26 30 32 33 32 29 32 34 29 26 23 23 25 24 24 24 25 24 22 21
12 12 11 11 12 13 15 18 21 24 24 20 25 29 28 21 27 23 23 27 28 28 29 33 35 35 29 29 32 34 31 23 22 21 22 23 23 23 23 23 22 22 21

GFSMW_700_spd_114.txt.gz
Wind_Speed
47 37 42 38 53 46 57 64 55 40 36 37 38 41 41 42 42 43 44 43 41 37 34 30 27 23 21 19 18 18 17 17 16 15 16 15 16 19 25 29 28 26 22
47 40 35 25 30 54 52 59 60 52 41 38 37 35 39 41 41 41 42 43 41 38 35 31 28 25 23 22 22 20 19 16 13 10 12 19 20 22 25 18 16 16 20
43 41 37 31 36 46 54 51 53 57 46 41 35 34 39 38 43 45 46 44 42 39 35 32 29 27 24 22 21 19 17 16 16 14 15 24 21 20 20 19 18 17 20
26 45 42 39 29 40 50 48 43 49 42 38 41 39 34 39 41 43 44 43 41 37 34 30 28 23 21 20 20 23 22 13 18 19 18 18 18 19 24 19 19 21 23
28 49 43 37 33 34 42 43 48 52 56 46 48 41 36 35 38 42 41 41 38 35 32 31 28 25 18 18 25 15 18 15 12 20 18 18 19 23 23 19 18 17 20
31 49 41 35 31 35 37 36 34 51 41 51 43 43 36 36 38 39 39 40 37 35 33 29 28 30 28 24 18 19 19 14 16 17 18 20 20 21 19 22 23 20 23
25 37 42 33 33 30 28 32 31 44 41 46 47 50 51 39 41 44 42 40 38 38 36 32 28 28 29 18 18 17 16 18 17 19 18 20 19 19 20 19 18 18 18
29 29 32 33 30 28 21 20 24 38 41 39 40 54 31 38 41 53 44 41 44 39 41 42 33 20 17 18 19 19 20 19 18 18 17 17 16 16 18 19 20 22 22
28 26 37 30 24 21 26 21 35 32 19 23 26 21 38 59 32 50 49 54 36 42 38 42 15 22 21 20 20 20 19 18 19 20 19 19 20 20 21 21 22 25 26
28 31 30 24 22 18 22 18 14 16 24 27 19 18 16 13 31 41 24 41 31 30 27 18 23 23 23 22 22 20 18 18 18 17 17 16 17 18 19 20 22 24 28
33 31 26 24 21 17 17 15 16 15 12 11 9 10 8 10 9 14 16 15 14 16 21 23 25 24 23 23 22 18 16 14 13 14 16 18 19 20 22 23 24 27 30
33 29 32 27 22 20 17 16 16 15 12 9 9 11 10 12 15 16 18 18 20 22 24 24 24 24 24 23 20 18 16 16 16 17 19 20 22 23 24 26 27 28 30
20 28 28 25 22 18 16 16 15 12 9 7 7 9 11 14 14 17 19 20 21 23 24 25 25 25 24 21 20 18 18 18 19 21 22 22 23 24 24 25 25 26 27
13 20 22 19 21 18 15 13 13 13 13 9 9 10 10 12 16 19 21 23 25 27 28 26 25 25 24 23 23 22 21 21 22 23 23 24 24 23 24 26 27 28 29
8 8 5 8 8 11 14 12 10 12 14 13 13 13 11 11 16 19 21 24 26 27 26 25 24 25 25 25 25 25 24 24 23 24 24 25 24 24 26 27 28 30 32
6 7 7 7 11 14 12 10 13 17 19 17 16 15 15 13 15 18 21 23 24 25 26 25 26 26 26 26 27 26 26 25 24 25 26 26 25 25 28 28 29 30 30
5 4 6 7 9 12 13 13 17 20 20 20 19 19 17 16 16 17 19 21 23 25 26 26 27 27 27 28 27 26 25 24 26 27 27 27 29 29 29 29 29 29 30
2 1 2 6 10 11 14 16 16 19 22 23 22 23 21 20 19 20 21 21 23 24 26 27 27 27 27 27 27 25 24 25 26 27 27 29 30 29 28 28 28 30 30
5 6 5 5 7 11 15 17 19 21 23 25 25 25 25 24 24 24 24 26 27 27 27 27 27 27 27 25 24 25 25 26 27 27 29 29 29 28 26 27 28 30 31
6 8 10 10 9 8 9 13 16 19 22 24 25 27 28 28 28 28 28 28 27 25 25 25 25 24 23 23 24 26 27 26 26 29 29 28 28 27 26 27 28 29 31
6 10 11 12 15 16 15 14 14 15 17 19 21 23 24 26 26 27 26 25 25 24 23 23 22 23 24 25 25 26 27 26 28 29 27 27 28 28 27 25 27 28 30
7 7 9 12 14 15 17 17 16 15 15 15 17 17 18 20 21 21 21 22 22 22 23 23 24 25 25 25 26 26 27 27 25 27 28 27 29 29 28 27 27 28 29
8 9 9 8 11 14 15 15 16 17 16 15 15 16 16 18 19 20 21 21 22 22 23 22 23 24 25 26 26 27 30 30 26 25 26 29 29 30 29 27 27 28 27
9 7 7 9 9 10 12 15 15 18 19 19 19 20 21 22 23 23 23 23 24 24 24 24 25 26 26 28 28 30 33 34 32 26 27 28 28 28 27 26 27 26 25
11 11 10 10 11 12 13 18 17 18 20 15 21 27 32 31 30 28 29 30 30 29 29 28 28 28 30 32 32 32 33 32 30 29 27 28 28 26 25 26 26 24 22
15 16 17 17 17 17 16 18 20 26 28 28 26 22 23 28 27 25 28 35 37 34 34 34 33 32 33 32 34 33 33 32 32 29 27 26 26 25 24 24 24 23 22

GFSMW_700_spd_117.txt.gz
Wind_Speed
26 43 53 47 33 44 45 39 51 48 45 42 44 43 43 44 43 43 42 43 44 43 40 37 33 29 25 22 18 15 13 13 13 14 16 15 18 16 17 20 24 20 20
27 35 48 38 24 38 47 45 54 54 41 41 41 40 41 43 43 43 42 44 44 43 42 38 33 29 25 22 19 17 16 16 16 17 17 16 16 18 21 24 18 19 17
26 33 45 34 24 33 43 40 50 48 44 38 38 39 41 43 45 46 44 45 47 46 42 38 34 30 27 23 20 19 18 16 17 20 20 21 20 19 17 18 21 21 21
22 34 43 32 29 37 45 42 51 45 46 41 39 40 41 43 43 44 45 46 47 45 42 39 34 30 26 23 21 18 16 16 15 21 21 22 22 18 22 21 22 21 18
19 32 34 34 30 36 43 45 56 53 54 45 39 34 32 35 38 42 44 44 45 44 43 38 35 31 28 25 20 20 13 3 19 20 21 22 21 22 25 25 22 20 21
25 17 22 34 31 35 51 40 51 48 53 44 40 34 35 37 41 41 41 43 44 44 41 38 35 32 29 27 21 17 17 20 23 24 19 20 22 23 24 24 22 22 20
21 24 28 38 35 29 42 33 25 50 49 48 39 37 38 37 33 35 37 40 42 41 38 37 34 31 29 27 28 24 12 20 23 21 19 22 24 22 22 22 22 21 20
25 23 26 37 31 23 25 30 20 16 61 38 40 33 39 36 33 37 38 39 38 40 42 40 34 33 32 37 36 21 22 20 19 20 21 24 21 20 21 20 23 24 22
16 24 34 39 29 23 15 15 11 29 25 39 43 37 42 44 49 38 40 35 41 41 41 39 41 42 37 27 21 18 22 21 19 21 23 23 21 21 21 21 21 23 22
26 24 34 34 24 20 15 17 14 16 28 27 52 25 48 25 20 36 33 50 49 46 48 39 45 44 47 26 14 24 23 21 21 23 24 23 21 18 18 20 21 23 26
31 35 34 27 21 20 18 20 14 12 12 17 22 16 11 6 3 16 18 36 43 58 49 41 45 36 35 22 27 24 23 24 22 22 19 18 18 19 21 22 24 25 28
29 34 36 29 27 23 19 21 16 13 15 19 19 19 18 16 15 14 15 14 9 21 33 19 22 22 24 27 27 24 24 22 21 20 19 19 20 21 23 25 26 27 28
33 30 29 29 24 21 21 20 21 16 11 16 17 16 17 15 15 16 18 17 13 15 21 22 25 28 27 26 24 25 24 22 21 21 21 21 22 24 24 26 27 27 28
26 30 30 26 25 21 21 19 16 16 15 15 17 15 15 15 16 17 18 19 19 21 22 24 24 24 24 25 27 27 25 24 23 22 23 23 24 25 26 26 27 28 28
13 14 27 26 21 20 16 13 12 13 14 13 12 13 12 11 13 16 18 19 19 22 24 23 23 24 25 28 28 28 27 25 25 25 25 25 25 25 26 27 28 29 30
13 12 11 11 15 18 17 14 12 10 11 11 9 11 11 10 11 15 17 19 21 23 25 25 25 25 26 28 29 29 28 27 27 26 27 25 25 26 27 28 30 32 33
12 9 9 6 7 6 6 6 8 9 11 13 13 15 14 13 12 14 16 20 21 23 25 26 25 26 28 29 30 30 29 28 29 28 27 26 26 27 28 30 32 33 33
9 9 7 5 6 8 10 12 13 15 18 19 19 19 18 15 13 14 16 18 19 20 21 24 26 27 28 29 29 29 29 30 28 27 27 27 27 27 28 31 31 33 31
4 4 3 2 3 5 9 11 15 15 17 20 20 20 19 19 18 18 18 19 20 21 23 25 26 27 29 30 31 31 30 29 27 27 27 28 28 29 29 31 32 33 32
4 2 2 3 3 4 5 9 13 15 16 18 20 23 24 24 25 26 25 23 24 26 28 28 29 29 29 29 29 29 28 27 27 27 27 28 31 32 31 31 31 31 32
8 7 5 5 6 8 8 8 9 11 13 17 19 21 23 25 25 26 26 28 28 30 30 29 29 29 28 28 28 27 28 27 26 27 28 30 32 34 34 31 31 31 31
11 11 11 11 9 9 10 10 10 11 13 14 15 17 20 22 24 25 27 28 28 27 26 26 26 26 26 26 26 26 27 27 27 28 30 31 33 34 35 34 32 32 32
12 12 13 13 14 15 15 12 11 11 11 12 13 15 16 18 20 22 23 24 24 25 25 25 26 27 27 27 27 27 28 29 28 28 32 33 34 36 33 32 30 30 29
13 12 11 12 14 16 17 16 14 18 13 13 16 15 17 20 22 22 24 26 27 28 28 29 30 31 31 31 30 30 31 31 31 30 33 33 32 32 30 28 27 27 27
12 13 13 13 14 15 16 17 18 18 20 20 18 13 20 24 26 27 29 31 33 34 35 36 36 36 35 34 35 35 34 33 33 33 32 29 28 29 27 25 26 26 26
16 16 16 17 18 19 19 20 20 20 21 20 24 29 28 26 26 23 21 28 34 37 39 40 40 40 40 39 36 34 36 35 33 33 32 31 28 28 27 26 26 26 25

GFSMW_700_spd_120.txt.gz
Wind_Speed
38 33 35 46 45 52 45 43 30 56 58 57 51 49 51 45 42 41 42 44 41 40 41 39 36 32 28 24 20 16 12 10 9 9 12 14 14 17 13 15 18 21 17
30 35 31 37 40 53 46 34 39 46 38 62 47 42 42 42 40 42 42 43 39 40 42 40 38 34 29 25 20 17 14 12 12 13 14 17 16 16 15 15 16 15 19
33 33 27 20 40 48 38 27 53 42 49 51 39 40 40 40 41 43 44 43 41 42 44 43 39 34 29 24 21 18 16 16 15 13 16 17 18 19 17 17 15 17 20
26 26 21 25 36 40 29 30 47 26 49 63 52 42 44 44 42 42 43 44 44 45 45 44 39 34 31 27 24 22 20 19 14 16 18 20 18 22 22 18 18 21 19
24 23 28 28 25 31 27 22 36 40 47 55 48 42 45 42 41 43 44 45 44 45 46 44 39 36 33 30 26 23 22 19 12 13 18 20 21 18 21 22 19 20 19
23 23 19 21 25 31 24 21 34 35 37 38 42 42 43 41 44 43 44 45 45 47 47 43 41 39 35 30 27 25 20 18 20 15 17 24 20 19 20 22 20 19 18
24 23 22 21 28 26 20 17 22 37 39 43 36 39 39 41 39 39 42 44 46 45 44 44 42 38 34 32 29 26 19 11 18 27 25 24 21 21 23 22 21 21 19
26 24 17 24 31 26 19 22 29 28 43 49 36 45 44 42 40 38 40 40 41 41 42 42 40 38 35 34 30 27 25 16 25 19 18 22 22 23 23 22 23 22 19
23 21 18 29 30 22 16 13 20 31 21 49 57 38 36 36 36 35 36 37 36 37 40 41 39 37 36 35 33 30 26 27 30 23 22 22 22 21 22 24 24 21 19
16 20 28 33 28 21 16 12 20 18 8 28 34 37 38 27 31 33 32 35 36 39 39 40 40 42 40 36 33 30 35 24 24 24 24 22 23 24 25 24 22 22 23
20 28 32 35 29 21 16 13 22 14 13 14 39 32 33 32 41 28 26 33 37 33 36 35 41 45 44 40 40 39 28 25 26 25 23 22 24 24 24 23 23 23 26
28 36 39 36 30 24 21 15 10 7 19 13 28 34 36 18 12 27 42 39 34 42 56 48 44 45 51 47 43 50 39 27 24 24 23 23 23 25 25 24 24 25 28
28 42 35 31 27 23 18 12 7 5 12 11 18 18 27 16 16 16 9 8 25 35 24 46 56 57 49 43 48 30 30 30 26 24 25 24 26 26 25 25 26 26 28
40 32 36 33 26 23 23 20 17 13 14 16 22 24 21 21 22 22 17 14 18 17 17 25 34 39 23 25 22 26 28 27 25 25 25 25 26 26 27 27 27 27 28
38 38 36 33 28 26 24 21 17 16 17 24 25 24 19 19 20 19 21 19 18 19 19 20 21 23 24 24 25 27 27 25 26 27 26 27 28 28 28 28 29 28 28
25 28 29 30 32 26 22 18 18 15 18 17 16 16 14 13 12 12 15 18 21 21 23 24 23 24 21 22 24 27 29 29 30 29 30 30 30 29 28 28 29 29 29
23 22 21 17 13 14 17 14 11 12 13 14 13 14 12 11 12 13 15 17 19 20 22 22 20 21 24 26 27 28 31 31 31 33 33 32 31 30 29 29 29 29 29
18 16 15 13 10 8 9 11 9 7 5 6 6 12 14 10 11 11 15 16 19 19 20 23 23 24 25 27 28 28 30 32 33 34 34 33 31 29 30 29 29 29 29
13 13 12 10 7 4 3 3 5 7 11 13 14 14 10 13 14 11 13 14 15 16 19 20 21 24 25 27 28 31 32 34 35 35 34 32 30 31 30 30 30 29 30
12 9 6 5 4 3 1 4 7 9 10 11 14 16 16 17 19 19 20 20 20 21 22 23 25 26 27 30 31 33 34 36 35 34 33 32 31 31 30 30 30 30 31
10 9 7 4 2 3 4 5 6 7 10 14 17 18 19 21 22 24 25 26 27 30 29 28 29 29 31 33 34 35 35 35 34 33 31 30 30 30 30 30 30 31 32
10 9 8 6 6 6 8 9 12 13 13 13 15 17 20 22 25 25 27 27 29 30 32 33 34 35 35 35 34 34 33 32 31 31 30 30 31 30 30 31 31 34 33
8 8 7 6 5 6 8 9 10 13 16 17 18 17 17 20 22 24 26 28 29 31 33 34 34 33 33 32 33 33 33 33 33 32 31 30 30 30 32 32 30 31 31
13 12 9 8 8 9 8 8 10 12 12 13 15 18 22 23 23 24 25 26 27 29 30 31 31 32 33 34 34 35 35 36 35 34 34 31 29 30 32 31 29 29 29
14 15 15 16 16 15 14 13 12 13 14 15 17 21 20 21 26 28 29 30 30 32 34 35 35 37 37 37 38 38 39 39 38 37 35 34 31 30 32 29 29 29 28
14 16 17 18 19 20 21 21 21 19 18 18 19 20 21 24 25 24 25 27 26 30 36 42 42 43 43 43 43 44 45 45 42 40 39 37 36 33 32 30 30 29 28

GFSMW_700_spd_123.txt.gz
Wind_Speed
40 29 38 50 43 44 58 61 54 52 44 40 44 44 46 59 56 50 48 43 42 43 42 41 40 36 33 29 25 23 20 17 15 13 10 10 11 13 11 10 13 12 10
30 26 32 41 41 45 56 59 52 52 56 45 40 49 55 54 51 51 46 43 44 45 41 40 39 35 35 31 27 24 20 18 16 14 12 13 14 13 11 11 12 11 13
25 23 33 44 42 35 51 56 58 48 65 48 49 57 51 52 49 48 50 46 47 44 42 39 37 37 36 32 27 25 22 19 17 14 14 16 15 14 14 11 11 13 15
30 27 29 35 31 33 35 47 50 50 40 44 62 57 56 50 51 49 42 48 47 44 42 39 40 40 37 33 30 27 23 20 17 16 17 18 19 14 13 16 14 15 16
29 32 32 30 35 29 33 39 40 41 46 32 52 57 52 50 43 46 45 48 46 44 42 41 42 42 39 36 32 28 24 22 20 17 17 16 19 15 15 13 13 14 16
23 32 34 31 28 24 29 28 29 31 37 36 52 52 47 45 45 45 45 47 46 45 44 43 45 44 40 37 32 29 26 25 22 18 19 21 20 23 20 16 15 15 16
26 26 29 32 26 27 26 32 25 26 34 66 37 55 41 43 43 43 46 47 48 48 46 46 47 44 41 37 34 31 29 27 23 17 21 31 29 24 24 21 18 16 16
21 25 26 24 28 29 23 23 21 14 22 44 35 49 61 41 37 39 44 45 45 44 42 43 43 42 40 39 36 33 30 28 23 16 19 19 19 24 27 23 19 19 19
25 25 29 29 28 26 23 23 15 12 16 32 35 37 42 45 43 38 39 41 42 42 42 40 41 41 41 39 36 34 32 28 24 21 28 26 27 25 25 22 22 21 21
20 28 28 30 32 25 24 23 18 12 12 14 25 35 33 43 43 44 41 37 37 39 37 39 39 41 40 40 37 36 34 33 29 30 31 38 29 27 26 23 24 24 22
25 25 28 35 34 29 30 22 14 4 6 23 24 21 22 43 46 41 45 44 37 39 40 39 40 40 41 40 40 41 39 34 37 33 40 36 31 27 26 24 25 24 24
18 30 38 36 33 30 24 15 9 8 8 11 18 20 33 28 36 31 33 36 43 37 36 38 39 39 40 41 41 41 41 39 45 44 45 37 30 28 26 24 25 26 26
28 41 43 37 35 31 24 14 9 3 9 0 14 27 29 35 40 31 39 21 47 31 30 33 37 37 39 40 41 41 39 45 44 47 33 33 29 27 25 25 27 27 29
38 36 42 38 35 28 18 13 9 8 18 13 12 18 24 16 18 15 23 25 41 34 39 43 46 41 39 41 43 45 50 44 50 52 58 30 29 25 26 26 27 29 30
45 47 39 36 28 28 19 15 11 18 20 21 23 27 27 23 19 18 20 22 22 19 24 45 44 35 42 55 52 62 46 57 35 28 27 27 26 25 26 27 29 30 30
43 40 34 32 30 29 27 24 24 22 22 23 22 19 20 17 12 14 24 21 20 22 24 26 31 34 29 30 28 29 25 33 28 28 27 28 27 28 28 29 30 31 31
35 32 32 32 27 25 24 22 22 22 19 19 20 11 11 9 8 12 14 18 22 23 23 24 21 20 21 23 25 25 24 24 25 27 28 28 29 30 31 32 32 33 31
28 28 25 22 20 17 14 15 16 17 19 16 16 16 14 12 11 11 13 14 15 15 17 19 25 28 15 14 18 21 24 27 28 29 31 32 34 34 34 34 34 33 32
23 22 21 19 17 14 12 9 7 5 4 4 7 13 17 17 16 17 15 14 16 17 18 20 18 14 18 25 25 24 25 30 31 31 36 35 33 35 36 36 35 33 32
18 17 15 13 12 11 9 6 4 3 3 4 7 8 9 11 17 18 15 16 17 19 20 20 21 22 21 22 23 24 25 26 26 31 33 35 36 37 37 35 33 33 33
15 15 13 11 9 7 5 3 2 1 3 6 9 10 13 15 16 17 19 20 23 23 26 25 25 25 27 28 28 28 29 31 33 33 35 36 37 37 35 34 32 32 33
13 13 12 11 9 7 4 2 3 5 7 10 12 13 15 17 19 20 21 24 26 27 30 30 30 31 30 33 34 36 34 34 35 36 37 38 36 35 34 33 32 33 33
10 9 8 8 8 6 5 4 3 3 5 7 11 14 17 18 20 23 24 24 25 29 32 33 34 34 35 35 36 39 39 39 38 38 39 39 37 36 34 33 33 32 31
7 6 6 7 7 7 8 10 11 12 11 11 12 13 14 16 19 23 27 27 27 27 29 31 32 33 35 37 38 38 38 39 39 40 39 40 39 38 36 34 33 31 28
5 4 3 2 3 4 5 8 10 12 13 15 17 18 20 20 22 24 25 25 27 30 30 31 32 33 35 37 39 40 40 41 42 42 44 44 42 40 38 36 35 32 29
12 11 10 10 10 10 10 11 11 12 14 16 18 19 21 23 24 24 26 27 29 29 27 30 32 32 32 31 38 40 42 45 46 47 48 47 46 46 42 39 37 34 31

GFSMW_700_spd_126.txt.gz
Wind_Speed
43 42 46 51 58 61 64 61 61 68 72 65 57 56 54 56 42 56 55 50 49 44 40 42 42 40 37 35 33 31 28 24 22 19 17 14 12 10 12 11 11 10 7
36 38 44 48 48 50 49 58 58 62 70 67 64 60 54 55 48 46 54 50 51 50 44 44 45 40 39 38 36 33 29 26 23 20 18 15 13 13 14 12 13 13 11
32 35 31 38 42 43 42 44 52 55 61 62 56 58 54 56 55 52 61 53 53 51 41 44 46 42 41 40 38 34 30 26 24 21 19 16 15 15 15 14 15 14 14
29 32 30 31 38 43 42 46 44 48 58 57 54 59 67 62 55 59 54 56 52 51 45 44 45 42 41 42 38 34 30 27 24 22 19 18 15 17 17 15 17 16 15
21 26 31 30 29 39 46 43 42 40 44 55 53 55 56 63 58 65 60 57 53 49 43 44 45 44 43 42 40 35 32 29 26 22 20 18 17 16 16 13 16 16 16
20 23 24 28 26 26 36 32 38 39 41 45 52 53 57 52 60 57 60 62 52 47 43 45 46 44 44 45 41 36 33 29 27 24 22 20 18 18 19 17 16 16 20
20 23 21 28 30 28 32 36 37 38 39 39 46 43 54 52 58 51 53 53 49 44 47 47 47 46 46 46 41 37 35 33 29 27 25 24 22 22 24 25 19 18 22
23 22 24 28 27 27 28 28 30 32 28 28 37 36 40 56 54 50 53 41 43 40 42 44 46 46 46 45 42 39 38 35 32 30 27 25 23 19 21 19 18 20 22
18 13 17 21 25 27 28 30 29 23 22 19 27 33 36 42 42 44 46 40 42 42 43 46 47 46 46 44 43 42 40 36 34 32 28 26 23 24 27 22 21 23 23
17 20 21 26 28 28 29 26 24 17 11 10 12 32 31 38 47 49 42 39 40 41 42 45 46 45 45 44 44 43 39 37 35 34 34 29 32 35 37 27 26 27 25
10 16 22 27 29 29 29 29 22 21 16 9 8 13 27 33 39 44 41 34 35 35 39 41 43 42 45 44 44 42 40 38 38 37 37 34 35 41 39 33 31 30 27
13 17 18 17 27 18 29 28 16 15 11 9 10 15 22 28 37 49 46 38 37 38 37 37 39 42 43 42 43 42 42 41 42 42 43 41 42 44 42 37 30 33 27
18 16 16 15 27 28 24 21 18 14 11 4 8 13 19 26 33 37 43 39 39 40 40 40 43 43 44 43 41 41 43 44 45 47 45 44 42 50 38 39 34 29 27
16 20 23 37 32 27 20 18 15 17 17 17 13 18 11 17 30 29 32 35 41 46 45 41 41 43 44 42 44 45 45 46 49 51 46 42 42 50 52 43 33 28 28
29 29 36 34 30 26 23 23 27 27 22 14 14 14 11 18 23 24 17 27 17 25 37 38 38 32 39 42 42 44 46 48 52 52 44 43 47 55 49 37 27 26 28
47 37 30 30 24 26 21 26 26 21 22 19 19 22 25 25 13 13 14 14 13 28 34 34 30 38 44 42 42 45 47 48 54 52 54 52 50 31 32 24 25 27 27
43 46 38 36 32 30 27 24 19 17 20 20 19 17 12 10 12 13 14 13 16 19 18 21 24 36 32 35 36 40 42 48 50 50 56 53 34 28 26 26 27 29 29
36 34 30 28 27 23 21 19 18 16 11 14 11 9 13 14 8 6 13 9 12 16 19 20 18 21 18 27 25 26 24 31 36 33 30 35 30 23 25 27 31 32 32
28 27 24 24 22 20 21 17 15 12 8 7 7 4 3 2 2 5 6 10 12 14 17 18 20 26 27 26 23 27 25 23 24 24 23 24 26 32 32 33 37 31 33
22 21 20 19 17 17 16 13 10 9 7 5 3 2 2 4 10 16 15 15 13 12 13 17 22 21 21 23 23 29 29 26 29 29 28 31 29 31 41 36 31 33 36
18 19 17 14 12 12 10 8 6 6 4 2 1 3 6 8 10 13 13 18 18 21 19 23 23 25 29 27 25 25 28 28 27 26 28 29 29 31 30 31 35 37 36
14 14 14 12 11 9 8 6 4 2 1 4 7 8 10 11 13 15 17 18 21 24 27 29 30 30 33 34 36 34 35 33 33 34 36 37 34 34 36 37 38 38 36
7 9 10 8 6 5 5 4 2 0 2 5 7 9 12 15 17 20 22 23 24 26 28 30 32 34 35 35 36 35 37 39 41 37 36 36 32 35 39 37 39 37 35
6 6 6 4 5 7 7 7 8 9 9 9 11 13 13 16 18 20 22 24 26 29 32 34 35 36 34 34 36 39 42 44 45 40 37 37 38 41 42 43 41 39 37
1 1 2 2 1 3 5 6 8 9 11 13 16 17 19 21 22 23 24 26 27 28 28 30 32 34 37 38 37 37 36 36 38 40 41 43 45 45 46 44 44 45 42
1 2 3 4 5 6 7 8 8 9 11 12 16 18 19 23 24 26 27 29 30 31 32 31 31 30 32 34 36 38 39 38 35 38 42 44 45 47 48 49 48 47 45